<?xml version="1.0" encoding="UTF-8" standalone="no" ?>
<gpx xmlns="http://www.topografix.com/GPX/1/1" xmlns:xsi="http://www.w3.org/2001/XMLSchema-instance" xsi:schemaLocation="http://www.topografix.com/GPX/1/1 http://www.topografix.com/GPX/1/1/gpx.xsd" version="1.1" creator="VisuGPX - https://www.visugpx.com">
  <metadata>
    <name>pr10 randonnes desaignes</name>
    <desc><![CDATA[très longue 21 km]]></desc>
  </metadata>
  <trk>
    <name><![CDATA[Tracé 27 nov. 2015 08:34:33]]></name>
    <trkseg>
      <trkpt lat="44.99456" lon="4.51621">
        <ele>416</ele>
        <time>2015-11-27T07:34:33Z</time>
      </trkpt>
      <trkpt lat="44.99453" lon="4.5163">
        <ele>416</ele>
        <time>2015-11-27T07:34:57Z</time>
      </trkpt>
      <trkpt lat="44.99461" lon="4.51637">
        <ele>424</ele>
        <time>2015-11-27T07:35:06Z</time>
      </trkpt>
      <trkpt lat="44.99468" lon="4.5164">
        <ele>421</ele>
        <time>2015-11-27T07:35:14Z</time>
      </trkpt>
      <trkpt lat="44.99476" lon="4.51644">
        <ele>422</ele>
        <time>2015-11-27T07:35:21Z</time>
      </trkpt>
      <trkpt lat="44.99486" lon="4.51645">
        <ele>420</ele>
        <time>2015-11-27T07:35:25Z</time>
      </trkpt>
      <trkpt lat="44.99495" lon="4.51641">
        <ele>418</ele>
        <time>2015-11-27T07:35:39Z</time>
      </trkpt>
      <trkpt lat="44.99503" lon="4.5164">
        <ele>422</ele>
        <time>2015-11-27T07:35:45Z</time>
      </trkpt>
      <trkpt lat="44.99501" lon="4.51648">
        <ele>425</ele>
        <time>2015-11-27T07:35:58Z</time>
      </trkpt>
      <trkpt lat="44.99477" lon="4.51655">
        <ele>425</ele>
        <time>2015-11-27T07:36:02Z</time>
      </trkpt>
      <trkpt lat="44.99491" lon="4.5165">
        <ele>425</ele>
        <time>2015-11-27T07:36:07Z</time>
      </trkpt>
      <trkpt lat="44.99478" lon="4.51622">
        <ele>423</ele>
        <time>2015-11-27T07:36:11Z</time>
      </trkpt>
      <trkpt lat="44.9948" lon="4.51605">
        <ele>421</ele>
        <time>2015-11-27T07:36:15Z</time>
      </trkpt>
      <trkpt lat="44.9949" lon="4.51603">
        <ele>421</ele>
        <time>2015-11-27T07:36:19Z</time>
      </trkpt>
      <trkpt lat="44.99489" lon="4.5159">
        <ele>420</ele>
        <time>2015-11-27T07:36:26Z</time>
      </trkpt>
      <trkpt lat="44.99496" lon="4.51586">
        <ele>419</ele>
        <time>2015-11-27T07:36:31Z</time>
      </trkpt>
      <trkpt lat="44.99501" lon="4.51581">
        <ele>418</ele>
        <time>2015-11-27T07:36:36Z</time>
      </trkpt>
      <trkpt lat="44.99508" lon="4.51576">
        <ele>418</ele>
        <time>2015-11-27T07:36:41Z</time>
      </trkpt>
      <trkpt lat="44.9952" lon="4.51568">
        <ele>418</ele>
        <time>2015-11-27T07:36:45Z</time>
      </trkpt>
      <trkpt lat="44.99526" lon="4.51567">
        <ele>418</ele>
        <time>2015-11-27T07:36:49Z</time>
      </trkpt>
      <trkpt lat="44.9953" lon="4.51558">
        <ele>417</ele>
        <time>2015-11-27T07:36:56Z</time>
      </trkpt>
      <trkpt lat="44.99532" lon="4.51551">
        <ele>416</ele>
        <time>2015-11-27T07:37:00Z</time>
      </trkpt>
      <trkpt lat="44.99531" lon="4.51538">
        <ele>416</ele>
        <time>2015-11-27T07:37:03Z</time>
      </trkpt>
      <trkpt lat="44.99528" lon="4.51527">
        <ele>415</ele>
        <time>2015-11-27T07:37:07Z</time>
      </trkpt>
      <trkpt lat="44.9953" lon="4.51515">
        <ele>414</ele>
        <time>2015-11-27T07:37:12Z</time>
      </trkpt>
      <trkpt lat="44.9953" lon="4.51507">
        <ele>414</ele>
        <time>2015-11-27T07:37:16Z</time>
      </trkpt>
      <trkpt lat="44.99532" lon="4.51495">
        <ele>413</ele>
        <time>2015-11-27T07:37:21Z</time>
      </trkpt>
      <trkpt lat="44.99538" lon="4.51491">
        <ele>412</ele>
        <time>2015-11-27T07:37:27Z</time>
      </trkpt>
      <trkpt lat="44.99544" lon="4.51484">
        <ele>412</ele>
        <time>2015-11-27T07:37:33Z</time>
      </trkpt>
      <trkpt lat="44.99546" lon="4.51475">
        <ele>412</ele>
        <time>2015-11-27T07:37:37Z</time>
      </trkpt>
      <trkpt lat="44.99551" lon="4.51464">
        <ele>413</ele>
        <time>2015-11-27T07:37:49Z</time>
      </trkpt>
      <trkpt lat="44.99559" lon="4.51468">
        <ele>413</ele>
        <time>2015-11-27T07:37:55Z</time>
      </trkpt>
      <trkpt lat="44.99567" lon="4.51469">
        <ele>412</ele>
        <time>2015-11-27T07:38:01Z</time>
      </trkpt>
      <trkpt lat="44.99575" lon="4.51471">
        <ele>413</ele>
        <time>2015-11-27T07:38:10Z</time>
      </trkpt>
      <trkpt lat="44.99582" lon="4.51463">
        <ele>414</ele>
        <time>2015-11-27T07:38:17Z</time>
      </trkpt>
      <trkpt lat="44.99584" lon="4.51455">
        <ele>415</ele>
        <time>2015-11-27T07:38:21Z</time>
      </trkpt>
      <trkpt lat="44.99585" lon="4.51445">
        <ele>417</ele>
        <time>2015-11-27T07:38:25Z</time>
      </trkpt>
      <trkpt lat="44.99587" lon="4.51434">
        <ele>418</ele>
        <time>2015-11-27T07:38:31Z</time>
      </trkpt>
      <trkpt lat="44.99589" lon="4.51422">
        <ele>419</ele>
        <time>2015-11-27T07:38:36Z</time>
      </trkpt>
      <trkpt lat="44.99591" lon="4.51411">
        <ele>421</ele>
        <time>2015-11-27T07:38:42Z</time>
      </trkpt>
      <trkpt lat="44.99592" lon="4.51402">
        <ele>421</ele>
        <time>2015-11-27T07:38:47Z</time>
      </trkpt>
      <trkpt lat="44.99597" lon="4.51395">
        <ele>422</ele>
        <time>2015-11-27T07:38:51Z</time>
      </trkpt>
      <trkpt lat="44.99603" lon="4.51387">
        <ele>422</ele>
        <time>2015-11-27T07:38:56Z</time>
      </trkpt>
      <trkpt lat="44.99608" lon="4.51376">
        <ele>423</ele>
        <time>2015-11-27T07:39:02Z</time>
      </trkpt>
      <trkpt lat="44.99615" lon="4.51376">
        <ele>425</ele>
        <time>2015-11-27T07:39:07Z</time>
      </trkpt>
      <trkpt lat="44.99617" lon="4.51365">
        <ele>426</ele>
        <time>2015-11-27T07:39:13Z</time>
      </trkpt>
      <trkpt lat="44.99619" lon="4.51354">
        <ele>427</ele>
        <time>2015-11-27T07:39:19Z</time>
      </trkpt>
      <trkpt lat="44.99618" lon="4.51342">
        <ele>427</ele>
        <time>2015-11-27T07:39:25Z</time>
      </trkpt>
      <trkpt lat="44.99617" lon="4.5133">
        <ele>428</ele>
        <time>2015-11-27T07:39:33Z</time>
      </trkpt>
      <trkpt lat="44.99613" lon="4.51322">
        <ele>428</ele>
        <time>2015-11-27T07:39:41Z</time>
      </trkpt>
      <trkpt lat="44.99604" lon="4.51318">
        <ele>429</ele>
        <time>2015-11-27T07:39:49Z</time>
      </trkpt>
      <trkpt lat="44.99598" lon="4.51315">
        <ele>430</ele>
        <time>2015-11-27T07:39:53Z</time>
      </trkpt>
      <trkpt lat="44.9959" lon="4.51311">
        <ele>433</ele>
        <time>2015-11-27T07:40:09Z</time>
      </trkpt>
      <trkpt lat="44.9958" lon="4.51313">
        <ele>434</ele>
        <time>2015-11-27T07:40:14Z</time>
      </trkpt>
      <trkpt lat="44.99573" lon="4.51311">
        <ele>434</ele>
        <time>2015-11-27T07:40:19Z</time>
      </trkpt>
      <trkpt lat="44.99565" lon="4.51306">
        <ele>434</ele>
        <time>2015-11-27T07:40:25Z</time>
      </trkpt>
      <trkpt lat="44.99559" lon="4.513">
        <ele>435</ele>
        <time>2015-11-27T07:40:31Z</time>
      </trkpt>
      <trkpt lat="44.99553" lon="4.51296">
        <ele>435</ele>
        <time>2015-11-27T07:40:37Z</time>
      </trkpt>
      <trkpt lat="44.99549" lon="4.51288">
        <ele>436</ele>
        <time>2015-11-27T07:40:41Z</time>
      </trkpt>
      <trkpt lat="44.99542" lon="4.51283">
        <ele>436</ele>
        <time>2015-11-27T07:40:47Z</time>
      </trkpt>
      <trkpt lat="44.99536" lon="4.51278">
        <ele>437</ele>
        <time>2015-11-27T07:40:54Z</time>
      </trkpt>
      <trkpt lat="44.9953" lon="4.51273">
        <ele>438</ele>
        <time>2015-11-27T07:41:07Z</time>
      </trkpt>
      <trkpt lat="44.99527" lon="4.51264">
        <ele>439</ele>
        <time>2015-11-27T07:41:13Z</time>
      </trkpt>
      <trkpt lat="44.99523" lon="4.51255">
        <ele>440</ele>
        <time>2015-11-27T07:41:21Z</time>
      </trkpt>
      <trkpt lat="44.9952" lon="4.5125">
        <ele>441</ele>
        <time>2015-11-27T07:41:29Z</time>
      </trkpt>
      <trkpt lat="44.99516" lon="4.51235">
        <ele>442</ele>
        <time>2015-11-27T07:41:34Z</time>
      </trkpt>
      <trkpt lat="44.99515" lon="4.51225">
        <ele>443</ele>
        <time>2015-11-27T07:41:37Z</time>
      </trkpt>
      <trkpt lat="44.9951" lon="4.51215">
        <ele>444</ele>
        <time>2015-11-27T07:41:43Z</time>
      </trkpt>
      <trkpt lat="44.99505" lon="4.51206">
        <ele>444</ele>
        <time>2015-11-27T07:41:48Z</time>
      </trkpt>
      <trkpt lat="44.99501" lon="4.51196">
        <ele>445</ele>
        <time>2015-11-27T07:41:52Z</time>
      </trkpt>
      <trkpt lat="44.99496" lon="4.51185">
        <ele>446</ele>
        <time>2015-11-27T07:41:57Z</time>
      </trkpt>
      <trkpt lat="44.99488" lon="4.5118">
        <ele>447</ele>
        <time>2015-11-27T07:42:04Z</time>
      </trkpt>
      <trkpt lat="44.9948" lon="4.51175">
        <ele>448</ele>
        <time>2015-11-27T07:42:11Z</time>
      </trkpt>
      <trkpt lat="44.99474" lon="4.51172">
        <ele>450</ele>
        <time>2015-11-27T07:42:16Z</time>
      </trkpt>
      <trkpt lat="44.99465" lon="4.51168">
        <ele>451</ele>
        <time>2015-11-27T07:42:22Z</time>
      </trkpt>
      <trkpt lat="44.99459" lon="4.51162">
        <ele>453</ele>
        <time>2015-11-27T07:42:27Z</time>
      </trkpt>
      <trkpt lat="44.99456" lon="4.51153">
        <ele>455</ele>
        <time>2015-11-27T07:42:31Z</time>
      </trkpt>
      <trkpt lat="44.99452" lon="4.51144">
        <ele>459</ele>
        <time>2015-11-27T07:42:37Z</time>
      </trkpt>
      <trkpt lat="44.99444" lon="4.5114">
        <ele>461</ele>
        <time>2015-11-27T07:42:43Z</time>
      </trkpt>
      <trkpt lat="44.99436" lon="4.51135">
        <ele>463</ele>
        <time>2015-11-27T07:42:49Z</time>
      </trkpt>
      <trkpt lat="44.99429" lon="4.51131">
        <ele>465</ele>
        <time>2015-11-27T07:42:55Z</time>
      </trkpt>
      <trkpt lat="44.99422" lon="4.51128">
        <ele>467</ele>
        <time>2015-11-27T07:43:03Z</time>
      </trkpt>
      <trkpt lat="44.99418" lon="4.51127">
        <ele>467</ele>
        <time>2015-11-27T07:43:07Z</time>
      </trkpt>
      <trkpt lat="44.99412" lon="4.5114">
        <ele>470</ele>
        <time>2015-11-27T07:43:11Z</time>
      </trkpt>
      <trkpt lat="44.99407" lon="4.51131">
        <ele>472</ele>
        <time>2015-11-27T07:43:17Z</time>
      </trkpt>
      <trkpt lat="44.99403" lon="4.51121">
        <ele>472</ele>
        <time>2015-11-27T07:43:21Z</time>
      </trkpt>
      <trkpt lat="44.99398" lon="4.51114">
        <ele>472</ele>
        <time>2015-11-27T07:43:25Z</time>
      </trkpt>
      <trkpt lat="44.99393" lon="4.51105">
        <ele>473</ele>
        <time>2015-11-27T07:43:31Z</time>
      </trkpt>
      <trkpt lat="44.99391" lon="4.51094">
        <ele>474</ele>
        <time>2015-11-27T07:43:37Z</time>
      </trkpt>
      <trkpt lat="44.99387" lon="4.51088">
        <ele>475</ele>
        <time>2015-11-27T07:43:43Z</time>
      </trkpt>
      <trkpt lat="44.9938" lon="4.5108">
        <ele>475</ele>
        <time>2015-11-27T07:43:48Z</time>
      </trkpt>
      <trkpt lat="44.99375" lon="4.51071">
        <ele>476</ele>
        <time>2015-11-27T07:43:51Z</time>
      </trkpt>
      <trkpt lat="44.9937" lon="4.51062">
        <ele>476</ele>
        <time>2015-11-27T07:43:55Z</time>
      </trkpt>
      <trkpt lat="44.99366" lon="4.51051">
        <ele>477</ele>
        <time>2015-11-27T07:44:01Z</time>
      </trkpt>
      <trkpt lat="44.99364" lon="4.5104">
        <ele>477</ele>
        <time>2015-11-27T07:44:05Z</time>
      </trkpt>
      <trkpt lat="44.99361" lon="4.51029">
        <ele>478</ele>
        <time>2015-11-27T07:44:11Z</time>
      </trkpt>
      <trkpt lat="44.99357" lon="4.51018">
        <ele>480</ele>
        <time>2015-11-27T07:44:19Z</time>
      </trkpt>
      <trkpt lat="44.99354" lon="4.5101">
        <ele>480</ele>
        <time>2015-11-27T07:44:24Z</time>
      </trkpt>
      <trkpt lat="44.99352" lon="4.50999">
        <ele>481</ele>
        <time>2015-11-27T07:44:31Z</time>
      </trkpt>
      <trkpt lat="44.99351" lon="4.50987">
        <ele>481</ele>
        <time>2015-11-27T07:44:37Z</time>
      </trkpt>
      <trkpt lat="44.99355" lon="4.50979">
        <ele>482</ele>
        <time>2015-11-27T07:44:42Z</time>
      </trkpt>
      <trkpt lat="44.99359" lon="4.50971">
        <ele>482</ele>
        <time>2015-11-27T07:44:46Z</time>
      </trkpt>
      <trkpt lat="44.99364" lon="4.50963">
        <ele>482</ele>
        <time>2015-11-27T07:44:50Z</time>
      </trkpt>
      <trkpt lat="44.99368" lon="4.50952">
        <ele>483</ele>
        <time>2015-11-27T07:44:55Z</time>
      </trkpt>
      <trkpt lat="44.99374" lon="4.50945">
        <ele>483</ele>
        <time>2015-11-27T07:44:59Z</time>
      </trkpt>
      <trkpt lat="44.9938" lon="4.50938">
        <ele>483</ele>
        <time>2015-11-27T07:45:04Z</time>
      </trkpt>
      <trkpt lat="44.99387" lon="4.50933">
        <ele>484</ele>
        <time>2015-11-27T07:45:11Z</time>
      </trkpt>
      <trkpt lat="44.99393" lon="4.50927">
        <ele>485</ele>
        <time>2015-11-27T07:45:16Z</time>
      </trkpt>
      <trkpt lat="44.99397" lon="4.50918">
        <ele>485</ele>
        <time>2015-11-27T07:45:21Z</time>
      </trkpt>
      <trkpt lat="44.994" lon="4.5091">
        <ele>486</ele>
        <time>2015-11-27T07:45:26Z</time>
      </trkpt>
      <trkpt lat="44.99402" lon="4.50902">
        <ele>487</ele>
        <time>2015-11-27T07:45:29Z</time>
      </trkpt>
      <trkpt lat="44.99405" lon="4.5089">
        <ele>487</ele>
        <time>2015-11-27T07:45:34Z</time>
      </trkpt>
      <trkpt lat="44.9941" lon="4.5088">
        <ele>489</ele>
        <time>2015-11-27T07:45:41Z</time>
      </trkpt>
      <trkpt lat="44.99414" lon="4.50869">
        <ele>490</ele>
        <time>2015-11-27T07:45:47Z</time>
      </trkpt>
      <trkpt lat="44.99417" lon="4.50861">
        <ele>490</ele>
        <time>2015-11-27T07:45:52Z</time>
      </trkpt>
      <trkpt lat="44.99422" lon="4.50851">
        <ele>491</ele>
        <time>2015-11-27T07:45:57Z</time>
      </trkpt>
      <trkpt lat="44.99426" lon="4.5084">
        <ele>493</ele>
        <time>2015-11-27T07:46:05Z</time>
      </trkpt>
      <trkpt lat="44.9943" lon="4.5083">
        <ele>496</ele>
        <time>2015-11-27T07:46:12Z</time>
      </trkpt>
      <trkpt lat="44.99433" lon="4.50822">
        <ele>497</ele>
        <time>2015-11-27T07:46:15Z</time>
      </trkpt>
      <trkpt lat="44.99437" lon="4.50812">
        <ele>500</ele>
        <time>2015-11-27T07:46:21Z</time>
      </trkpt>
      <trkpt lat="44.99441" lon="4.50804">
        <ele>501</ele>
        <time>2015-11-27T07:46:25Z</time>
      </trkpt>
      <trkpt lat="44.99445" lon="4.50796">
        <ele>503</ele>
        <time>2015-11-27T07:46:29Z</time>
      </trkpt>
      <trkpt lat="44.99449" lon="4.50787">
        <ele>504</ele>
        <time>2015-11-27T07:46:33Z</time>
      </trkpt>
      <trkpt lat="44.99454" lon="4.5078">
        <ele>505</ele>
        <time>2015-11-27T07:46:38Z</time>
      </trkpt>
      <trkpt lat="44.9946" lon="4.50769">
        <ele>507</ele>
        <time>2015-11-27T07:46:43Z</time>
      </trkpt>
      <trkpt lat="44.99466" lon="4.50761">
        <ele>509</ele>
        <time>2015-11-27T07:46:49Z</time>
      </trkpt>
      <trkpt lat="44.99471" lon="4.50754">
        <ele>510</ele>
        <time>2015-11-27T07:46:54Z</time>
      </trkpt>
      <trkpt lat="44.99474" lon="4.50743">
        <ele>512</ele>
        <time>2015-11-27T07:47:02Z</time>
      </trkpt>
      <trkpt lat="44.99475" lon="4.50733">
        <ele>519</ele>
        <time>2015-11-27T07:47:11Z</time>
      </trkpt>
      <trkpt lat="44.99475" lon="4.50724">
        <ele>521</ele>
        <time>2015-11-27T07:47:17Z</time>
      </trkpt>
      <trkpt lat="44.99477" lon="4.50715">
        <ele>523</ele>
        <time>2015-11-27T07:47:21Z</time>
      </trkpt>
      <trkpt lat="44.99478" lon="4.50704">
        <ele>524</ele>
        <time>2015-11-27T07:47:27Z</time>
      </trkpt>
      <trkpt lat="44.99481" lon="4.50694">
        <ele>526</ele>
        <time>2015-11-27T07:47:35Z</time>
      </trkpt>
      <trkpt lat="44.99487" lon="4.50686">
        <ele>528</ele>
        <time>2015-11-27T07:47:41Z</time>
      </trkpt>
      <trkpt lat="44.9949" lon="4.50674">
        <ele>529</ele>
        <time>2015-11-27T07:47:48Z</time>
      </trkpt>
      <trkpt lat="44.99491" lon="4.50665">
        <ele>531</ele>
        <time>2015-11-27T07:47:52Z</time>
      </trkpt>
      <trkpt lat="44.99491" lon="4.50653">
        <ele>533</ele>
        <time>2015-11-27T07:48:00Z</time>
      </trkpt>
      <trkpt lat="44.99491" lon="4.5064">
        <ele>535</ele>
        <time>2015-11-27T07:48:05Z</time>
      </trkpt>
      <trkpt lat="44.99492" lon="4.50628">
        <ele>536</ele>
        <time>2015-11-27T07:48:11Z</time>
      </trkpt>
      <trkpt lat="44.99494" lon="4.50618">
        <ele>537</ele>
        <time>2015-11-27T07:48:17Z</time>
      </trkpt>
      <trkpt lat="44.99494" lon="4.50611">
        <ele>537</ele>
        <time>2015-11-27T07:48:22Z</time>
      </trkpt>
      <trkpt lat="44.99493" lon="4.50603">
        <ele>538</ele>
        <time>2015-11-27T07:48:25Z</time>
      </trkpt>
      <trkpt lat="44.99494" lon="4.50591">
        <ele>538</ele>
        <time>2015-11-27T07:48:31Z</time>
      </trkpt>
      <trkpt lat="44.99491" lon="4.50581">
        <ele>539</ele>
        <time>2015-11-27T07:48:37Z</time>
      </trkpt>
      <trkpt lat="44.99491" lon="4.5057">
        <ele>540</ele>
        <time>2015-11-27T07:48:42Z</time>
      </trkpt>
      <trkpt lat="44.9949" lon="4.50561">
        <ele>540</ele>
        <time>2015-11-27T07:48:47Z</time>
      </trkpt>
      <trkpt lat="44.99491" lon="4.50549">
        <ele>541</ele>
        <time>2015-11-27T07:48:53Z</time>
      </trkpt>
      <trkpt lat="44.99495" lon="4.50541">
        <ele>541</ele>
        <time>2015-11-27T07:48:58Z</time>
      </trkpt>
      <trkpt lat="44.99498" lon="4.5053">
        <ele>542</ele>
        <time>2015-11-27T07:49:05Z</time>
      </trkpt>
      <trkpt lat="44.99499" lon="4.50519">
        <ele>543</ele>
        <time>2015-11-27T07:49:12Z</time>
      </trkpt>
      <trkpt lat="44.99505" lon="4.50515">
        <ele>544</ele>
        <time>2015-11-27T07:49:16Z</time>
      </trkpt>
      <trkpt lat="44.99509" lon="4.50505">
        <ele>544</ele>
        <time>2015-11-27T07:49:21Z</time>
      </trkpt>
      <trkpt lat="44.99514" lon="4.505">
        <ele>545</ele>
        <time>2015-11-27T07:49:25Z</time>
      </trkpt>
      <trkpt lat="44.9952" lon="4.50492">
        <ele>545</ele>
        <time>2015-11-27T07:49:30Z</time>
      </trkpt>
      <trkpt lat="44.99523" lon="4.50483">
        <ele>546</ele>
        <time>2015-11-27T07:49:34Z</time>
      </trkpt>
      <trkpt lat="44.99528" lon="4.50473">
        <ele>546</ele>
        <time>2015-11-27T07:49:39Z</time>
      </trkpt>
      <trkpt lat="44.99528" lon="4.50465">
        <ele>547</ele>
        <time>2015-11-27T07:49:44Z</time>
      </trkpt>
      <trkpt lat="44.99528" lon="4.5045">
        <ele>549</ele>
        <time>2015-11-27T07:49:49Z</time>
      </trkpt>
      <trkpt lat="44.99532" lon="4.5044">
        <ele>549</ele>
        <time>2015-11-27T07:49:53Z</time>
      </trkpt>
      <trkpt lat="44.99536" lon="4.50434">
        <ele>550</ele>
        <time>2015-11-27T07:49:56Z</time>
      </trkpt>
      <trkpt lat="44.99539" lon="4.50425">
        <ele>550</ele>
        <time>2015-11-27T07:50:01Z</time>
      </trkpt>
      <trkpt lat="44.99542" lon="4.50415">
        <ele>551</ele>
        <time>2015-11-27T07:50:05Z</time>
      </trkpt>
      <trkpt lat="44.99542" lon="4.50405">
        <ele>552</ele>
        <time>2015-11-27T07:50:09Z</time>
      </trkpt>
      <trkpt lat="44.99542" lon="4.50393">
        <ele>553</ele>
        <time>2015-11-27T07:50:15Z</time>
      </trkpt>
      <trkpt lat="44.99546" lon="4.50382">
        <ele>553</ele>
        <time>2015-11-27T07:50:23Z</time>
      </trkpt>
      <trkpt lat="44.99546" lon="4.50372">
        <ele>553</ele>
        <time>2015-11-27T07:50:27Z</time>
      </trkpt>
      <trkpt lat="44.99548" lon="4.50362">
        <ele>553</ele>
        <time>2015-11-27T07:50:32Z</time>
      </trkpt>
      <trkpt lat="44.99546" lon="4.50351">
        <ele>554</ele>
        <time>2015-11-27T07:50:37Z</time>
      </trkpt>
      <trkpt lat="44.99542" lon="4.5034">
        <ele>555</ele>
        <time>2015-11-27T07:50:44Z</time>
      </trkpt>
      <trkpt lat="44.9954" lon="4.50328">
        <ele>556</ele>
        <time>2015-11-27T07:50:49Z</time>
      </trkpt>
      <trkpt lat="44.99541" lon="4.50317">
        <ele>556</ele>
        <time>2015-11-27T07:50:57Z</time>
      </trkpt>
      <trkpt lat="44.99545" lon="4.50306">
        <ele>557</ele>
        <time>2015-11-27T07:51:01Z</time>
      </trkpt>
      <trkpt lat="44.9955" lon="4.50298">
        <ele>557</ele>
        <time>2015-11-27T07:51:05Z</time>
      </trkpt>
      <trkpt lat="44.99558" lon="4.5029">
        <ele>557</ele>
        <time>2015-11-27T07:51:09Z</time>
      </trkpt>
      <trkpt lat="44.99562" lon="4.50286">
        <ele>558</ele>
        <time>2015-11-27T07:51:15Z</time>
      </trkpt>
      <trkpt lat="44.99564" lon="4.50274">
        <ele>558</ele>
        <time>2015-11-27T07:51:20Z</time>
      </trkpt>
      <trkpt lat="44.99566" lon="4.50263">
        <ele>558</ele>
        <time>2015-11-27T07:51:24Z</time>
      </trkpt>
      <trkpt lat="44.99566" lon="4.5025">
        <ele>559</ele>
        <time>2015-11-27T07:51:28Z</time>
      </trkpt>
      <trkpt lat="44.99566" lon="4.50234">
        <ele>560</ele>
        <time>2015-11-27T07:51:33Z</time>
      </trkpt>
      <trkpt lat="44.99567" lon="4.50223">
        <ele>560</ele>
        <time>2015-11-27T07:51:37Z</time>
      </trkpt>
      <trkpt lat="44.99572" lon="4.50215">
        <ele>561</ele>
        <time>2015-11-27T07:51:41Z</time>
      </trkpt>
      <trkpt lat="44.99576" lon="4.5021">
        <ele>561</ele>
        <time>2015-11-27T07:51:45Z</time>
      </trkpt>
      <trkpt lat="44.99574" lon="4.50197">
        <ele>561</ele>
        <time>2015-11-27T07:51:49Z</time>
      </trkpt>
      <trkpt lat="44.99574" lon="4.50188">
        <ele>561</ele>
        <time>2015-11-27T07:51:53Z</time>
      </trkpt>
      <trkpt lat="44.99575" lon="4.50177">
        <ele>561</ele>
        <time>2015-11-27T07:51:57Z</time>
      </trkpt>
      <trkpt lat="44.99576" lon="4.50166">
        <ele>561</ele>
        <time>2015-11-27T07:52:06Z</time>
      </trkpt>
      <trkpt lat="44.99578" lon="4.50159">
        <ele>561</ele>
        <time>2015-11-27T07:52:12Z</time>
      </trkpt>
      <trkpt lat="44.9958" lon="4.50149">
        <ele>561</ele>
        <time>2015-11-27T07:52:16Z</time>
      </trkpt>
      <trkpt lat="44.99577" lon="4.50132">
        <ele>561</ele>
        <time>2015-11-27T07:52:21Z</time>
      </trkpt>
      <trkpt lat="44.99572" lon="4.50121">
        <ele>561</ele>
        <time>2015-11-27T07:52:25Z</time>
      </trkpt>
      <trkpt lat="44.99571" lon="4.5011">
        <ele>562</ele>
        <time>2015-11-27T07:52:30Z</time>
      </trkpt>
      <trkpt lat="44.99569" lon="4.50097">
        <ele>562</ele>
        <time>2015-11-27T07:52:34Z</time>
      </trkpt>
      <trkpt lat="44.99571" lon="4.50084">
        <ele>562</ele>
        <time>2015-11-27T07:52:39Z</time>
      </trkpt>
      <trkpt lat="44.99572" lon="4.50075">
        <ele>562</ele>
        <time>2015-11-27T07:52:44Z</time>
      </trkpt>
      <trkpt lat="44.99573" lon="4.50062">
        <ele>562</ele>
        <time>2015-11-27T07:52:49Z</time>
      </trkpt>
      <trkpt lat="44.99571" lon="4.5005">
        <ele>562</ele>
        <time>2015-11-27T07:52:54Z</time>
      </trkpt>
      <trkpt lat="44.99571" lon="4.50038">
        <ele>562</ele>
        <time>2015-11-27T07:52:59Z</time>
      </trkpt>
      <trkpt lat="44.99572" lon="4.50028">
        <ele>562</ele>
        <time>2015-11-27T07:53:03Z</time>
      </trkpt>
      <trkpt lat="44.99573" lon="4.50017">
        <ele>562</ele>
        <time>2015-11-27T07:53:09Z</time>
      </trkpt>
      <trkpt lat="44.99576" lon="4.50007">
        <ele>563</ele>
        <time>2015-11-27T07:53:17Z</time>
      </trkpt>
      <trkpt lat="44.99577" lon="4.49998">
        <ele>563</ele>
        <time>2015-11-27T07:53:21Z</time>
      </trkpt>
      <trkpt lat="44.99577" lon="4.49988">
        <ele>563</ele>
        <time>2015-11-27T07:53:26Z</time>
      </trkpt>
      <trkpt lat="44.99578" lon="4.49976">
        <ele>563</ele>
        <time>2015-11-27T07:53:33Z</time>
      </trkpt>
      <trkpt lat="44.99579" lon="4.49964">
        <ele>563</ele>
        <time>2015-11-27T07:53:41Z</time>
      </trkpt>
      <trkpt lat="44.99584" lon="4.49957">
        <ele>563</ele>
        <time>2015-11-27T07:53:47Z</time>
      </trkpt>
      <trkpt lat="44.99585" lon="4.49946">
        <ele>563</ele>
        <time>2015-11-27T07:53:51Z</time>
      </trkpt>
      <trkpt lat="44.99585" lon="4.49935">
        <ele>563</ele>
        <time>2015-11-27T07:53:55Z</time>
      </trkpt>
      <trkpt lat="44.99585" lon="4.49924">
        <ele>563</ele>
        <time>2015-11-27T07:53:59Z</time>
      </trkpt>
      <trkpt lat="44.9959" lon="4.4991">
        <ele>563</ele>
        <time>2015-11-27T07:54:04Z</time>
      </trkpt>
      <trkpt lat="44.99591" lon="4.49902">
        <ele>563</ele>
        <time>2015-11-27T07:54:07Z</time>
      </trkpt>
      <trkpt lat="44.99593" lon="4.49893">
        <ele>563</ele>
        <time>2015-11-27T07:54:11Z</time>
      </trkpt>
      <trkpt lat="44.99596" lon="4.49885">
        <ele>563</ele>
        <time>2015-11-27T07:54:16Z</time>
      </trkpt>
      <trkpt lat="44.99594" lon="4.49871">
        <ele>563</ele>
        <time>2015-11-27T07:54:21Z</time>
      </trkpt>
      <trkpt lat="44.99593" lon="4.49856">
        <ele>563</ele>
        <time>2015-11-27T07:54:25Z</time>
      </trkpt>
      <trkpt lat="44.99596" lon="4.49844">
        <ele>564</ele>
        <time>2015-11-27T07:54:30Z</time>
      </trkpt>
      <trkpt lat="44.99598" lon="4.49833">
        <ele>564</ele>
        <time>2015-11-27T07:54:36Z</time>
      </trkpt>
      <trkpt lat="44.99602" lon="4.49824">
        <ele>564</ele>
        <time>2015-11-27T07:54:42Z</time>
      </trkpt>
      <trkpt lat="44.99603" lon="4.49807">
        <ele>565</ele>
        <time>2015-11-27T07:54:47Z</time>
      </trkpt>
      <trkpt lat="44.99604" lon="4.49795">
        <ele>566</ele>
        <time>2015-11-27T07:54:53Z</time>
      </trkpt>
      <trkpt lat="44.99601" lon="4.49786">
        <ele>566</ele>
        <time>2015-11-27T07:54:59Z</time>
      </trkpt>
      <trkpt lat="44.99601" lon="4.49773">
        <ele>565</ele>
        <time>2015-11-27T07:55:03Z</time>
      </trkpt>
      <trkpt lat="44.99599" lon="4.49762">
        <ele>565</ele>
        <time>2015-11-27T07:55:09Z</time>
      </trkpt>
      <trkpt lat="44.99601" lon="4.49751">
        <ele>565</ele>
        <time>2015-11-27T07:55:15Z</time>
      </trkpt>
      <trkpt lat="44.99601" lon="4.49742">
        <ele>565</ele>
        <time>2015-11-27T07:55:19Z</time>
      </trkpt>
      <trkpt lat="44.996" lon="4.49724">
        <ele>565</ele>
        <time>2015-11-27T07:55:24Z</time>
      </trkpt>
      <trkpt lat="44.99606" lon="4.49714">
        <ele>566</ele>
        <time>2015-11-27T07:55:33Z</time>
      </trkpt>
      <trkpt lat="44.99603" lon="4.49703">
        <ele>566</ele>
        <time>2015-11-27T07:55:39Z</time>
      </trkpt>
      <trkpt lat="44.99603" lon="4.4969">
        <ele>566</ele>
        <time>2015-11-27T07:55:45Z</time>
      </trkpt>
      <trkpt lat="44.99606" lon="4.49679">
        <ele>566</ele>
        <time>2015-11-27T07:55:53Z</time>
      </trkpt>
      <trkpt lat="44.99605" lon="4.4967">
        <ele>566</ele>
        <time>2015-11-27T07:55:57Z</time>
      </trkpt>
      <trkpt lat="44.99608" lon="4.49662">
        <ele>566</ele>
        <time>2015-11-27T07:56:01Z</time>
      </trkpt>
      <trkpt lat="44.9961" lon="4.49651">
        <ele>567</ele>
        <time>2015-11-27T07:56:05Z</time>
      </trkpt>
      <trkpt lat="44.99614" lon="4.49642">
        <ele>567</ele>
        <time>2015-11-27T07:56:11Z</time>
      </trkpt>
      <trkpt lat="44.99617" lon="4.49631">
        <ele>568</ele>
        <time>2015-11-27T07:56:19Z</time>
      </trkpt>
      <trkpt lat="44.99621" lon="4.49622">
        <ele>568</ele>
        <time>2015-11-27T07:56:24Z</time>
      </trkpt>
      <trkpt lat="44.99626" lon="4.49614">
        <ele>569</ele>
        <time>2015-11-27T07:56:29Z</time>
      </trkpt>
      <trkpt lat="44.99633" lon="4.49609">
        <ele>569</ele>
        <time>2015-11-27T07:56:35Z</time>
      </trkpt>
      <trkpt lat="44.99638" lon="4.49602">
        <ele>570</ele>
        <time>2015-11-27T07:56:41Z</time>
      </trkpt>
      <trkpt lat="44.99644" lon="4.49594">
        <ele>570</ele>
        <time>2015-11-27T07:56:47Z</time>
      </trkpt>
      <trkpt lat="44.99648" lon="4.49583">
        <ele>570</ele>
        <time>2015-11-27T07:56:54Z</time>
      </trkpt>
      <trkpt lat="44.99653" lon="4.49575">
        <ele>570</ele>
        <time>2015-11-27T07:57:00Z</time>
      </trkpt>
      <trkpt lat="44.99659" lon="4.49568">
        <ele>571</ele>
        <time>2015-11-27T07:57:06Z</time>
      </trkpt>
      <trkpt lat="44.99664" lon="4.49562">
        <ele>571</ele>
        <time>2015-11-27T07:57:13Z</time>
      </trkpt>
      <trkpt lat="44.99669" lon="4.49553">
        <ele>571</ele>
        <time>2015-11-27T07:57:19Z</time>
      </trkpt>
      <trkpt lat="44.99673" lon="4.49543">
        <ele>571</ele>
        <time>2015-11-27T07:57:26Z</time>
      </trkpt>
      <trkpt lat="44.99676" lon="4.49532">
        <ele>572</ele>
        <time>2015-11-27T07:57:30Z</time>
      </trkpt>
      <trkpt lat="44.99678" lon="4.49521">
        <ele>573</ele>
        <time>2015-11-27T07:57:35Z</time>
      </trkpt>
      <trkpt lat="44.99676" lon="4.49511">
        <ele>573</ele>
        <time>2015-11-27T07:57:40Z</time>
      </trkpt>
      <trkpt lat="44.99675" lon="4.49501">
        <ele>574</ele>
        <time>2015-11-27T07:57:49Z</time>
      </trkpt>
      <trkpt lat="44.99678" lon="4.49489">
        <ele>576</ele>
        <time>2015-11-27T07:57:56Z</time>
      </trkpt>
      <trkpt lat="44.99677" lon="4.49481">
        <ele>577</ele>
        <time>2015-11-27T07:58:01Z</time>
      </trkpt>
      <trkpt lat="44.99675" lon="4.49472">
        <ele>577</ele>
        <time>2015-11-27T07:58:05Z</time>
      </trkpt>
      <trkpt lat="44.99673" lon="4.49463">
        <ele>578</ele>
        <time>2015-11-27T07:58:09Z</time>
      </trkpt>
      <trkpt lat="44.99671" lon="4.49453">
        <ele>578</ele>
        <time>2015-11-27T07:58:14Z</time>
      </trkpt>
      <trkpt lat="44.9967" lon="4.49443">
        <ele>579</ele>
        <time>2015-11-27T07:58:20Z</time>
      </trkpt>
      <trkpt lat="44.9967" lon="4.49433">
        <ele>579</ele>
        <time>2015-11-27T07:58:25Z</time>
      </trkpt>
      <trkpt lat="44.99668" lon="4.49424">
        <ele>580</ele>
        <time>2015-11-27T07:58:29Z</time>
      </trkpt>
      <trkpt lat="44.99668" lon="4.49412">
        <ele>581</ele>
        <time>2015-11-27T07:58:34Z</time>
      </trkpt>
      <trkpt lat="44.99666" lon="4.49403">
        <ele>581</ele>
        <time>2015-11-27T07:58:39Z</time>
      </trkpt>
      <trkpt lat="44.99664" lon="4.49392">
        <ele>582</ele>
        <time>2015-11-27T07:58:44Z</time>
      </trkpt>
      <trkpt lat="44.99662" lon="4.49379">
        <ele>583</ele>
        <time>2015-11-27T07:58:50Z</time>
      </trkpt>
      <trkpt lat="44.99661" lon="4.49367">
        <ele>584</ele>
        <time>2015-11-27T07:58:55Z</time>
      </trkpt>
      <trkpt lat="44.99661" lon="4.49356">
        <ele>584</ele>
        <time>2015-11-27T07:59:00Z</time>
      </trkpt>
      <trkpt lat="44.99658" lon="4.49346">
        <ele>586</ele>
        <time>2015-11-27T07:59:05Z</time>
      </trkpt>
      <trkpt lat="44.99655" lon="4.49335">
        <ele>591</ele>
        <time>2015-11-27T07:59:10Z</time>
      </trkpt>
      <trkpt lat="44.99655" lon="4.49326">
        <ele>594</ele>
        <time>2015-11-27T07:59:14Z</time>
      </trkpt>
      <trkpt lat="44.99655" lon="4.49313">
        <ele>597</ele>
        <time>2015-11-27T07:59:18Z</time>
      </trkpt>
      <trkpt lat="44.99655" lon="4.49301">
        <ele>599</ele>
        <time>2015-11-27T07:59:22Z</time>
      </trkpt>
      <trkpt lat="44.99656" lon="4.49285">
        <ele>602</ele>
        <time>2015-11-27T07:59:27Z</time>
      </trkpt>
      <trkpt lat="44.99657" lon="4.49273">
        <ele>605</ele>
        <time>2015-11-27T07:59:31Z</time>
      </trkpt>
      <trkpt lat="44.99658" lon="4.49262">
        <ele>607</ele>
        <time>2015-11-27T07:59:35Z</time>
      </trkpt>
      <trkpt lat="44.99662" lon="4.4925">
        <ele>607</ele>
        <time>2015-11-27T07:59:39Z</time>
      </trkpt>
      <trkpt lat="44.99665" lon="4.49234">
        <ele>608</ele>
        <time>2015-11-27T07:59:44Z</time>
      </trkpt>
      <trkpt lat="44.99666" lon="4.4922">
        <ele>609</ele>
        <time>2015-11-27T07:59:48Z</time>
      </trkpt>
      <trkpt lat="44.99669" lon="4.4921">
        <ele>610</ele>
        <time>2015-11-27T07:59:51Z</time>
      </trkpt>
      <trkpt lat="44.99673" lon="4.49198">
        <ele>610</ele>
        <time>2015-11-27T07:59:55Z</time>
      </trkpt>
      <trkpt lat="44.99674" lon="4.49189">
        <ele>612</ele>
        <time>2015-11-27T07:59:58Z</time>
      </trkpt>
      <trkpt lat="44.99674" lon="4.49178">
        <ele>613</ele>
        <time>2015-11-27T08:00:01Z</time>
      </trkpt>
      <trkpt lat="44.99674" lon="4.49164">
        <ele>616</ele>
        <time>2015-11-27T08:00:05Z</time>
      </trkpt>
      <trkpt lat="44.99674" lon="4.49149">
        <ele>619</ele>
        <time>2015-11-27T08:00:09Z</time>
      </trkpt>
      <trkpt lat="44.99677" lon="4.49132">
        <ele>623</ele>
        <time>2015-11-27T08:00:14Z</time>
      </trkpt>
      <trkpt lat="44.99678" lon="4.49119">
        <ele>625</ele>
        <time>2015-11-27T08:00:18Z</time>
      </trkpt>
      <trkpt lat="44.9968" lon="4.49103">
        <ele>626</ele>
        <time>2015-11-27T08:00:22Z</time>
      </trkpt>
      <trkpt lat="44.99682" lon="4.49088">
        <ele>627</ele>
        <time>2015-11-27T08:00:26Z</time>
      </trkpt>
      <trkpt lat="44.99683" lon="4.49076">
        <ele>628</ele>
        <time>2015-11-27T08:00:30Z</time>
      </trkpt>
      <trkpt lat="44.99684" lon="4.49064">
        <ele>631</ele>
        <time>2015-11-27T08:00:35Z</time>
      </trkpt>
      <trkpt lat="44.99684" lon="4.49053">
        <ele>632</ele>
        <time>2015-11-27T08:00:41Z</time>
      </trkpt>
      <trkpt lat="44.99683" lon="4.49041">
        <ele>632</ele>
        <time>2015-11-27T08:00:47Z</time>
      </trkpt>
      <trkpt lat="44.99683" lon="4.49031">
        <ele>633</ele>
        <time>2015-11-27T08:00:51Z</time>
      </trkpt>
      <trkpt lat="44.99682" lon="4.49021">
        <ele>633</ele>
        <time>2015-11-27T08:00:55Z</time>
      </trkpt>
      <trkpt lat="44.99681" lon="4.49011">
        <ele>633</ele>
        <time>2015-11-27T08:01:01Z</time>
      </trkpt>
      <trkpt lat="44.99679" lon="4.49">
        <ele>634</ele>
        <time>2015-11-27T08:01:07Z</time>
      </trkpt>
      <trkpt lat="44.99677" lon="4.4899">
        <ele>634</ele>
        <time>2015-11-27T08:01:13Z</time>
      </trkpt>
      <trkpt lat="44.99676" lon="4.48981">
        <ele>634</ele>
        <time>2015-11-27T08:01:17Z</time>
      </trkpt>
      <trkpt lat="44.99675" lon="4.48972">
        <ele>634</ele>
        <time>2015-11-27T08:01:21Z</time>
      </trkpt>
      <trkpt lat="44.99675" lon="4.4896">
        <ele>635</ele>
        <time>2015-11-27T08:01:27Z</time>
      </trkpt>
      <trkpt lat="44.99673" lon="4.4895">
        <ele>634</ele>
        <time>2015-11-27T08:01:32Z</time>
      </trkpt>
      <trkpt lat="44.9967" lon="4.4894">
        <ele>635</ele>
        <time>2015-11-27T08:01:36Z</time>
      </trkpt>
      <trkpt lat="44.99668" lon="4.48927">
        <ele>635</ele>
        <time>2015-11-27T08:01:40Z</time>
      </trkpt>
      <trkpt lat="44.99666" lon="4.48915">
        <ele>635</ele>
        <time>2015-11-27T08:01:44Z</time>
      </trkpt>
      <trkpt lat="44.99663" lon="4.48901">
        <ele>635</ele>
        <time>2015-11-27T08:01:49Z</time>
      </trkpt>
      <trkpt lat="44.99661" lon="4.48892">
        <ele>636</ele>
        <time>2015-11-27T08:01:52Z</time>
      </trkpt>
      <trkpt lat="44.9966" lon="4.48882">
        <ele>636</ele>
        <time>2015-11-27T08:01:55Z</time>
      </trkpt>
      <trkpt lat="44.9966" lon="4.48871">
        <ele>636</ele>
        <time>2015-11-27T08:01:59Z</time>
      </trkpt>
      <trkpt lat="44.9966" lon="4.48861">
        <ele>636</ele>
        <time>2015-11-27T08:02:03Z</time>
      </trkpt>
      <trkpt lat="44.9966" lon="4.4885">
        <ele>636</ele>
        <time>2015-11-27T08:02:07Z</time>
      </trkpt>
      <trkpt lat="44.9966" lon="4.48839">
        <ele>636</ele>
        <time>2015-11-27T08:02:11Z</time>
      </trkpt>
      <trkpt lat="44.99656" lon="4.48828">
        <ele>636</ele>
        <time>2015-11-27T08:02:18Z</time>
      </trkpt>
      <trkpt lat="44.99652" lon="4.48817">
        <ele>636</ele>
        <time>2015-11-27T08:02:23Z</time>
      </trkpt>
      <trkpt lat="44.9965" lon="4.48806">
        <ele>637</ele>
        <time>2015-11-27T08:02:29Z</time>
      </trkpt>
      <trkpt lat="44.99649" lon="4.48794">
        <ele>637</ele>
        <time>2015-11-27T08:02:35Z</time>
      </trkpt>
      <trkpt lat="44.99645" lon="4.48784">
        <ele>637</ele>
        <time>2015-11-27T08:02:40Z</time>
      </trkpt>
      <trkpt lat="44.99642" lon="4.48773">
        <ele>637</ele>
        <time>2015-11-27T08:02:47Z</time>
      </trkpt>
      <trkpt lat="44.9964" lon="4.48762">
        <ele>637</ele>
        <time>2015-11-27T08:02:52Z</time>
      </trkpt>
      <trkpt lat="44.99638" lon="4.4875">
        <ele>637</ele>
        <time>2015-11-27T08:02:57Z</time>
      </trkpt>
      <trkpt lat="44.99638" lon="4.48742">
        <ele>637</ele>
        <time>2015-11-27T08:03:01Z</time>
      </trkpt>
      <trkpt lat="44.99637" lon="4.4873">
        <ele>637</ele>
        <time>2015-11-27T08:03:06Z</time>
      </trkpt>
      <trkpt lat="44.99634" lon="4.48724">
        <ele>637</ele>
        <time>2015-11-27T08:03:09Z</time>
      </trkpt>
      <trkpt lat="44.99629" lon="4.48713">
        <ele>636</ele>
        <time>2015-11-27T08:03:14Z</time>
      </trkpt>
      <trkpt lat="44.99627" lon="4.48701">
        <ele>635</ele>
        <time>2015-11-27T08:03:19Z</time>
      </trkpt>
      <trkpt lat="44.99625" lon="4.4869">
        <ele>635</ele>
        <time>2015-11-27T08:03:24Z</time>
      </trkpt>
      <trkpt lat="44.99623" lon="4.4868">
        <ele>635</ele>
        <time>2015-11-27T08:03:29Z</time>
      </trkpt>
      <trkpt lat="44.99623" lon="4.48667">
        <ele>635</ele>
        <time>2015-11-27T08:03:34Z</time>
      </trkpt>
      <trkpt lat="44.99621" lon="4.48657">
        <ele>635</ele>
        <time>2015-11-27T08:03:40Z</time>
      </trkpt>
      <trkpt lat="44.99624" lon="4.48646">
        <ele>635</ele>
        <time>2015-11-27T08:03:45Z</time>
      </trkpt>
      <trkpt lat="44.99625" lon="4.48635">
        <ele>635</ele>
        <time>2015-11-27T08:03:51Z</time>
      </trkpt>
      <trkpt lat="44.99628" lon="4.48625">
        <ele>634</ele>
        <time>2015-11-27T08:03:57Z</time>
      </trkpt>
      <trkpt lat="44.99632" lon="4.48617">
        <ele>634</ele>
        <time>2015-11-27T08:04:03Z</time>
      </trkpt>
      <trkpt lat="44.99636" lon="4.48609">
        <ele>634</ele>
        <time>2015-11-27T08:04:08Z</time>
      </trkpt>
      <trkpt lat="44.99639" lon="4.48597">
        <ele>632</ele>
        <time>2015-11-27T08:04:14Z</time>
      </trkpt>
      <trkpt lat="44.99644" lon="4.48591">
        <ele>632</ele>
        <time>2015-11-27T08:04:19Z</time>
      </trkpt>
      <trkpt lat="44.99649" lon="4.48584">
        <ele>631</ele>
        <time>2015-11-27T08:04:24Z</time>
      </trkpt>
      <trkpt lat="44.99653" lon="4.48568">
        <ele>631</ele>
        <time>2015-11-27T08:04:29Z</time>
      </trkpt>
      <trkpt lat="44.99658" lon="4.48558">
        <ele>631</ele>
        <time>2015-11-27T08:04:33Z</time>
      </trkpt>
      <trkpt lat="44.99664" lon="4.4855">
        <ele>630</ele>
        <time>2015-11-27T08:04:38Z</time>
      </trkpt>
      <trkpt lat="44.99669" lon="4.48543">
        <ele>630</ele>
        <time>2015-11-27T08:04:43Z</time>
      </trkpt>
      <trkpt lat="44.99674" lon="4.48535">
        <ele>629</ele>
        <time>2015-11-27T08:04:49Z</time>
      </trkpt>
      <trkpt lat="44.99678" lon="4.48527">
        <ele>629</ele>
        <time>2015-11-27T08:04:53Z</time>
      </trkpt>
      <trkpt lat="44.99682" lon="4.48517">
        <ele>629</ele>
        <time>2015-11-27T08:04:58Z</time>
      </trkpt>
      <trkpt lat="44.99685" lon="4.4851">
        <ele>629</ele>
        <time>2015-11-27T08:05:01Z</time>
      </trkpt>
      <trkpt lat="44.9969" lon="4.48502">
        <ele>628</ele>
        <time>2015-11-27T08:05:05Z</time>
      </trkpt>
      <trkpt lat="44.99696" lon="4.48494">
        <ele>628</ele>
        <time>2015-11-27T08:05:11Z</time>
      </trkpt>
      <trkpt lat="44.99698" lon="4.48483">
        <ele>627</ele>
        <time>2015-11-27T08:05:20Z</time>
      </trkpt>
      <trkpt lat="44.99697" lon="4.48471">
        <ele>627</ele>
        <time>2015-11-27T08:05:31Z</time>
      </trkpt>
      <trkpt lat="44.99694" lon="4.48462">
        <ele>627</ele>
        <time>2015-11-27T08:05:35Z</time>
      </trkpt>
      <trkpt lat="44.99694" lon="4.48454">
        <ele>627</ele>
        <time>2015-11-27T08:05:39Z</time>
      </trkpt>
      <trkpt lat="44.99688" lon="4.48444">
        <ele>628</ele>
        <time>2015-11-27T08:05:43Z</time>
      </trkpt>
      <trkpt lat="44.9968" lon="4.48439">
        <ele>628</ele>
        <time>2015-11-27T08:05:50Z</time>
      </trkpt>
      <trkpt lat="44.99673" lon="4.48433">
        <ele>630</ele>
        <time>2015-11-27T08:05:57Z</time>
      </trkpt>
      <trkpt lat="44.99665" lon="4.48428">
        <ele>630</ele>
        <time>2015-11-27T08:06:04Z</time>
      </trkpt>
      <trkpt lat="44.99657" lon="4.48424">
        <ele>630</ele>
        <time>2015-11-27T08:06:07Z</time>
      </trkpt>
      <trkpt lat="44.99649" lon="4.48421">
        <ele>631</ele>
        <time>2015-11-27T08:06:13Z</time>
      </trkpt>
      <trkpt lat="44.99642" lon="4.48422">
        <ele>631</ele>
        <time>2015-11-27T08:06:19Z</time>
      </trkpt>
      <trkpt lat="44.99636" lon="4.48426">
        <ele>632</ele>
        <time>2015-11-27T08:06:23Z</time>
      </trkpt>
      <trkpt lat="44.99632" lon="4.4843">
        <ele>633</ele>
        <time>2015-11-27T08:06:27Z</time>
      </trkpt>
      <trkpt lat="44.99624" lon="4.48439">
        <ele>634</ele>
        <time>2015-11-27T08:06:31Z</time>
      </trkpt>
      <trkpt lat="44.99616" lon="4.48439">
        <ele>635</ele>
        <time>2015-11-27T08:06:39Z</time>
      </trkpt>
      <trkpt lat="44.99607" lon="4.48437">
        <ele>635</ele>
        <time>2015-11-27T08:06:49Z</time>
      </trkpt>
      <trkpt lat="44.996" lon="4.48432">
        <ele>636</ele>
        <time>2015-11-27T08:06:58Z</time>
      </trkpt>
      <trkpt lat="44.99593" lon="4.48426">
        <ele>636</ele>
        <time>2015-11-27T08:07:03Z</time>
      </trkpt>
      <trkpt lat="44.99586" lon="4.4842">
        <ele>637</ele>
        <time>2015-11-27T08:07:09Z</time>
      </trkpt>
      <trkpt lat="44.99581" lon="4.48415">
        <ele>638</ele>
        <time>2015-11-27T08:07:13Z</time>
      </trkpt>
      <trkpt lat="44.99573" lon="4.4841">
        <ele>639</ele>
        <time>2015-11-27T08:07:19Z</time>
      </trkpt>
      <trkpt lat="44.99565" lon="4.48406">
        <ele>639</ele>
        <time>2015-11-27T08:07:26Z</time>
      </trkpt>
      <trkpt lat="44.99558" lon="4.48398">
        <ele>640</ele>
        <time>2015-11-27T08:07:32Z</time>
      </trkpt>
      <trkpt lat="44.99551" lon="4.48394">
        <ele>641</ele>
        <time>2015-11-27T08:07:37Z</time>
      </trkpt>
      <trkpt lat="44.99547" lon="4.48383">
        <ele>641</ele>
        <time>2015-11-27T08:07:44Z</time>
      </trkpt>
      <trkpt lat="44.99543" lon="4.48373">
        <ele>642</ele>
        <time>2015-11-27T08:07:55Z</time>
      </trkpt>
      <trkpt lat="44.99543" lon="4.48365">
        <ele>642</ele>
        <time>2015-11-27T08:08:01Z</time>
      </trkpt>
      <trkpt lat="44.9955" lon="4.48357">
        <ele>643</ele>
        <time>2015-11-27T08:08:12Z</time>
      </trkpt>
      <trkpt lat="44.99543" lon="4.48349">
        <ele>647</ele>
        <time>2015-11-27T08:08:16Z</time>
      </trkpt>
      <trkpt lat="44.99551" lon="4.48344">
        <ele>652</ele>
        <time>2015-11-27T08:08:33Z</time>
      </trkpt>
      <trkpt lat="44.99558" lon="4.48342">
        <ele>652</ele>
        <time>2015-11-27T08:08:39Z</time>
      </trkpt>
      <trkpt lat="44.99564" lon="4.4834">
        <ele>653</ele>
        <time>2015-11-27T08:08:43Z</time>
      </trkpt>
      <trkpt lat="44.99572" lon="4.48337">
        <ele>654</ele>
        <time>2015-11-27T08:08:47Z</time>
      </trkpt>
      <trkpt lat="44.9958" lon="4.48333">
        <ele>657</ele>
        <time>2015-11-27T08:08:52Z</time>
      </trkpt>
      <trkpt lat="44.99587" lon="4.48333">
        <ele>658</ele>
        <time>2015-11-27T08:09:00Z</time>
      </trkpt>
      <trkpt lat="44.99595" lon="4.48329">
        <ele>659</ele>
        <time>2015-11-27T08:09:08Z</time>
      </trkpt>
      <trkpt lat="44.99605" lon="4.48326">
        <ele>660</ele>
        <time>2015-11-27T08:09:13Z</time>
      </trkpt>
      <trkpt lat="44.99613" lon="4.48326">
        <ele>661</ele>
        <time>2015-11-27T08:09:20Z</time>
      </trkpt>
      <trkpt lat="44.99619" lon="4.48323">
        <ele>662</ele>
        <time>2015-11-27T08:09:25Z</time>
      </trkpt>
      <trkpt lat="44.99626" lon="4.48322">
        <ele>663</ele>
        <time>2015-11-27T08:09:30Z</time>
      </trkpt>
      <trkpt lat="44.99632" lon="4.48318">
        <ele>664</ele>
        <time>2015-11-27T08:09:34Z</time>
      </trkpt>
      <trkpt lat="44.99641" lon="4.48314">
        <ele>665</ele>
        <time>2015-11-27T08:09:40Z</time>
      </trkpt>
      <trkpt lat="44.99647" lon="4.48306">
        <ele>666</ele>
        <time>2015-11-27T08:09:47Z</time>
      </trkpt>
      <trkpt lat="44.99659" lon="4.483">
        <ele>670</ele>
        <time>2015-11-27T08:09:52Z</time>
      </trkpt>
      <trkpt lat="44.9965" lon="4.48301">
        <ele>678</ele>
        <time>2015-11-27T08:10:06Z</time>
      </trkpt>
      <trkpt lat="44.99642" lon="4.48297">
        <ele>681</ele>
        <time>2015-11-27T08:10:13Z</time>
      </trkpt>
      <trkpt lat="44.99637" lon="4.48294">
        <ele>683</ele>
        <time>2015-11-27T08:10:17Z</time>
      </trkpt>
      <trkpt lat="44.99629" lon="4.48289">
        <ele>685</ele>
        <time>2015-11-27T08:10:23Z</time>
      </trkpt>
      <trkpt lat="44.99623" lon="4.48283">
        <ele>686</ele>
        <time>2015-11-27T08:10:29Z</time>
      </trkpt>
      <trkpt lat="44.99619" lon="4.48272">
        <ele>687</ele>
        <time>2015-11-27T08:10:35Z</time>
      </trkpt>
      <trkpt lat="44.99611" lon="4.48268">
        <ele>689</ele>
        <time>2015-11-27T08:10:42Z</time>
      </trkpt>
      <trkpt lat="44.99606" lon="4.48262">
        <ele>690</ele>
        <time>2015-11-27T08:10:47Z</time>
      </trkpt>
      <trkpt lat="44.99601" lon="4.48253">
        <ele>692</ele>
        <time>2015-11-27T08:10:52Z</time>
      </trkpt>
      <trkpt lat="44.99592" lon="4.48255">
        <ele>693</ele>
        <time>2015-11-27T08:10:58Z</time>
      </trkpt>
      <trkpt lat="44.99586" lon="4.48248">
        <ele>694</ele>
        <time>2015-11-27T08:11:04Z</time>
      </trkpt>
      <trkpt lat="44.99581" lon="4.4824">
        <ele>695</ele>
        <time>2015-11-27T08:11:09Z</time>
      </trkpt>
      <trkpt lat="44.99575" lon="4.48235">
        <ele>696</ele>
        <time>2015-11-27T08:11:14Z</time>
      </trkpt>
      <trkpt lat="44.9957" lon="4.48229">
        <ele>696</ele>
        <time>2015-11-27T08:11:18Z</time>
      </trkpt>
      <trkpt lat="44.99565" lon="4.48219">
        <ele>697</ele>
        <time>2015-11-27T08:11:23Z</time>
      </trkpt>
      <trkpt lat="44.99561" lon="4.48209">
        <ele>697</ele>
        <time>2015-11-27T08:11:29Z</time>
      </trkpt>
      <trkpt lat="44.99558" lon="4.48198">
        <ele>698</ele>
        <time>2015-11-27T08:11:33Z</time>
      </trkpt>
      <trkpt lat="44.99553" lon="4.4819">
        <ele>699</ele>
        <time>2015-11-27T08:11:37Z</time>
      </trkpt>
      <trkpt lat="44.99547" lon="4.48182">
        <ele>701</ele>
        <time>2015-11-27T08:11:45Z</time>
      </trkpt>
      <trkpt lat="44.99543" lon="4.48171">
        <ele>702</ele>
        <time>2015-11-27T08:11:52Z</time>
      </trkpt>
      <trkpt lat="44.99541" lon="4.48162">
        <ele>703</ele>
        <time>2015-11-27T08:11:58Z</time>
      </trkpt>
      <trkpt lat="44.9954" lon="4.48153">
        <ele>703</ele>
        <time>2015-11-27T08:12:03Z</time>
      </trkpt>
      <trkpt lat="44.99541" lon="4.48142">
        <ele>704</ele>
        <time>2015-11-27T08:12:09Z</time>
      </trkpt>
      <trkpt lat="44.99541" lon="4.4813">
        <ele>705</ele>
        <time>2015-11-27T08:12:17Z</time>
      </trkpt>
      <trkpt lat="44.99543" lon="4.4812">
        <ele>706</ele>
        <time>2015-11-27T08:12:24Z</time>
      </trkpt>
      <trkpt lat="44.99547" lon="4.48112">
        <ele>707</ele>
        <time>2015-11-27T08:12:30Z</time>
      </trkpt>
      <trkpt lat="44.9955" lon="4.48104">
        <ele>708</ele>
        <time>2015-11-27T08:12:35Z</time>
      </trkpt>
      <trkpt lat="44.99552" lon="4.48092">
        <ele>708</ele>
        <time>2015-11-27T08:12:41Z</time>
      </trkpt>
      <trkpt lat="44.99553" lon="4.48082">
        <ele>709</ele>
        <time>2015-11-27T08:12:47Z</time>
      </trkpt>
      <trkpt lat="44.99556" lon="4.48075">
        <ele>709</ele>
        <time>2015-11-27T08:12:51Z</time>
      </trkpt>
      <trkpt lat="44.99561" lon="4.48067">
        <ele>710</ele>
        <time>2015-11-27T08:12:56Z</time>
      </trkpt>
      <trkpt lat="44.99567" lon="4.48062">
        <ele>711</ele>
        <time>2015-11-27T08:13:01Z</time>
      </trkpt>
      <trkpt lat="44.99574" lon="4.48055">
        <ele>713</ele>
        <time>2015-11-27T08:13:11Z</time>
      </trkpt>
      <trkpt lat="44.99576" lon="4.48045">
        <ele>714</ele>
        <time>2015-11-27T08:13:17Z</time>
      </trkpt>
      <trkpt lat="44.99576" lon="4.48033">
        <ele>714</ele>
        <time>2015-11-27T08:13:21Z</time>
      </trkpt>
      <trkpt lat="44.99579" lon="4.48025">
        <ele>715</ele>
        <time>2015-11-27T08:13:25Z</time>
      </trkpt>
      <trkpt lat="44.99581" lon="4.48016">
        <ele>716</ele>
        <time>2015-11-27T08:13:29Z</time>
      </trkpt>
      <trkpt lat="44.99583" lon="4.48004">
        <ele>718</ele>
        <time>2015-11-27T08:13:35Z</time>
      </trkpt>
      <trkpt lat="44.99587" lon="4.47995">
        <ele>719</ele>
        <time>2015-11-27T08:13:42Z</time>
      </trkpt>
      <trkpt lat="44.99593" lon="4.4799">
        <ele>720</ele>
        <time>2015-11-27T08:13:47Z</time>
      </trkpt>
      <trkpt lat="44.99596" lon="4.47984">
        <ele>721</ele>
        <time>2015-11-27T08:13:51Z</time>
      </trkpt>
      <trkpt lat="44.99603" lon="4.47975">
        <ele>723</ele>
        <time>2015-11-27T08:13:57Z</time>
      </trkpt>
      <trkpt lat="44.99609" lon="4.47967">
        <ele>725</ele>
        <time>2015-11-27T08:14:06Z</time>
      </trkpt>
      <trkpt lat="44.99614" lon="4.47961">
        <ele>726</ele>
        <time>2015-11-27T08:14:11Z</time>
      </trkpt>
      <trkpt lat="44.99619" lon="4.47953">
        <ele>727</ele>
        <time>2015-11-27T08:14:17Z</time>
      </trkpt>
      <trkpt lat="44.99623" lon="4.47947">
        <ele>728</ele>
        <time>2015-11-27T08:14:22Z</time>
      </trkpt>
      <trkpt lat="44.99625" lon="4.47936">
        <ele>729</ele>
        <time>2015-11-27T08:14:27Z</time>
      </trkpt>
      <trkpt lat="44.99628" lon="4.47926">
        <ele>730</ele>
        <time>2015-11-27T08:14:31Z</time>
      </trkpt>
      <trkpt lat="44.99633" lon="4.47916">
        <ele>730</ele>
        <time>2015-11-27T08:14:37Z</time>
      </trkpt>
      <trkpt lat="44.99633" lon="4.47906">
        <ele>731</ele>
        <time>2015-11-27T08:14:42Z</time>
      </trkpt>
      <trkpt lat="44.99637" lon="4.47897">
        <ele>733</ele>
        <time>2015-11-27T08:14:55Z</time>
      </trkpt>
      <trkpt lat="44.99635" lon="4.47884">
        <ele>733</ele>
        <time>2015-11-27T08:15:04Z</time>
      </trkpt>
      <trkpt lat="44.99636" lon="4.47874">
        <ele>734</ele>
        <time>2015-11-27T08:15:09Z</time>
      </trkpt>
      <trkpt lat="44.99632" lon="4.47866">
        <ele>734</ele>
        <time>2015-11-27T08:15:13Z</time>
      </trkpt>
      <trkpt lat="44.99634" lon="4.47857">
        <ele>734</ele>
        <time>2015-11-27T08:15:18Z</time>
      </trkpt>
      <trkpt lat="44.99636" lon="4.47848">
        <ele>735</ele>
        <time>2015-11-27T08:15:22Z</time>
      </trkpt>
      <trkpt lat="44.99636" lon="4.47836">
        <ele>735</ele>
        <time>2015-11-27T08:15:27Z</time>
      </trkpt>
      <trkpt lat="44.99635" lon="4.47826">
        <ele>736</ele>
        <time>2015-11-27T08:15:39Z</time>
      </trkpt>
      <trkpt lat="44.99636" lon="4.47817">
        <ele>736</ele>
        <time>2015-11-27T08:15:46Z</time>
      </trkpt>
      <trkpt lat="44.99641" lon="4.47808">
        <ele>736</ele>
        <time>2015-11-27T08:15:53Z</time>
      </trkpt>
      <trkpt lat="44.9964" lon="4.47798">
        <ele>736</ele>
        <time>2015-11-27T08:15:58Z</time>
      </trkpt>
      <trkpt lat="44.99638" lon="4.47787">
        <ele>736</ele>
        <time>2015-11-27T08:16:08Z</time>
      </trkpt>
      <trkpt lat="44.99639" lon="4.4778">
        <ele>736</ele>
        <time>2015-11-27T08:16:16Z</time>
      </trkpt>
      <trkpt lat="44.99638" lon="4.47765">
        <ele>736</ele>
        <time>2015-11-27T08:16:19Z</time>
      </trkpt>
      <trkpt lat="44.99636" lon="4.47754">
        <ele>735</ele>
        <time>2015-11-27T08:16:24Z</time>
      </trkpt>
      <trkpt lat="44.99634" lon="4.47742">
        <ele>735</ele>
        <time>2015-11-27T08:16:29Z</time>
      </trkpt>
      <trkpt lat="44.9963" lon="4.47733">
        <ele>735</ele>
        <time>2015-11-27T08:16:33Z</time>
      </trkpt>
      <trkpt lat="44.99626" lon="4.47724">
        <ele>735</ele>
        <time>2015-11-27T08:16:38Z</time>
      </trkpt>
      <trkpt lat="44.99623" lon="4.47716">
        <ele>735</ele>
        <time>2015-11-27T08:16:43Z</time>
      </trkpt>
      <trkpt lat="44.99621" lon="4.47708">
        <ele>735</ele>
        <time>2015-11-27T08:16:49Z</time>
      </trkpt>
      <trkpt lat="44.99618" lon="4.47696">
        <ele>735</ele>
        <time>2015-11-27T08:16:55Z</time>
      </trkpt>
      <trkpt lat="44.99612" lon="4.4769">
        <ele>736</ele>
        <time>2015-11-27T08:17:00Z</time>
      </trkpt>
      <trkpt lat="44.99607" lon="4.47683">
        <ele>736</ele>
        <time>2015-11-27T08:17:05Z</time>
      </trkpt>
      <trkpt lat="44.996" lon="4.47679">
        <ele>736</ele>
        <time>2015-11-27T08:17:11Z</time>
      </trkpt>
      <trkpt lat="44.99596" lon="4.4767">
        <ele>736</ele>
        <time>2015-11-27T08:17:16Z</time>
      </trkpt>
      <trkpt lat="44.99589" lon="4.47668">
        <ele>737</ele>
        <time>2015-11-27T08:17:21Z</time>
      </trkpt>
      <trkpt lat="44.99586" lon="4.4766">
        <ele>737</ele>
        <time>2015-11-27T08:17:25Z</time>
      </trkpt>
      <trkpt lat="44.99581" lon="4.4765">
        <ele>737</ele>
        <time>2015-11-27T08:17:31Z</time>
      </trkpt>
      <trkpt lat="44.99575" lon="4.47641">
        <ele>738</ele>
        <time>2015-11-27T08:17:37Z</time>
      </trkpt>
      <trkpt lat="44.99568" lon="4.47635">
        <ele>738</ele>
        <time>2015-11-27T08:17:43Z</time>
      </trkpt>
      <trkpt lat="44.9956" lon="4.4763">
        <ele>739</ele>
        <time>2015-11-27T08:17:48Z</time>
      </trkpt>
      <trkpt lat="44.99552" lon="4.47628">
        <ele>740</ele>
        <time>2015-11-27T08:17:54Z</time>
      </trkpt>
      <trkpt lat="44.99546" lon="4.47618">
        <ele>741</ele>
        <time>2015-11-27T08:17:59Z</time>
      </trkpt>
      <trkpt lat="44.99537" lon="4.47615">
        <ele>743</ele>
        <time>2015-11-27T08:18:05Z</time>
      </trkpt>
      <trkpt lat="44.9953" lon="4.4761">
        <ele>744</ele>
        <time>2015-11-27T08:18:11Z</time>
      </trkpt>
      <trkpt lat="44.99524" lon="4.47606">
        <ele>745</ele>
        <time>2015-11-27T08:18:15Z</time>
      </trkpt>
      <trkpt lat="44.99517" lon="4.47606">
        <ele>746</ele>
        <time>2015-11-27T08:18:21Z</time>
      </trkpt>
      <trkpt lat="44.99511" lon="4.47607">
        <ele>747</ele>
        <time>2015-11-27T08:18:25Z</time>
      </trkpt>
      <trkpt lat="44.99503" lon="4.47609">
        <ele>748</ele>
        <time>2015-11-27T08:18:29Z</time>
      </trkpt>
      <trkpt lat="44.99496" lon="4.47606">
        <ele>749</ele>
        <time>2015-11-27T08:18:35Z</time>
      </trkpt>
      <trkpt lat="44.99489" lon="4.47603">
        <ele>750</ele>
        <time>2015-11-27T08:18:40Z</time>
      </trkpt>
      <trkpt lat="44.99482" lon="4.47602">
        <ele>751</ele>
        <time>2015-11-27T08:18:45Z</time>
      </trkpt>
      <trkpt lat="44.99475" lon="4.47599">
        <ele>752</ele>
        <time>2015-11-27T08:18:51Z</time>
      </trkpt>
      <trkpt lat="44.99468" lon="4.47596">
        <ele>752</ele>
        <time>2015-11-27T08:18:57Z</time>
      </trkpt>
      <trkpt lat="44.99463" lon="4.47587">
        <ele>752</ele>
        <time>2015-11-27T08:19:03Z</time>
      </trkpt>
      <trkpt lat="44.99458" lon="4.47581">
        <ele>753</ele>
        <time>2015-11-27T08:19:07Z</time>
      </trkpt>
      <trkpt lat="44.99452" lon="4.47576">
        <ele>753</ele>
        <time>2015-11-27T08:19:12Z</time>
      </trkpt>
      <trkpt lat="44.99446" lon="4.47566">
        <ele>754</ele>
        <time>2015-11-27T08:19:19Z</time>
      </trkpt>
      <trkpt lat="44.9944" lon="4.47557">
        <ele>755</ele>
        <time>2015-11-27T08:19:26Z</time>
      </trkpt>
      <trkpt lat="44.99435" lon="4.47549">
        <ele>755</ele>
        <time>2015-11-27T08:19:31Z</time>
      </trkpt>
      <trkpt lat="44.9943" lon="4.47541">
        <ele>755</ele>
        <time>2015-11-27T08:19:37Z</time>
      </trkpt>
      <trkpt lat="44.99426" lon="4.4753">
        <ele>756</ele>
        <time>2015-11-27T08:19:47Z</time>
      </trkpt>
      <trkpt lat="44.99423" lon="4.4752">
        <ele>757</ele>
        <time>2015-11-27T08:19:53Z</time>
      </trkpt>
      <trkpt lat="44.99417" lon="4.47511">
        <ele>757</ele>
        <time>2015-11-27T08:19:58Z</time>
      </trkpt>
      <trkpt lat="44.99413" lon="4.47503">
        <ele>758</ele>
        <time>2015-11-27T08:20:04Z</time>
      </trkpt>
      <trkpt lat="44.99409" lon="4.47495">
        <ele>759</ele>
        <time>2015-11-27T08:20:15Z</time>
      </trkpt>
      <trkpt lat="44.994" lon="4.47498">
        <ele>760</ele>
        <time>2015-11-27T08:20:19Z</time>
      </trkpt>
      <trkpt lat="44.99395" lon="4.47488">
        <ele>760</ele>
        <time>2015-11-27T08:20:27Z</time>
      </trkpt>
      <trkpt lat="44.99387" lon="4.47485">
        <ele>761</ele>
        <time>2015-11-27T08:20:35Z</time>
      </trkpt>
      <trkpt lat="44.9938" lon="4.47481">
        <ele>761</ele>
        <time>2015-11-27T08:20:42Z</time>
      </trkpt>
      <trkpt lat="44.99379" lon="4.47472">
        <ele>761</ele>
        <time>2015-11-27T08:20:47Z</time>
      </trkpt>
      <trkpt lat="44.99379" lon="4.47462">
        <ele>761</ele>
        <time>2015-11-27T08:20:51Z</time>
      </trkpt>
      <trkpt lat="44.99379" lon="4.47453">
        <ele>761</ele>
        <time>2015-11-27T08:20:55Z</time>
      </trkpt>
      <trkpt lat="44.99378" lon="4.47442">
        <ele>761</ele>
        <time>2015-11-27T08:21:01Z</time>
      </trkpt>
      <trkpt lat="44.99376" lon="4.47433">
        <ele>762</ele>
        <time>2015-11-27T08:21:05Z</time>
      </trkpt>
      <trkpt lat="44.99376" lon="4.47422">
        <ele>762</ele>
        <time>2015-11-27T08:21:09Z</time>
      </trkpt>
      <trkpt lat="44.99374" lon="4.4741">
        <ele>763</ele>
        <time>2015-11-27T08:21:16Z</time>
      </trkpt>
      <trkpt lat="44.99372" lon="4.47399">
        <ele>763</ele>
        <time>2015-11-27T08:21:41Z</time>
      </trkpt>
      <trkpt lat="44.99369" lon="4.47386">
        <ele>768</ele>
        <time>2015-11-27T08:21:45Z</time>
      </trkpt>
      <trkpt lat="44.9937" lon="4.47374">
        <ele>772</ele>
        <time>2015-11-27T08:22:15Z</time>
      </trkpt>
      <trkpt lat="44.99372" lon="4.47363">
        <ele>773</ele>
        <time>2015-11-27T08:22:23Z</time>
      </trkpt>
      <trkpt lat="44.99372" lon="4.47353">
        <ele>773</ele>
        <time>2015-11-27T08:22:29Z</time>
      </trkpt>
      <trkpt lat="44.99372" lon="4.47341">
        <ele>773</ele>
        <time>2015-11-27T08:22:35Z</time>
      </trkpt>
      <trkpt lat="44.99373" lon="4.4733">
        <ele>772</ele>
        <time>2015-11-27T08:22:41Z</time>
      </trkpt>
      <trkpt lat="44.99372" lon="4.47318">
        <ele>772</ele>
        <time>2015-11-27T08:22:45Z</time>
      </trkpt>
      <trkpt lat="44.99372" lon="4.47307">
        <ele>771</ele>
        <time>2015-11-27T08:22:49Z</time>
      </trkpt>
      <trkpt lat="44.99372" lon="4.47294">
        <ele>771</ele>
        <time>2015-11-27T08:22:53Z</time>
      </trkpt>
      <trkpt lat="44.99372" lon="4.47284">
        <ele>771</ele>
        <time>2015-11-27T08:22:57Z</time>
      </trkpt>
      <trkpt lat="44.9937" lon="4.47273">
        <ele>771</ele>
        <time>2015-11-27T08:23:01Z</time>
      </trkpt>
      <trkpt lat="44.99369" lon="4.4726">
        <ele>771</ele>
        <time>2015-11-27T08:23:06Z</time>
      </trkpt>
      <trkpt lat="44.99367" lon="4.47251">
        <ele>771</ele>
        <time>2015-11-27T08:23:09Z</time>
      </trkpt>
      <trkpt lat="44.99367" lon="4.47241">
        <ele>771</ele>
        <time>2015-11-27T08:23:13Z</time>
      </trkpt>
      <trkpt lat="44.99369" lon="4.47233">
        <ele>771</ele>
        <time>2015-11-27T08:23:17Z</time>
      </trkpt>
      <trkpt lat="44.99369" lon="4.47223">
        <ele>771</ele>
        <time>2015-11-27T08:23:21Z</time>
      </trkpt>
      <trkpt lat="44.9937" lon="4.47212">
        <ele>771</ele>
        <time>2015-11-27T08:23:25Z</time>
      </trkpt>
      <trkpt lat="44.9937" lon="4.47203">
        <ele>770</ele>
        <time>2015-11-27T08:23:29Z</time>
      </trkpt>
      <trkpt lat="44.9937" lon="4.47189">
        <ele>770</ele>
        <time>2015-11-27T08:23:33Z</time>
      </trkpt>
      <trkpt lat="44.99369" lon="4.47179">
        <ele>770</ele>
        <time>2015-11-27T08:23:37Z</time>
      </trkpt>
      <trkpt lat="44.99371" lon="4.47167">
        <ele>770</ele>
        <time>2015-11-27T08:23:41Z</time>
      </trkpt>
      <trkpt lat="44.99374" lon="4.47156">
        <ele>770</ele>
        <time>2015-11-27T08:23:45Z</time>
      </trkpt>
      <trkpt lat="44.99376" lon="4.47147">
        <ele>770</ele>
        <time>2015-11-27T08:23:49Z</time>
      </trkpt>
      <trkpt lat="44.99379" lon="4.47137">
        <ele>770</ele>
        <time>2015-11-27T08:23:53Z</time>
      </trkpt>
      <trkpt lat="44.99381" lon="4.47125">
        <ele>769</ele>
        <time>2015-11-27T08:23:59Z</time>
      </trkpt>
      <trkpt lat="44.99378" lon="4.47118">
        <ele>769</ele>
        <time>2015-11-27T08:24:03Z</time>
      </trkpt>
      <trkpt lat="44.99375" lon="4.4711">
        <ele>769</ele>
        <time>2015-11-27T08:24:07Z</time>
      </trkpt>
      <trkpt lat="44.9937" lon="4.47102">
        <ele>769</ele>
        <time>2015-11-27T08:24:11Z</time>
      </trkpt>
      <trkpt lat="44.99366" lon="4.47093">
        <ele>769</ele>
        <time>2015-11-27T08:24:15Z</time>
      </trkpt>
      <trkpt lat="44.99363" lon="4.47091">
        <ele>769</ele>
        <time>2015-11-27T08:24:18Z</time>
      </trkpt>
      <trkpt lat="44.99358" lon="4.4708">
        <ele>768</ele>
        <time>2015-11-27T08:24:22Z</time>
      </trkpt>
      <trkpt lat="44.99353" lon="4.47064">
        <ele>768</ele>
        <time>2015-11-27T08:24:27Z</time>
      </trkpt>
      <trkpt lat="44.9935" lon="4.47057">
        <ele>768</ele>
        <time>2015-11-27T08:24:33Z</time>
      </trkpt>
      <trkpt lat="44.99346" lon="4.47049">
        <ele>767</ele>
        <time>2015-11-27T08:24:37Z</time>
      </trkpt>
      <trkpt lat="44.99341" lon="4.47042">
        <ele>767</ele>
        <time>2015-11-27T08:24:40Z</time>
      </trkpt>
      <trkpt lat="44.99335" lon="4.47031">
        <ele>766</ele>
        <time>2015-11-27T08:24:44Z</time>
      </trkpt>
      <trkpt lat="44.99331" lon="4.47018">
        <ele>766</ele>
        <time>2015-11-27T08:24:49Z</time>
      </trkpt>
      <trkpt lat="44.99326" lon="4.47011">
        <ele>765</ele>
        <time>2015-11-27T08:24:59Z</time>
      </trkpt>
      <trkpt lat="44.99323" lon="4.47002">
        <ele>765</ele>
        <time>2015-11-27T08:25:04Z</time>
      </trkpt>
      <trkpt lat="44.99319" lon="4.4699">
        <ele>764</ele>
        <time>2015-11-27T08:25:09Z</time>
      </trkpt>
      <trkpt lat="44.99317" lon="4.4698">
        <ele>764</ele>
        <time>2015-11-27T08:25:13Z</time>
      </trkpt>
      <trkpt lat="44.99314" lon="4.46969">
        <ele>763</ele>
        <time>2015-11-27T08:25:21Z</time>
      </trkpt>
      <trkpt lat="44.99309" lon="4.46961">
        <ele>762</ele>
        <time>2015-11-27T08:25:27Z</time>
      </trkpt>
      <trkpt lat="44.99305" lon="4.46952">
        <ele>762</ele>
        <time>2015-11-27T08:25:36Z</time>
      </trkpt>
      <trkpt lat="44.99299" lon="4.46945">
        <ele>761</ele>
        <time>2015-11-27T08:25:42Z</time>
      </trkpt>
      <trkpt lat="44.99292" lon="4.46942">
        <ele>761</ele>
        <time>2015-11-27T08:25:49Z</time>
      </trkpt>
      <trkpt lat="44.99287" lon="4.46934">
        <ele>761</ele>
        <time>2015-11-27T08:25:56Z</time>
      </trkpt>
      <trkpt lat="44.99283" lon="4.46925">
        <ele>760</ele>
        <time>2015-11-27T08:26:00Z</time>
      </trkpt>
      <trkpt lat="44.99278" lon="4.46916">
        <ele>760</ele>
        <time>2015-11-27T08:26:07Z</time>
      </trkpt>
      <trkpt lat="44.99274" lon="4.46906">
        <ele>759</ele>
        <time>2015-11-27T08:26:15Z</time>
      </trkpt>
      <trkpt lat="44.99268" lon="4.46898">
        <ele>759</ele>
        <time>2015-11-27T08:26:27Z</time>
      </trkpt>
      <trkpt lat="44.99263" lon="4.4689">
        <ele>758</ele>
        <time>2015-11-27T08:26:33Z</time>
      </trkpt>
      <trkpt lat="44.99258" lon="4.46881">
        <ele>758</ele>
        <time>2015-11-27T08:26:38Z</time>
      </trkpt>
      <trkpt lat="44.99253" lon="4.46872">
        <ele>757</ele>
        <time>2015-11-27T08:26:49Z</time>
      </trkpt>
      <trkpt lat="44.99246" lon="4.46865">
        <ele>756</ele>
        <time>2015-11-27T08:26:59Z</time>
      </trkpt>
      <trkpt lat="44.99241" lon="4.46855">
        <ele>755</ele>
        <time>2015-11-27T08:27:06Z</time>
      </trkpt>
      <trkpt lat="44.99236" lon="4.46847">
        <ele>755</ele>
        <time>2015-11-27T08:27:14Z</time>
      </trkpt>
      <trkpt lat="44.99234" lon="4.46839">
        <ele>754</ele>
        <time>2015-11-27T08:27:18Z</time>
      </trkpt>
      <trkpt lat="44.9923" lon="4.46832">
        <ele>754</ele>
        <time>2015-11-27T08:27:25Z</time>
      </trkpt>
      <trkpt lat="44.99227" lon="4.46825">
        <ele>754</ele>
        <time>2015-11-27T08:27:28Z</time>
      </trkpt>
      <trkpt lat="44.99223" lon="4.46814">
        <ele>754</ele>
        <time>2015-11-27T08:27:34Z</time>
      </trkpt>
      <trkpt lat="44.99215" lon="4.46811">
        <ele>753</ele>
        <time>2015-11-27T08:27:43Z</time>
      </trkpt>
      <trkpt lat="44.99209" lon="4.46805">
        <ele>753</ele>
        <time>2015-11-27T08:27:48Z</time>
      </trkpt>
      <trkpt lat="44.99202" lon="4.46801">
        <ele>753</ele>
        <time>2015-11-27T08:27:53Z</time>
      </trkpt>
      <trkpt lat="44.99198" lon="4.46794">
        <ele>753</ele>
        <time>2015-11-27T08:27:57Z</time>
      </trkpt>
      <trkpt lat="44.99194" lon="4.46786">
        <ele>753</ele>
        <time>2015-11-27T08:28:02Z</time>
      </trkpt>
      <trkpt lat="44.9919" lon="4.46775">
        <ele>753</ele>
        <time>2015-11-27T08:28:06Z</time>
      </trkpt>
      <trkpt lat="44.99187" lon="4.46764">
        <ele>752</ele>
        <time>2015-11-27T08:28:15Z</time>
      </trkpt>
      <trkpt lat="44.99181" lon="4.46758">
        <ele>752</ele>
        <time>2015-11-27T08:28:25Z</time>
      </trkpt>
      <trkpt lat="44.99171" lon="4.46754">
        <ele>752</ele>
        <time>2015-11-27T08:28:30Z</time>
      </trkpt>
      <trkpt lat="44.99163" lon="4.46754">
        <ele>753</ele>
        <time>2015-11-27T08:28:36Z</time>
      </trkpt>
      <trkpt lat="44.99155" lon="4.4675">
        <ele>753</ele>
        <time>2015-11-27T08:28:43Z</time>
      </trkpt>
      <trkpt lat="44.99149" lon="4.46752">
        <ele>753</ele>
        <time>2015-11-27T08:28:47Z</time>
      </trkpt>
      <trkpt lat="44.99138" lon="4.46747">
        <ele>753</ele>
        <time>2015-11-27T08:28:52Z</time>
      </trkpt>
      <trkpt lat="44.99131" lon="4.46748">
        <ele>752</ele>
        <time>2015-11-27T08:28:56Z</time>
      </trkpt>
      <trkpt lat="44.99122" lon="4.4675">
        <ele>752</ele>
        <time>2015-11-27T08:29:00Z</time>
      </trkpt>
      <trkpt lat="44.99116" lon="4.46748">
        <ele>752</ele>
        <time>2015-11-27T08:29:04Z</time>
      </trkpt>
      <trkpt lat="44.9911" lon="4.46741">
        <ele>752</ele>
        <time>2015-11-27T08:29:09Z</time>
      </trkpt>
      <trkpt lat="44.99101" lon="4.46733">
        <ele>752</ele>
        <time>2015-11-27T08:29:13Z</time>
      </trkpt>
      <trkpt lat="44.99089" lon="4.46719">
        <ele>752</ele>
        <time>2015-11-27T08:29:18Z</time>
      </trkpt>
      <trkpt lat="44.99081" lon="4.46714">
        <ele>752</ele>
        <time>2015-11-27T08:29:21Z</time>
      </trkpt>
      <trkpt lat="44.99075" lon="4.4671">
        <ele>753</ele>
        <time>2015-11-27T08:29:25Z</time>
      </trkpt>
      <trkpt lat="44.99068" lon="4.46702">
        <ele>753</ele>
        <time>2015-11-27T08:29:29Z</time>
      </trkpt>
      <trkpt lat="44.9906" lon="4.46697">
        <ele>753</ele>
        <time>2015-11-27T08:29:35Z</time>
      </trkpt>
      <trkpt lat="44.99058" lon="4.46689">
        <ele>752</ele>
        <time>2015-11-27T08:29:39Z</time>
      </trkpt>
      <trkpt lat="44.99055" lon="4.46679">
        <ele>752</ele>
        <time>2015-11-27T08:29:43Z</time>
      </trkpt>
      <trkpt lat="44.99052" lon="4.46668">
        <ele>752</ele>
        <time>2015-11-27T08:29:48Z</time>
      </trkpt>
      <trkpt lat="44.99052" lon="4.46657">
        <ele>752</ele>
        <time>2015-11-27T08:29:52Z</time>
      </trkpt>
      <trkpt lat="44.99048" lon="4.46647">
        <ele>752</ele>
        <time>2015-11-27T08:29:59Z</time>
      </trkpt>
      <trkpt lat="44.99043" lon="4.46638">
        <ele>752</ele>
        <time>2015-11-27T08:30:04Z</time>
      </trkpt>
      <trkpt lat="44.99035" lon="4.46632">
        <ele>751</ele>
        <time>2015-11-27T08:30:10Z</time>
      </trkpt>
      <trkpt lat="44.9903" lon="4.46623">
        <ele>751</ele>
        <time>2015-11-27T08:30:15Z</time>
      </trkpt>
      <trkpt lat="44.9903" lon="4.46606">
        <ele>751</ele>
        <time>2015-11-27T08:30:19Z</time>
      </trkpt>
      <trkpt lat="44.99024" lon="4.4659">
        <ele>750</ele>
        <time>2015-11-27T08:30:23Z</time>
      </trkpt>
      <trkpt lat="44.9902" lon="4.46575">
        <ele>750</ele>
        <time>2015-11-27T08:30:27Z</time>
      </trkpt>
      <trkpt lat="44.99016" lon="4.46558">
        <ele>750</ele>
        <time>2015-11-27T08:30:31Z</time>
      </trkpt>
      <trkpt lat="44.99014" lon="4.46546">
        <ele>750</ele>
        <time>2015-11-27T08:30:35Z</time>
      </trkpt>
      <trkpt lat="44.99009" lon="4.4654">
        <ele>750</ele>
        <time>2015-11-27T08:30:38Z</time>
      </trkpt>
      <trkpt lat="44.99006" lon="4.4653">
        <ele>750</ele>
        <time>2015-11-27T08:30:42Z</time>
      </trkpt>
      <trkpt lat="44.99001" lon="4.46523">
        <ele>750</ele>
        <time>2015-11-27T08:30:46Z</time>
      </trkpt>
      <trkpt lat="44.98996" lon="4.46514">
        <ele>750</ele>
        <time>2015-11-27T08:30:52Z</time>
      </trkpt>
      <trkpt lat="44.98992" lon="4.46503">
        <ele>750</ele>
        <time>2015-11-27T08:30:58Z</time>
      </trkpt>
      <trkpt lat="44.98989" lon="4.46492">
        <ele>749</ele>
        <time>2015-11-27T08:31:03Z</time>
      </trkpt>
      <trkpt lat="44.98985" lon="4.46481">
        <ele>749</ele>
        <time>2015-11-27T08:31:08Z</time>
      </trkpt>
      <trkpt lat="44.98979" lon="4.46471">
        <ele>749</ele>
        <time>2015-11-27T08:31:13Z</time>
      </trkpt>
      <trkpt lat="44.98975" lon="4.46463">
        <ele>748</ele>
        <time>2015-11-27T08:31:17Z</time>
      </trkpt>
      <trkpt lat="44.98972" lon="4.46455">
        <ele>748</ele>
        <time>2015-11-27T08:31:20Z</time>
      </trkpt>
      <trkpt lat="44.98966" lon="4.46448">
        <ele>748</ele>
        <time>2015-11-27T08:31:25Z</time>
      </trkpt>
      <trkpt lat="44.9896" lon="4.46439">
        <ele>748</ele>
        <time>2015-11-27T08:31:30Z</time>
      </trkpt>
      <trkpt lat="44.98958" lon="4.46427">
        <ele>748</ele>
        <time>2015-11-27T08:31:34Z</time>
      </trkpt>
      <trkpt lat="44.98954" lon="4.46417">
        <ele>748</ele>
        <time>2015-11-27T08:31:41Z</time>
      </trkpt>
      <trkpt lat="44.9895" lon="4.46412">
        <ele>748</ele>
        <time>2015-11-27T08:31:47Z</time>
      </trkpt>
      <trkpt lat="44.98944" lon="4.46404">
        <ele>747</ele>
        <time>2015-11-27T08:31:53Z</time>
      </trkpt>
      <trkpt lat="44.98939" lon="4.46393">
        <ele>747</ele>
        <time>2015-11-27T08:32:00Z</time>
      </trkpt>
      <trkpt lat="44.98935" lon="4.46384">
        <ele>747</ele>
        <time>2015-11-27T08:32:07Z</time>
      </trkpt>
      <trkpt lat="44.98932" lon="4.46374">
        <ele>746</ele>
        <time>2015-11-27T08:32:15Z</time>
      </trkpt>
      <trkpt lat="44.98931" lon="4.46363">
        <ele>748</ele>
        <time>2015-11-27T08:32:23Z</time>
      </trkpt>
      <trkpt lat="44.98929" lon="4.46356">
        <ele>748</ele>
        <time>2015-11-27T08:32:29Z</time>
      </trkpt>
      <trkpt lat="44.98925" lon="4.46347">
        <ele>748</ele>
        <time>2015-11-27T08:32:33Z</time>
      </trkpt>
      <trkpt lat="44.98923" lon="4.46338">
        <ele>748</ele>
        <time>2015-11-27T08:32:37Z</time>
      </trkpt>
      <trkpt lat="44.98919" lon="4.46332">
        <ele>748</ele>
        <time>2015-11-27T08:32:40Z</time>
      </trkpt>
      <trkpt lat="44.98913" lon="4.46324">
        <ele>748</ele>
        <time>2015-11-27T08:32:44Z</time>
      </trkpt>
      <trkpt lat="44.98909" lon="4.46316">
        <ele>748</ele>
        <time>2015-11-27T08:32:49Z</time>
      </trkpt>
      <trkpt lat="44.98905" lon="4.46306">
        <ele>748</ele>
        <time>2015-11-27T08:32:53Z</time>
      </trkpt>
      <trkpt lat="44.989" lon="4.46296">
        <ele>748</ele>
        <time>2015-11-27T08:32:58Z</time>
      </trkpt>
      <trkpt lat="44.98898" lon="4.46286">
        <ele>748</ele>
        <time>2015-11-27T08:33:02Z</time>
      </trkpt>
      <trkpt lat="44.98894" lon="4.46271">
        <ele>748</ele>
        <time>2015-11-27T08:33:06Z</time>
      </trkpt>
      <trkpt lat="44.9889" lon="4.46258">
        <ele>748</ele>
        <time>2015-11-27T08:33:09Z</time>
      </trkpt>
      <trkpt lat="44.98885" lon="4.46247">
        <ele>748</ele>
        <time>2015-11-27T08:33:13Z</time>
      </trkpt>
      <trkpt lat="44.98879" lon="4.46232">
        <ele>748</ele>
        <time>2015-11-27T08:33:18Z</time>
      </trkpt>
      <trkpt lat="44.98877" lon="4.46222">
        <ele>748</ele>
        <time>2015-11-27T08:33:21Z</time>
      </trkpt>
      <trkpt lat="44.98874" lon="4.46212">
        <ele>747</ele>
        <time>2015-11-27T08:33:24Z</time>
      </trkpt>
      <trkpt lat="44.98875" lon="4.46202">
        <ele>747</ele>
        <time>2015-11-27T08:33:29Z</time>
      </trkpt>
      <trkpt lat="44.98876" lon="4.46191">
        <ele>747</ele>
        <time>2015-11-27T08:33:34Z</time>
      </trkpt>
      <trkpt lat="44.9888" lon="4.46182">
        <ele>747</ele>
        <time>2015-11-27T08:33:39Z</time>
      </trkpt>
      <trkpt lat="44.98882" lon="4.46171">
        <ele>747</ele>
        <time>2015-11-27T08:33:44Z</time>
      </trkpt>
      <trkpt lat="44.98883" lon="4.46161">
        <ele>748</ele>
        <time>2015-11-27T08:33:51Z</time>
      </trkpt>
      <trkpt lat="44.98882" lon="4.46149">
        <ele>747</ele>
        <time>2015-11-27T08:33:56Z</time>
      </trkpt>
      <trkpt lat="44.98884" lon="4.46142">
        <ele>747</ele>
        <time>2015-11-27T08:34:01Z</time>
      </trkpt>
      <trkpt lat="44.98883" lon="4.46131">
        <ele>747</ele>
        <time>2015-11-27T08:34:05Z</time>
      </trkpt>
      <trkpt lat="44.98883" lon="4.46124">
        <ele>747</ele>
        <time>2015-11-27T08:34:08Z</time>
      </trkpt>
      <trkpt lat="44.98883" lon="4.46114">
        <ele>747</ele>
        <time>2015-11-27T08:34:12Z</time>
      </trkpt>
      <trkpt lat="44.98887" lon="4.46105">
        <ele>747</ele>
        <time>2015-11-27T08:34:16Z</time>
      </trkpt>
      <trkpt lat="44.98887" lon="4.46093">
        <ele>747</ele>
        <time>2015-11-27T08:34:20Z</time>
      </trkpt>
      <trkpt lat="44.98888" lon="4.46081">
        <ele>747</ele>
        <time>2015-11-27T08:34:25Z</time>
      </trkpt>
      <trkpt lat="44.9889" lon="4.46064">
        <ele>746</ele>
        <time>2015-11-27T08:34:30Z</time>
      </trkpt>
      <trkpt lat="44.98893" lon="4.46055">
        <ele>746</ele>
        <time>2015-11-27T08:34:33Z</time>
      </trkpt>
      <trkpt lat="44.98896" lon="4.46042">
        <ele>747</ele>
        <time>2015-11-27T08:34:37Z</time>
      </trkpt>
      <trkpt lat="44.98897" lon="4.46031">
        <ele>747</ele>
        <time>2015-11-27T08:34:40Z</time>
      </trkpt>
      <trkpt lat="44.98899" lon="4.46021">
        <ele>747</ele>
        <time>2015-11-27T08:34:43Z</time>
      </trkpt>
      <trkpt lat="44.98901" lon="4.4601">
        <ele>747</ele>
        <time>2015-11-27T08:34:47Z</time>
      </trkpt>
      <trkpt lat="44.98901" lon="4.45996">
        <ele>746</ele>
        <time>2015-11-27T08:34:51Z</time>
      </trkpt>
      <trkpt lat="44.98904" lon="4.45987">
        <ele>747</ele>
        <time>2015-11-27T08:34:55Z</time>
      </trkpt>
      <trkpt lat="44.98906" lon="4.45978">
        <ele>746</ele>
        <time>2015-11-27T08:34:59Z</time>
      </trkpt>
      <trkpt lat="44.98908" lon="4.45969">
        <ele>746</ele>
        <time>2015-11-27T08:35:03Z</time>
      </trkpt>
      <trkpt lat="44.98909" lon="4.45955">
        <ele>746</ele>
        <time>2015-11-27T08:35:07Z</time>
      </trkpt>
      <trkpt lat="44.9891" lon="4.45938">
        <ele>745</ele>
        <time>2015-11-27T08:35:11Z</time>
      </trkpt>
      <trkpt lat="44.98911" lon="4.45926">
        <ele>745</ele>
        <time>2015-11-27T08:35:15Z</time>
      </trkpt>
      <trkpt lat="44.9891" lon="4.45912">
        <ele>745</ele>
        <time>2015-11-27T08:35:19Z</time>
      </trkpt>
      <trkpt lat="44.9891" lon="4.45904">
        <ele>745</ele>
        <time>2015-11-27T08:35:22Z</time>
      </trkpt>
      <trkpt lat="44.9891" lon="4.45896">
        <ele>745</ele>
        <time>2015-11-27T08:35:25Z</time>
      </trkpt>
      <trkpt lat="44.98911" lon="4.45883">
        <ele>745</ele>
        <time>2015-11-27T08:35:29Z</time>
      </trkpt>
      <trkpt lat="44.98912" lon="4.45871">
        <ele>745</ele>
        <time>2015-11-27T08:35:33Z</time>
      </trkpt>
      <trkpt lat="44.98911" lon="4.45856">
        <ele>745</ele>
        <time>2015-11-27T08:35:37Z</time>
      </trkpt>
      <trkpt lat="44.98912" lon="4.4584">
        <ele>745</ele>
        <time>2015-11-27T08:35:42Z</time>
      </trkpt>
      <trkpt lat="44.98913" lon="4.45824">
        <ele>745</ele>
        <time>2015-11-27T08:35:47Z</time>
      </trkpt>
      <trkpt lat="44.98913" lon="4.45812">
        <ele>745</ele>
        <time>2015-11-27T08:35:51Z</time>
      </trkpt>
      <trkpt lat="44.98913" lon="4.458">
        <ele>745</ele>
        <time>2015-11-27T08:35:55Z</time>
      </trkpt>
      <trkpt lat="44.98914" lon="4.45786">
        <ele>745</ele>
        <time>2015-11-27T08:35:59Z</time>
      </trkpt>
      <trkpt lat="44.98915" lon="4.45775">
        <ele>745</ele>
        <time>2015-11-27T08:36:03Z</time>
      </trkpt>
      <trkpt lat="44.98913" lon="4.45764">
        <ele>745</ele>
        <time>2015-11-27T08:36:07Z</time>
      </trkpt>
      <trkpt lat="44.98913" lon="4.45752">
        <ele>746</ele>
        <time>2015-11-27T08:36:13Z</time>
      </trkpt>
      <trkpt lat="44.98911" lon="4.45741">
        <ele>746</ele>
        <time>2015-11-27T08:36:20Z</time>
      </trkpt>
      <trkpt lat="44.98907" lon="4.45733">
        <ele>746</ele>
        <time>2015-11-27T08:36:27Z</time>
      </trkpt>
      <trkpt lat="44.98905" lon="4.45722">
        <ele>746</ele>
        <time>2015-11-27T08:36:33Z</time>
      </trkpt>
      <trkpt lat="44.98905" lon="4.45709">
        <ele>746</ele>
        <time>2015-11-27T08:36:40Z</time>
      </trkpt>
      <trkpt lat="44.98902" lon="4.45699">
        <ele>747</ele>
        <time>2015-11-27T08:36:45Z</time>
      </trkpt>
      <trkpt lat="44.98896" lon="4.4569">
        <ele>747</ele>
        <time>2015-11-27T08:36:52Z</time>
      </trkpt>
      <trkpt lat="44.98892" lon="4.45679">
        <ele>747</ele>
        <time>2015-11-27T08:36:57Z</time>
      </trkpt>
      <trkpt lat="44.98887" lon="4.45673">
        <ele>748</ele>
        <time>2015-11-27T08:37:00Z</time>
      </trkpt>
      <trkpt lat="44.98883" lon="4.45664">
        <ele>748</ele>
        <time>2015-11-27T08:37:05Z</time>
      </trkpt>
      <trkpt lat="44.98879" lon="4.45658">
        <ele>749</ele>
        <time>2015-11-27T08:37:09Z</time>
      </trkpt>
      <trkpt lat="44.98875" lon="4.45647">
        <ele>751</ele>
        <time>2015-11-27T08:37:13Z</time>
      </trkpt>
      <trkpt lat="44.9887" lon="4.45637">
        <ele>753</ele>
        <time>2015-11-27T08:37:17Z</time>
      </trkpt>
      <trkpt lat="44.98863" lon="4.45627">
        <ele>755</ele>
        <time>2015-11-27T08:37:22Z</time>
      </trkpt>
      <trkpt lat="44.98855" lon="4.45617">
        <ele>755</ele>
        <time>2015-11-27T08:37:27Z</time>
      </trkpt>
      <trkpt lat="44.9885" lon="4.45611">
        <ele>756</ele>
        <time>2015-11-27T08:37:31Z</time>
      </trkpt>
      <trkpt lat="44.98844" lon="4.45586">
        <ele>766</ele>
        <time>2015-11-27T08:37:36Z</time>
      </trkpt>
      <trkpt lat="44.98841" lon="4.45575">
        <ele>772</ele>
        <time>2015-11-27T08:37:39Z</time>
      </trkpt>
      <trkpt lat="44.98833" lon="4.45569">
        <ele>775</ele>
        <time>2015-11-27T08:37:44Z</time>
      </trkpt>
      <trkpt lat="44.98827" lon="4.45562">
        <ele>777</ele>
        <time>2015-11-27T08:37:50Z</time>
      </trkpt>
      <trkpt lat="44.9882" lon="4.45558">
        <ele>779</ele>
        <time>2015-11-27T08:37:55Z</time>
      </trkpt>
      <trkpt lat="44.98812" lon="4.45555">
        <ele>780</ele>
        <time>2015-11-27T08:38:01Z</time>
      </trkpt>
      <trkpt lat="44.98804" lon="4.45552">
        <ele>781</ele>
        <time>2015-11-27T08:38:06Z</time>
      </trkpt>
      <trkpt lat="44.98798" lon="4.45549">
        <ele>782</ele>
        <time>2015-11-27T08:38:10Z</time>
      </trkpt>
      <trkpt lat="44.98789" lon="4.45548">
        <ele>784</ele>
        <time>2015-11-27T08:38:17Z</time>
      </trkpt>
      <trkpt lat="44.98781" lon="4.45549">
        <ele>786</ele>
        <time>2015-11-27T08:38:23Z</time>
      </trkpt>
      <trkpt lat="44.98774" lon="4.45552">
        <ele>787</ele>
        <time>2015-11-27T08:38:27Z</time>
      </trkpt>
      <trkpt lat="44.98767" lon="4.45553">
        <ele>788</ele>
        <time>2015-11-27T08:38:33Z</time>
      </trkpt>
      <trkpt lat="44.98759" lon="4.45552">
        <ele>790</ele>
        <time>2015-11-27T08:38:39Z</time>
      </trkpt>
      <trkpt lat="44.98749" lon="4.4555">
        <ele>790</ele>
        <time>2015-11-27T08:38:43Z</time>
      </trkpt>
      <trkpt lat="44.9874" lon="4.45553">
        <ele>791</ele>
        <time>2015-11-27T08:38:49Z</time>
      </trkpt>
      <trkpt lat="44.98734" lon="4.45551">
        <ele>791</ele>
        <time>2015-11-27T08:38:55Z</time>
      </trkpt>
      <trkpt lat="44.98726" lon="4.45544">
        <ele>792</ele>
        <time>2015-11-27T08:39:04Z</time>
      </trkpt>
      <trkpt lat="44.98719" lon="4.45547">
        <ele>793</ele>
        <time>2015-11-27T08:39:09Z</time>
      </trkpt>
      <trkpt lat="44.98711" lon="4.45547">
        <ele>793</ele>
        <time>2015-11-27T08:39:13Z</time>
      </trkpt>
      <trkpt lat="44.98704" lon="4.45542">
        <ele>794</ele>
        <time>2015-11-27T08:39:18Z</time>
      </trkpt>
      <trkpt lat="44.98698" lon="4.45539">
        <ele>794</ele>
        <time>2015-11-27T08:39:25Z</time>
      </trkpt>
      <trkpt lat="44.9869" lon="4.45538">
        <ele>794</ele>
        <time>2015-11-27T08:39:29Z</time>
      </trkpt>
      <trkpt lat="44.98684" lon="4.45539">
        <ele>795</ele>
        <time>2015-11-27T08:39:33Z</time>
      </trkpt>
      <trkpt lat="44.98678" lon="4.45544">
        <ele>795</ele>
        <time>2015-11-27T08:39:37Z</time>
      </trkpt>
      <trkpt lat="44.98669" lon="4.4555">
        <ele>795</ele>
        <time>2015-11-27T08:39:41Z</time>
      </trkpt>
      <trkpt lat="44.98664" lon="4.45545">
        <ele>796</ele>
        <time>2015-11-27T08:39:45Z</time>
      </trkpt>
      <trkpt lat="44.98657" lon="4.45539">
        <ele>797</ele>
        <time>2015-11-27T08:39:49Z</time>
      </trkpt>
      <trkpt lat="44.98651" lon="4.45532">
        <ele>798</ele>
        <time>2015-11-27T08:39:53Z</time>
      </trkpt>
      <trkpt lat="44.98646" lon="4.45524">
        <ele>799</ele>
        <time>2015-11-27T08:39:57Z</time>
      </trkpt>
      <trkpt lat="44.98642" lon="4.45516">
        <ele>799</ele>
        <time>2015-11-27T08:40:01Z</time>
      </trkpt>
      <trkpt lat="44.98633" lon="4.45514">
        <ele>800</ele>
        <time>2015-11-27T08:40:07Z</time>
      </trkpt>
      <trkpt lat="44.98629" lon="4.45504">
        <ele>801</ele>
        <time>2015-11-27T08:40:12Z</time>
      </trkpt>
      <trkpt lat="44.98623" lon="4.45496">
        <ele>802</ele>
        <time>2015-11-27T08:40:17Z</time>
      </trkpt>
      <trkpt lat="44.98617" lon="4.45491">
        <ele>802</ele>
        <time>2015-11-27T08:40:20Z</time>
      </trkpt>
      <trkpt lat="44.98612" lon="4.45484">
        <ele>803</ele>
        <time>2015-11-27T08:40:25Z</time>
      </trkpt>
      <trkpt lat="44.98606" lon="4.45478">
        <ele>804</ele>
        <time>2015-11-27T08:40:29Z</time>
      </trkpt>
      <trkpt lat="44.98599" lon="4.45469">
        <ele>805</ele>
        <time>2015-11-27T08:40:33Z</time>
      </trkpt>
      <trkpt lat="44.98594" lon="4.45464">
        <ele>806</ele>
        <time>2015-11-27T08:40:37Z</time>
      </trkpt>
      <trkpt lat="44.98588" lon="4.45471">
        <ele>808</ele>
        <time>2015-11-27T08:40:40Z</time>
      </trkpt>
      <trkpt lat="44.98582" lon="4.45464">
        <ele>808</ele>
        <time>2015-11-27T08:40:46Z</time>
      </trkpt>
      <trkpt lat="44.98578" lon="4.45457">
        <ele>808</ele>
        <time>2015-11-27T08:40:49Z</time>
      </trkpt>
      <trkpt lat="44.98572" lon="4.45448">
        <ele>810</ele>
        <time>2015-11-27T08:40:55Z</time>
      </trkpt>
      <trkpt lat="44.98568" lon="4.4544">
        <ele>811</ele>
        <time>2015-11-27T08:40:59Z</time>
      </trkpt>
      <trkpt lat="44.98563" lon="4.45431">
        <ele>813</ele>
        <time>2015-11-27T08:41:11Z</time>
      </trkpt>
      <trkpt lat="44.98561" lon="4.45421">
        <ele>814</ele>
        <time>2015-11-27T08:41:18Z</time>
      </trkpt>
      <trkpt lat="44.98558" lon="4.4541">
        <ele>814</ele>
        <time>2015-11-27T08:41:23Z</time>
      </trkpt>
      <trkpt lat="44.98556" lon="4.45401">
        <ele>814</ele>
        <time>2015-11-27T08:41:27Z</time>
      </trkpt>
      <trkpt lat="44.98554" lon="4.4539">
        <ele>814</ele>
        <time>2015-11-27T08:41:31Z</time>
      </trkpt>
      <trkpt lat="44.98555" lon="4.45382">
        <ele>814</ele>
        <time>2015-11-27T08:41:35Z</time>
      </trkpt>
      <trkpt lat="44.98553" lon="4.4537">
        <ele>814</ele>
        <time>2015-11-27T08:41:39Z</time>
      </trkpt>
      <trkpt lat="44.98552" lon="4.4536">
        <ele>814</ele>
        <time>2015-11-27T08:41:43Z</time>
      </trkpt>
      <trkpt lat="44.9855" lon="4.4535">
        <ele>814</ele>
        <time>2015-11-27T08:41:47Z</time>
      </trkpt>
      <trkpt lat="44.98548" lon="4.45341">
        <ele>814</ele>
        <time>2015-11-27T08:41:53Z</time>
      </trkpt>
      <trkpt lat="44.98547" lon="4.4533">
        <ele>814</ele>
        <time>2015-11-27T08:41:59Z</time>
      </trkpt>
      <trkpt lat="44.98546" lon="4.45322">
        <ele>814</ele>
        <time>2015-11-27T08:42:03Z</time>
      </trkpt>
      <trkpt lat="44.98544" lon="4.45311">
        <ele>814</ele>
        <time>2015-11-27T08:42:09Z</time>
      </trkpt>
      <trkpt lat="44.98544" lon="4.45302">
        <ele>814</ele>
        <time>2015-11-27T08:42:13Z</time>
      </trkpt>
      <trkpt lat="44.98543" lon="4.45292">
        <ele>814</ele>
        <time>2015-11-27T08:42:17Z</time>
      </trkpt>
      <trkpt lat="44.98544" lon="4.45282">
        <ele>814</ele>
        <time>2015-11-27T08:42:21Z</time>
      </trkpt>
      <trkpt lat="44.98544" lon="4.45272">
        <ele>814</ele>
        <time>2015-11-27T08:42:27Z</time>
      </trkpt>
      <trkpt lat="44.98543" lon="4.4526">
        <ele>814</ele>
        <time>2015-11-27T08:42:33Z</time>
      </trkpt>
      <trkpt lat="44.98542" lon="4.45248">
        <ele>814</ele>
        <time>2015-11-27T08:42:37Z</time>
      </trkpt>
      <trkpt lat="44.98542" lon="4.45239">
        <ele>814</ele>
        <time>2015-11-27T08:42:40Z</time>
      </trkpt>
      <trkpt lat="44.98544" lon="4.45224">
        <ele>814</ele>
        <time>2015-11-27T08:42:45Z</time>
      </trkpt>
      <trkpt lat="44.98545" lon="4.45215">
        <ele>814</ele>
        <time>2015-11-27T08:42:49Z</time>
      </trkpt>
      <trkpt lat="44.98546" lon="4.45205">
        <ele>814</ele>
        <time>2015-11-27T08:42:52Z</time>
      </trkpt>
      <trkpt lat="44.98547" lon="4.45198">
        <ele>814</ele>
        <time>2015-11-27T08:42:55Z</time>
      </trkpt>
      <trkpt lat="44.98547" lon="4.45186">
        <ele>814</ele>
        <time>2015-11-27T08:42:59Z</time>
      </trkpt>
      <trkpt lat="44.98547" lon="4.45168">
        <ele>813</ele>
        <time>2015-11-27T08:43:04Z</time>
      </trkpt>
      <trkpt lat="44.98546" lon="4.45156">
        <ele>813</ele>
        <time>2015-11-27T08:43:07Z</time>
      </trkpt>
      <trkpt lat="44.98547" lon="4.45144">
        <ele>813</ele>
        <time>2015-11-27T08:43:11Z</time>
      </trkpt>
      <trkpt lat="44.9855" lon="4.45137">
        <ele>813</ele>
        <time>2015-11-27T08:43:15Z</time>
      </trkpt>
      <trkpt lat="44.98549" lon="4.45124">
        <ele>813</ele>
        <time>2015-11-27T08:43:19Z</time>
      </trkpt>
      <trkpt lat="44.98547" lon="4.4511">
        <ele>813</ele>
        <time>2015-11-27T08:43:23Z</time>
      </trkpt>
      <trkpt lat="44.98545" lon="4.45096">
        <ele>814</ele>
        <time>2015-11-27T08:43:27Z</time>
      </trkpt>
      <trkpt lat="44.98543" lon="4.45084">
        <ele>814</ele>
        <time>2015-11-27T08:43:31Z</time>
      </trkpt>
      <trkpt lat="44.98542" lon="4.45074">
        <ele>814</ele>
        <time>2015-11-27T08:43:35Z</time>
      </trkpt>
      <trkpt lat="44.98539" lon="4.45064">
        <ele>814</ele>
        <time>2015-11-27T08:43:39Z</time>
      </trkpt>
      <trkpt lat="44.98537" lon="4.45054">
        <ele>814</ele>
        <time>2015-11-27T08:43:43Z</time>
      </trkpt>
      <trkpt lat="44.98533" lon="4.45043">
        <ele>813</ele>
        <time>2015-11-27T08:43:47Z</time>
      </trkpt>
      <trkpt lat="44.98531" lon="4.45031">
        <ele>813</ele>
        <time>2015-11-27T08:43:51Z</time>
      </trkpt>
      <trkpt lat="44.98528" lon="4.4502">
        <ele>813</ele>
        <time>2015-11-27T08:43:55Z</time>
      </trkpt>
      <trkpt lat="44.98526" lon="4.45009">
        <ele>813</ele>
        <time>2015-11-27T08:43:58Z</time>
      </trkpt>
      <trkpt lat="44.98521" lon="4.4499">
        <ele>813</ele>
        <time>2015-11-27T08:44:03Z</time>
      </trkpt>
      <trkpt lat="44.98518" lon="4.44977">
        <ele>813</ele>
        <time>2015-11-27T08:44:07Z</time>
      </trkpt>
      <trkpt lat="44.98515" lon="4.44963">
        <ele>812</ele>
        <time>2015-11-27T08:44:11Z</time>
      </trkpt>
      <trkpt lat="44.98512" lon="4.44949">
        <ele>812</ele>
        <time>2015-11-27T08:44:15Z</time>
      </trkpt>
      <trkpt lat="44.98511" lon="4.44939">
        <ele>812</ele>
        <time>2015-11-27T08:44:19Z</time>
      </trkpt>
      <trkpt lat="44.98508" lon="4.44931">
        <ele>812</ele>
        <time>2015-11-27T08:44:22Z</time>
      </trkpt>
      <trkpt lat="44.98505" lon="4.4492">
        <ele>811</ele>
        <time>2015-11-27T08:44:26Z</time>
      </trkpt>
      <trkpt lat="44.98502" lon="4.44906">
        <ele>811</ele>
        <time>2015-11-27T08:44:31Z</time>
      </trkpt>
      <trkpt lat="44.98502" lon="4.44896">
        <ele>810</ele>
        <time>2015-11-27T08:44:35Z</time>
      </trkpt>
      <trkpt lat="44.98503" lon="4.44884">
        <ele>809</ele>
        <time>2015-11-27T08:44:41Z</time>
      </trkpt>
      <trkpt lat="44.98503" lon="4.44875">
        <ele>809</ele>
        <time>2015-11-27T08:44:46Z</time>
      </trkpt>
      <trkpt lat="44.98502" lon="4.44865">
        <ele>808</ele>
        <time>2015-11-27T08:44:51Z</time>
      </trkpt>
      <trkpt lat="44.98503" lon="4.44855">
        <ele>808</ele>
        <time>2015-11-27T08:44:55Z</time>
      </trkpt>
      <trkpt lat="44.98505" lon="4.44845">
        <ele>807</ele>
        <time>2015-11-27T08:44:59Z</time>
      </trkpt>
      <trkpt lat="44.98506" lon="4.44836">
        <ele>807</ele>
        <time>2015-11-27T08:45:03Z</time>
      </trkpt>
      <trkpt lat="44.98507" lon="4.44824">
        <ele>807</ele>
        <time>2015-11-27T08:45:09Z</time>
      </trkpt>
      <trkpt lat="44.98504" lon="4.44812">
        <ele>806</ele>
        <time>2015-11-27T08:45:15Z</time>
      </trkpt>
      <trkpt lat="44.98499" lon="4.44803">
        <ele>805</ele>
        <time>2015-11-27T08:45:21Z</time>
      </trkpt>
      <trkpt lat="44.98494" lon="4.44796">
        <ele>805</ele>
        <time>2015-11-27T08:45:25Z</time>
      </trkpt>
      <trkpt lat="44.98489" lon="4.44786">
        <ele>805</ele>
        <time>2015-11-27T08:45:29Z</time>
      </trkpt>
      <trkpt lat="44.98485" lon="4.44779">
        <ele>805</ele>
        <time>2015-11-27T08:45:33Z</time>
      </trkpt>
      <trkpt lat="44.98479" lon="4.44774">
        <ele>804</ele>
        <time>2015-11-27T08:45:37Z</time>
      </trkpt>
      <trkpt lat="44.98477" lon="4.44763">
        <ele>804</ele>
        <time>2015-11-27T08:45:43Z</time>
      </trkpt>
      <trkpt lat="44.98473" lon="4.44752">
        <ele>803</ele>
        <time>2015-11-27T08:45:51Z</time>
      </trkpt>
      <trkpt lat="44.98468" lon="4.44742">
        <ele>802</ele>
        <time>2015-11-27T08:45:59Z</time>
      </trkpt>
      <trkpt lat="44.98467" lon="4.44731">
        <ele>803</ele>
        <time>2015-11-27T08:46:04Z</time>
      </trkpt>
      <trkpt lat="44.98464" lon="4.4472">
        <ele>803</ele>
        <time>2015-11-27T08:46:09Z</time>
      </trkpt>
      <trkpt lat="44.9846" lon="4.4471">
        <ele>803</ele>
        <time>2015-11-27T08:46:13Z</time>
      </trkpt>
      <trkpt lat="44.98457" lon="4.44702">
        <ele>802</ele>
        <time>2015-11-27T08:46:17Z</time>
      </trkpt>
      <trkpt lat="44.98455" lon="4.4469">
        <ele>802</ele>
        <time>2015-11-27T08:46:24Z</time>
      </trkpt>
      <trkpt lat="44.98452" lon="4.44679">
        <ele>802</ele>
        <time>2015-11-27T08:46:30Z</time>
      </trkpt>
      <trkpt lat="44.98447" lon="4.44669">
        <ele>802</ele>
        <time>2015-11-27T08:46:37Z</time>
      </trkpt>
      <trkpt lat="44.98441" lon="4.44661">
        <ele>802</ele>
        <time>2015-11-27T08:46:42Z</time>
      </trkpt>
      <trkpt lat="44.98436" lon="4.44653">
        <ele>802</ele>
        <time>2015-11-27T08:46:47Z</time>
      </trkpt>
      <trkpt lat="44.98431" lon="4.44647">
        <ele>802</ele>
        <time>2015-11-27T08:46:51Z</time>
      </trkpt>
      <trkpt lat="44.98424" lon="4.44641">
        <ele>801</ele>
        <time>2015-11-27T08:46:57Z</time>
      </trkpt>
      <trkpt lat="44.98418" lon="4.44633">
        <ele>802</ele>
        <time>2015-11-27T08:47:01Z</time>
      </trkpt>
      <trkpt lat="44.9841" lon="4.44628">
        <ele>802</ele>
        <time>2015-11-27T08:47:06Z</time>
      </trkpt>
      <trkpt lat="44.98405" lon="4.44626">
        <ele>802</ele>
        <time>2015-11-27T08:47:10Z</time>
      </trkpt>
      <trkpt lat="44.98396" lon="4.44624">
        <ele>801</ele>
        <time>2015-11-27T08:47:16Z</time>
      </trkpt>
      <trkpt lat="44.98388" lon="4.44618">
        <ele>801</ele>
        <time>2015-11-27T08:47:21Z</time>
      </trkpt>
      <trkpt lat="44.98383" lon="4.4461">
        <ele>802</ele>
        <time>2015-11-27T08:47:25Z</time>
      </trkpt>
      <trkpt lat="44.98376" lon="4.44607">
        <ele>802</ele>
        <time>2015-11-27T08:47:31Z</time>
      </trkpt>
      <trkpt lat="44.98369" lon="4.44603">
        <ele>802</ele>
        <time>2015-11-27T08:47:36Z</time>
      </trkpt>
      <trkpt lat="44.98364" lon="4.44599">
        <ele>802</ele>
        <time>2015-11-27T08:47:40Z</time>
      </trkpt>
      <trkpt lat="44.98357" lon="4.44594">
        <ele>802</ele>
        <time>2015-11-27T08:47:46Z</time>
      </trkpt>
      <trkpt lat="44.9835" lon="4.44588">
        <ele>802</ele>
        <time>2015-11-27T08:47:55Z</time>
      </trkpt>
      <trkpt lat="44.98342" lon="4.44582">
        <ele>802</ele>
        <time>2015-11-27T08:48:01Z</time>
      </trkpt>
      <trkpt lat="44.98339" lon="4.44571">
        <ele>802</ele>
        <time>2015-11-27T08:48:07Z</time>
      </trkpt>
      <trkpt lat="44.98335" lon="4.44564">
        <ele>802</ele>
        <time>2015-11-27T08:48:11Z</time>
      </trkpt>
      <trkpt lat="44.98328" lon="4.44559">
        <ele>802</ele>
        <time>2015-11-27T08:48:15Z</time>
      </trkpt>
      <trkpt lat="44.98322" lon="4.4455">
        <ele>801</ele>
        <time>2015-11-27T08:48:21Z</time>
      </trkpt>
      <trkpt lat="44.98315" lon="4.44546">
        <ele>801</ele>
        <time>2015-11-27T08:48:28Z</time>
      </trkpt>
      <trkpt lat="44.98308" lon="4.4454">
        <ele>801</ele>
        <time>2015-11-27T08:48:33Z</time>
      </trkpt>
      <trkpt lat="44.98303" lon="4.44536">
        <ele>801</ele>
        <time>2015-11-27T08:48:37Z</time>
      </trkpt>
      <trkpt lat="44.98296" lon="4.44533">
        <ele>801</ele>
        <time>2015-11-27T08:48:40Z</time>
      </trkpt>
      <trkpt lat="44.98288" lon="4.44533">
        <ele>801</ele>
        <time>2015-11-27T08:48:46Z</time>
      </trkpt>
      <trkpt lat="44.9828" lon="4.44533">
        <ele>801</ele>
        <time>2015-11-27T08:48:54Z</time>
      </trkpt>
      <trkpt lat="44.98273" lon="4.44533">
        <ele>802</ele>
        <time>2015-11-27T08:48:58Z</time>
      </trkpt>
      <trkpt lat="44.98265" lon="4.44532">
        <ele>802</ele>
        <time>2015-11-27T08:49:02Z</time>
      </trkpt>
      <trkpt lat="44.98259" lon="4.4453">
        <ele>803</ele>
        <time>2015-11-27T08:49:06Z</time>
      </trkpt>
      <trkpt lat="44.98254" lon="4.44522">
        <ele>807</ele>
        <time>2015-11-27T08:49:15Z</time>
      </trkpt>
      <trkpt lat="44.98247" lon="4.44515">
        <ele>808</ele>
        <time>2015-11-27T08:49:19Z</time>
      </trkpt>
      <trkpt lat="44.9824" lon="4.4451">
        <ele>810</ele>
        <time>2015-11-27T08:49:26Z</time>
      </trkpt>
      <trkpt lat="44.9823" lon="4.44509">
        <ele>811</ele>
        <time>2015-11-27T08:49:31Z</time>
      </trkpt>
      <trkpt lat="44.98222" lon="4.4451">
        <ele>813</ele>
        <time>2015-11-27T08:49:37Z</time>
      </trkpt>
      <trkpt lat="44.98214" lon="4.44507">
        <ele>815</ele>
        <time>2015-11-27T08:49:44Z</time>
      </trkpt>
      <trkpt lat="44.98206" lon="4.44508">
        <ele>816</ele>
        <time>2015-11-27T08:49:48Z</time>
      </trkpt>
      <trkpt lat="44.98198" lon="4.44508">
        <ele>817</ele>
        <time>2015-11-27T08:49:52Z</time>
      </trkpt>
      <trkpt lat="44.98191" lon="4.44507">
        <ele>819</ele>
        <time>2015-11-27T08:49:58Z</time>
      </trkpt>
      <trkpt lat="44.98185" lon="4.44503">
        <ele>821</ele>
        <time>2015-11-27T08:50:02Z</time>
      </trkpt>
      <trkpt lat="44.98165" lon="4.44499">
        <ele>824</ele>
        <time>2015-11-27T08:50:06Z</time>
      </trkpt>
      <trkpt lat="44.98154" lon="4.44497">
        <ele>825</ele>
        <time>2015-11-27T08:50:10Z</time>
      </trkpt>
      <trkpt lat="44.98148" lon="4.44496">
        <ele>827</ele>
        <time>2015-11-27T08:50:13Z</time>
      </trkpt>
      <trkpt lat="44.98141" lon="4.44498">
        <ele>828</ele>
        <time>2015-11-27T08:50:18Z</time>
      </trkpt>
      <trkpt lat="44.98133" lon="4.445">
        <ele>830</ele>
        <time>2015-11-27T08:50:24Z</time>
      </trkpt>
      <trkpt lat="44.98127" lon="4.44499">
        <ele>832</ele>
        <time>2015-11-27T08:50:30Z</time>
      </trkpt>
      <trkpt lat="44.98118" lon="4.44496">
        <ele>833</ele>
        <time>2015-11-27T08:50:34Z</time>
      </trkpt>
      <trkpt lat="44.98111" lon="4.44493">
        <ele>833</ele>
        <time>2015-11-27T08:50:38Z</time>
      </trkpt>
      <trkpt lat="44.98106" lon="4.44491">
        <ele>834</ele>
        <time>2015-11-27T08:50:42Z</time>
      </trkpt>
      <trkpt lat="44.981" lon="4.44489">
        <ele>834</ele>
        <time>2015-11-27T08:50:50Z</time>
      </trkpt>
      <trkpt lat="44.98092" lon="4.44489">
        <ele>837</ele>
        <time>2015-11-27T08:50:54Z</time>
      </trkpt>
      <trkpt lat="44.98079" lon="4.44488">
        <ele>840</ele>
        <time>2015-11-27T08:50:59Z</time>
      </trkpt>
      <trkpt lat="44.98072" lon="4.44484">
        <ele>843</ele>
        <time>2015-11-27T08:51:03Z</time>
      </trkpt>
      <trkpt lat="44.98065" lon="4.44484">
        <ele>846</ele>
        <time>2015-11-27T08:51:08Z</time>
      </trkpt>
      <trkpt lat="44.98057" lon="4.44489">
        <ele>853</ele>
        <time>2015-11-27T08:51:21Z</time>
      </trkpt>
      <trkpt lat="44.98049" lon="4.44492">
        <ele>856</ele>
        <time>2015-11-27T08:51:28Z</time>
      </trkpt>
      <trkpt lat="44.98045" lon="4.44498">
        <ele>858</ele>
        <time>2015-11-27T08:51:32Z</time>
      </trkpt>
      <trkpt lat="44.98041" lon="4.44509">
        <ele>863</ele>
        <time>2015-11-27T08:51:39Z</time>
      </trkpt>
      <trkpt lat="44.98048" lon="4.44506">
        <ele>876</ele>
        <time>2015-11-27T08:52:12Z</time>
      </trkpt>
      <trkpt lat="44.98056" lon="4.44503">
        <ele>878</ele>
        <time>2015-11-27T08:52:17Z</time>
      </trkpt>
      <trkpt lat="44.98058" lon="4.44493">
        <ele>894</ele>
        <time>2015-11-27T08:52:38Z</time>
      </trkpt>
      <trkpt lat="44.98058" lon="4.44484">
        <ele>898</ele>
        <time>2015-11-27T08:52:46Z</time>
      </trkpt>
      <trkpt lat="44.98058" lon="4.44473">
        <ele>902</ele>
        <time>2015-11-27T08:52:52Z</time>
      </trkpt>
      <trkpt lat="44.98061" lon="4.44461">
        <ele>904</ele>
        <time>2015-11-27T08:52:58Z</time>
      </trkpt>
      <trkpt lat="44.98064" lon="4.44453">
        <ele>905</ele>
        <time>2015-11-27T08:53:03Z</time>
      </trkpt>
      <trkpt lat="44.98061" lon="4.44443">
        <ele>907</ele>
        <time>2015-11-27T08:53:07Z</time>
      </trkpt>
      <trkpt lat="44.98063" lon="4.44431">
        <ele>910</ele>
        <time>2015-11-27T08:53:17Z</time>
      </trkpt>
      <trkpt lat="44.98072" lon="4.44426">
        <ele>911</ele>
        <time>2015-11-27T08:53:22Z</time>
      </trkpt>
      <trkpt lat="44.98078" lon="4.44417">
        <ele>914</ele>
        <time>2015-11-27T08:53:32Z</time>
      </trkpt>
      <trkpt lat="44.98084" lon="4.44409">
        <ele>918</ele>
        <time>2015-11-27T08:53:47Z</time>
      </trkpt>
      <trkpt lat="44.98087" lon="4.444">
        <ele>920</ele>
        <time>2015-11-27T08:53:58Z</time>
      </trkpt>
      <trkpt lat="44.98088" lon="4.44389">
        <ele>922</ele>
        <time>2015-11-27T08:54:07Z</time>
      </trkpt>
      <trkpt lat="44.98085" lon="4.44378">
        <ele>923</ele>
        <time>2015-11-27T08:54:13Z</time>
      </trkpt>
      <trkpt lat="44.98082" lon="4.44371">
        <ele>923</ele>
        <time>2015-11-27T08:54:18Z</time>
      </trkpt>
      <trkpt lat="44.9808" lon="4.44308">
        <ele>924</ele>
        <time>2015-11-27T08:54:23Z</time>
      </trkpt>
      <trkpt lat="44.9808" lon="4.44315">
        <ele>924</ele>
        <time>2015-11-27T08:54:28Z</time>
      </trkpt>
      <trkpt lat="44.98073" lon="4.44321">
        <ele>924</ele>
        <time>2015-11-27T08:54:32Z</time>
      </trkpt>
      <trkpt lat="44.98065" lon="4.44319">
        <ele>925</ele>
        <time>2015-11-27T08:54:37Z</time>
      </trkpt>
      <trkpt lat="44.98058" lon="4.44318">
        <ele>925</ele>
        <time>2015-11-27T08:54:42Z</time>
      </trkpt>
      <trkpt lat="44.98053" lon="4.44317">
        <ele>927</ele>
        <time>2015-11-27T08:54:46Z</time>
      </trkpt>
      <trkpt lat="44.98043" lon="4.44316">
        <ele>928</ele>
        <time>2015-11-27T08:54:49Z</time>
      </trkpt>
      <trkpt lat="44.98036" lon="4.4431">
        <ele>929</ele>
        <time>2015-11-27T08:54:55Z</time>
      </trkpt>
      <trkpt lat="44.98029" lon="4.44306">
        <ele>931</ele>
        <time>2015-11-27T08:55:00Z</time>
      </trkpt>
      <trkpt lat="44.9802" lon="4.44309">
        <ele>932</ele>
        <time>2015-11-27T08:55:04Z</time>
      </trkpt>
      <trkpt lat="44.98002" lon="4.4429">
        <ele>936</ele>
        <time>2015-11-27T08:55:09Z</time>
      </trkpt>
      <trkpt lat="44.98005" lon="4.44295">
        <ele>939</ele>
        <time>2015-11-27T08:55:13Z</time>
      </trkpt>
      <trkpt lat="44.98007" lon="4.44304">
        <ele>940</ele>
        <time>2015-11-27T08:55:20Z</time>
      </trkpt>
      <trkpt lat="44.98011" lon="4.44314">
        <ele>948</ele>
        <time>2015-11-27T08:55:37Z</time>
      </trkpt>
      <trkpt lat="44.98018" lon="4.44321">
        <ele>951</ele>
        <time>2015-11-27T08:55:43Z</time>
      </trkpt>
      <trkpt lat="44.9802" lon="4.4433">
        <ele>951</ele>
        <time>2015-11-27T08:55:47Z</time>
      </trkpt>
      <trkpt lat="44.98027" lon="4.44333">
        <ele>952</ele>
        <time>2015-11-27T08:56:05Z</time>
      </trkpt>
      <trkpt lat="44.9803" lon="4.44343">
        <ele>958</ele>
        <time>2015-11-27T08:56:28Z</time>
      </trkpt>
      <trkpt lat="44.98036" lon="4.44352">
        <ele>957</ele>
        <time>2015-11-27T08:56:36Z</time>
      </trkpt>
      <trkpt lat="44.98041" lon="4.44362">
        <ele>957</ele>
        <time>2015-11-27T08:56:42Z</time>
      </trkpt>
      <trkpt lat="44.98044" lon="4.4437">
        <ele>957</ele>
        <time>2015-11-27T08:56:50Z</time>
      </trkpt>
      <trkpt lat="44.98041" lon="4.44382">
        <ele>957</ele>
        <time>2015-11-27T08:57:02Z</time>
      </trkpt>
      <trkpt lat="44.98036" lon="4.44391">
        <ele>957</ele>
        <time>2015-11-27T08:57:09Z</time>
      </trkpt>
      <trkpt lat="44.98032" lon="4.44401">
        <ele>956</ele>
        <time>2015-11-27T08:57:19Z</time>
      </trkpt>
      <trkpt lat="44.98029" lon="4.44408">
        <ele>955</ele>
        <time>2015-11-27T08:57:24Z</time>
      </trkpt>
      <trkpt lat="44.98027" lon="4.44419">
        <ele>955</ele>
        <time>2015-11-27T08:57:29Z</time>
      </trkpt>
      <trkpt lat="44.98023" lon="4.44429">
        <ele>954</ele>
        <time>2015-11-27T08:57:36Z</time>
      </trkpt>
      <trkpt lat="44.98018" lon="4.4444">
        <ele>953</ele>
        <time>2015-11-27T08:57:48Z</time>
      </trkpt>
      <trkpt lat="44.98016" lon="4.44451">
        <ele>952</ele>
        <time>2015-11-27T08:57:56Z</time>
      </trkpt>
      <trkpt lat="44.98014" lon="4.44462">
        <ele>952</ele>
        <time>2015-11-27T08:58:01Z</time>
      </trkpt>
      <trkpt lat="44.98012" lon="4.44472">
        <ele>951</ele>
        <time>2015-11-27T08:58:08Z</time>
      </trkpt>
      <trkpt lat="44.9801" lon="4.4448">
        <ele>950</ele>
        <time>2015-11-27T08:58:13Z</time>
      </trkpt>
      <trkpt lat="44.98003" lon="4.44492">
        <ele>950</ele>
        <time>2015-11-27T08:58:18Z</time>
      </trkpt>
      <trkpt lat="44.97996" lon="4.44502">
        <ele>949</ele>
        <time>2015-11-27T08:58:22Z</time>
      </trkpt>
      <trkpt lat="44.97992" lon="4.44509">
        <ele>950</ele>
        <time>2015-11-27T08:58:25Z</time>
      </trkpt>
      <trkpt lat="44.97988" lon="4.4452">
        <ele>950</ele>
        <time>2015-11-27T08:58:32Z</time>
      </trkpt>
      <trkpt lat="44.97983" lon="4.44525">
        <ele>949</ele>
        <time>2015-11-27T08:58:37Z</time>
      </trkpt>
      <trkpt lat="44.97978" lon="4.44536">
        <ele>949</ele>
        <time>2015-11-27T08:58:41Z</time>
      </trkpt>
      <trkpt lat="44.97973" lon="4.44541">
        <ele>949</ele>
        <time>2015-11-27T08:58:44Z</time>
      </trkpt>
      <trkpt lat="44.97969" lon="4.44551">
        <ele>949</ele>
        <time>2015-11-27T08:58:50Z</time>
      </trkpt>
      <trkpt lat="44.97963" lon="4.44559">
        <ele>950</ele>
        <time>2015-11-27T08:58:54Z</time>
      </trkpt>
      <trkpt lat="44.97955" lon="4.44561">
        <ele>951</ele>
        <time>2015-11-27T08:58:59Z</time>
      </trkpt>
      <trkpt lat="44.97948" lon="4.44565">
        <ele>952</ele>
        <time>2015-11-27T08:59:08Z</time>
      </trkpt>
      <trkpt lat="44.97941" lon="4.44568">
        <ele>952</ele>
        <time>2015-11-27T08:59:18Z</time>
      </trkpt>
      <trkpt lat="44.97934" lon="4.44575">
        <ele>952</ele>
        <time>2015-11-27T08:59:29Z</time>
      </trkpt>
      <trkpt lat="44.97927" lon="4.44572">
        <ele>952</ele>
        <time>2015-11-27T08:59:42Z</time>
      </trkpt>
      <trkpt lat="44.97922" lon="4.44575">
        <ele>952</ele>
        <time>2015-11-27T08:59:50Z</time>
      </trkpt>
      <trkpt lat="44.97915" lon="4.44583">
        <ele>952</ele>
        <time>2015-11-27T08:59:54Z</time>
      </trkpt>
      <trkpt lat="44.97912" lon="4.44594">
        <ele>952</ele>
        <time>2015-11-27T09:00:00Z</time>
      </trkpt>
      <trkpt lat="44.97909" lon="4.446">
        <ele>952</ele>
        <time>2015-11-27T09:00:03Z</time>
      </trkpt>
      <trkpt lat="44.97902" lon="4.44609">
        <ele>952</ele>
        <time>2015-11-27T09:00:08Z</time>
      </trkpt>
      <trkpt lat="44.97894" lon="4.44625">
        <ele>952</ele>
        <time>2015-11-27T09:00:12Z</time>
      </trkpt>
      <trkpt lat="44.97888" lon="4.44634">
        <ele>952</ele>
        <time>2015-11-27T09:00:16Z</time>
      </trkpt>
      <trkpt lat="44.97883" lon="4.4464">
        <ele>952</ele>
        <time>2015-11-27T09:00:18Z</time>
      </trkpt>
      <trkpt lat="44.97881" lon="4.44651">
        <ele>952</ele>
        <time>2015-11-27T09:00:24Z</time>
      </trkpt>
      <trkpt lat="44.97876" lon="4.44662">
        <ele>952</ele>
        <time>2015-11-27T09:00:27Z</time>
      </trkpt>
      <trkpt lat="44.97871" lon="4.4467">
        <ele>952</ele>
        <time>2015-11-27T09:00:33Z</time>
      </trkpt>
      <trkpt lat="44.97867" lon="4.44677">
        <ele>951</ele>
        <time>2015-11-27T09:00:40Z</time>
      </trkpt>
      <trkpt lat="44.97865" lon="4.44684">
        <ele>951</ele>
        <time>2015-11-27T09:00:43Z</time>
      </trkpt>
      <trkpt lat="44.9786" lon="4.44694">
        <ele>952</ele>
        <time>2015-11-27T09:00:48Z</time>
      </trkpt>
      <trkpt lat="44.97857" lon="4.44705">
        <ele>952</ele>
        <time>2015-11-27T09:00:53Z</time>
      </trkpt>
      <trkpt lat="44.9785" lon="4.44712">
        <ele>952</ele>
        <time>2015-11-27T09:01:00Z</time>
      </trkpt>
      <trkpt lat="44.97846" lon="4.44721">
        <ele>952</ele>
        <time>2015-11-27T09:01:04Z</time>
      </trkpt>
      <trkpt lat="44.9784" lon="4.44726">
        <ele>952</ele>
        <time>2015-11-27T09:01:08Z</time>
      </trkpt>
      <trkpt lat="44.97836" lon="4.44732">
        <ele>952</ele>
        <time>2015-11-27T09:01:14Z</time>
      </trkpt>
      <trkpt lat="44.97831" lon="4.44741">
        <ele>952</ele>
        <time>2015-11-27T09:01:18Z</time>
      </trkpt>
      <trkpt lat="44.97827" lon="4.4475">
        <ele>951</ele>
        <time>2015-11-27T09:01:25Z</time>
      </trkpt>
      <trkpt lat="44.97819" lon="4.44757">
        <ele>951</ele>
        <time>2015-11-27T09:01:29Z</time>
      </trkpt>
      <trkpt lat="44.97813" lon="4.44764">
        <ele>951</ele>
        <time>2015-11-27T09:01:33Z</time>
      </trkpt>
      <trkpt lat="44.97808" lon="4.44775">
        <ele>951</ele>
        <time>2015-11-27T09:01:38Z</time>
      </trkpt>
      <trkpt lat="44.97804" lon="4.44784">
        <ele>951</ele>
        <time>2015-11-27T09:01:42Z</time>
      </trkpt>
      <trkpt lat="44.97799" lon="4.44792">
        <ele>951</ele>
        <time>2015-11-27T09:01:46Z</time>
      </trkpt>
      <trkpt lat="44.97792" lon="4.44808">
        <ele>951</ele>
        <time>2015-11-27T09:01:51Z</time>
      </trkpt>
      <trkpt lat="44.9779" lon="4.44819">
        <ele>951</ele>
        <time>2015-11-27T09:01:55Z</time>
      </trkpt>
      <trkpt lat="44.97784" lon="4.44828">
        <ele>950</ele>
        <time>2015-11-27T09:01:59Z</time>
      </trkpt>
      <trkpt lat="44.97776" lon="4.44832">
        <ele>950</ele>
        <time>2015-11-27T09:02:04Z</time>
      </trkpt>
      <trkpt lat="44.9777" lon="4.44838">
        <ele>950</ele>
        <time>2015-11-27T09:02:07Z</time>
      </trkpt>
      <trkpt lat="44.97763" lon="4.44848">
        <ele>949</ele>
        <time>2015-11-27T09:02:11Z</time>
      </trkpt>
      <trkpt lat="44.9776" lon="4.4486">
        <ele>949</ele>
        <time>2015-11-27T09:02:15Z</time>
      </trkpt>
      <trkpt lat="44.97759" lon="4.44871">
        <ele>949</ele>
        <time>2015-11-27T09:02:19Z</time>
      </trkpt>
      <trkpt lat="44.97754" lon="4.4489">
        <ele>949</ele>
        <time>2015-11-27T09:02:23Z</time>
      </trkpt>
      <trkpt lat="44.97751" lon="4.44903">
        <ele>949</ele>
        <time>2015-11-27T09:02:27Z</time>
      </trkpt>
      <trkpt lat="44.97747" lon="4.44915">
        <ele>948</ele>
        <time>2015-11-27T09:02:31Z</time>
      </trkpt>
      <trkpt lat="44.97743" lon="4.44922">
        <ele>948</ele>
        <time>2015-11-27T09:02:35Z</time>
      </trkpt>
      <trkpt lat="44.97737" lon="4.4493">
        <ele>948</ele>
        <time>2015-11-27T09:02:41Z</time>
      </trkpt>
      <trkpt lat="44.97733" lon="4.4494">
        <ele>947</ele>
        <time>2015-11-27T09:02:49Z</time>
      </trkpt>
      <trkpt lat="44.97729" lon="4.44946">
        <ele>947</ele>
        <time>2015-11-27T09:02:53Z</time>
      </trkpt>
      <trkpt lat="44.97724" lon="4.44954">
        <ele>947</ele>
        <time>2015-11-27T09:02:56Z</time>
      </trkpt>
      <trkpt lat="44.97718" lon="4.44962">
        <ele>947</ele>
        <time>2015-11-27T09:03:01Z</time>
      </trkpt>
      <trkpt lat="44.97711" lon="4.44965">
        <ele>947</ele>
        <time>2015-11-27T09:03:05Z</time>
      </trkpt>
      <trkpt lat="44.97706" lon="4.4497">
        <ele>947</ele>
        <time>2015-11-27T09:03:08Z</time>
      </trkpt>
      <trkpt lat="44.977" lon="4.44975">
        <ele>946</ele>
        <time>2015-11-27T09:03:12Z</time>
      </trkpt>
      <trkpt lat="44.9768" lon="4.44985">
        <ele>947</ele>
        <time>2015-11-27T09:03:16Z</time>
      </trkpt>
      <trkpt lat="44.97671" lon="4.4499">
        <ele>946</ele>
        <time>2015-11-27T09:03:21Z</time>
      </trkpt>
      <trkpt lat="44.97662" lon="4.44993">
        <ele>945</ele>
        <time>2015-11-27T09:03:25Z</time>
      </trkpt>
      <trkpt lat="44.97654" lon="4.45001">
        <ele>945</ele>
        <time>2015-11-27T09:03:29Z</time>
      </trkpt>
      <trkpt lat="44.97646" lon="4.45012">
        <ele>944</ele>
        <time>2015-11-27T09:03:34Z</time>
      </trkpt>
      <trkpt lat="44.97638" lon="4.45027">
        <ele>943</ele>
        <time>2015-11-27T09:03:39Z</time>
      </trkpt>
      <trkpt lat="44.97632" lon="4.45042">
        <ele>942</ele>
        <time>2015-11-27T09:03:44Z</time>
      </trkpt>
      <trkpt lat="44.97625" lon="4.45053">
        <ele>942</ele>
        <time>2015-11-27T09:03:48Z</time>
      </trkpt>
      <trkpt lat="44.9762" lon="4.45064">
        <ele>941</ele>
        <time>2015-11-27T09:03:51Z</time>
      </trkpt>
      <trkpt lat="44.97616" lon="4.45077">
        <ele>941</ele>
        <time>2015-11-27T09:03:55Z</time>
      </trkpt>
      <trkpt lat="44.97613" lon="4.45084">
        <ele>941</ele>
        <time>2015-11-27T09:03:58Z</time>
      </trkpt>
      <trkpt lat="44.97608" lon="4.45093">
        <ele>941</ele>
        <time>2015-11-27T09:04:02Z</time>
      </trkpt>
      <trkpt lat="44.97603" lon="4.45103">
        <ele>940</ele>
        <time>2015-11-27T09:04:06Z</time>
      </trkpt>
      <trkpt lat="44.97593" lon="4.4512">
        <ele>940</ele>
        <time>2015-11-27T09:04:11Z</time>
      </trkpt>
      <trkpt lat="44.97588" lon="4.45131">
        <ele>940</ele>
        <time>2015-11-27T09:04:13Z</time>
      </trkpt>
      <trkpt lat="44.97582" lon="4.4514">
        <ele>939</ele>
        <time>2015-11-27T09:04:17Z</time>
      </trkpt>
      <trkpt lat="44.97577" lon="4.45148">
        <ele>939</ele>
        <time>2015-11-27T09:04:23Z</time>
      </trkpt>
      <trkpt lat="44.97574" lon="4.45154">
        <ele>938</ele>
        <time>2015-11-27T09:04:28Z</time>
      </trkpt>
      <trkpt lat="44.97568" lon="4.45165">
        <ele>938</ele>
        <time>2015-11-27T09:04:32Z</time>
      </trkpt>
      <trkpt lat="44.97561" lon="4.45173">
        <ele>937</ele>
        <time>2015-11-27T09:04:39Z</time>
      </trkpt>
      <trkpt lat="44.97552" lon="4.45179">
        <ele>938</ele>
        <time>2015-11-27T09:04:44Z</time>
      </trkpt>
      <trkpt lat="44.97545" lon="4.45182">
        <ele>938</ele>
        <time>2015-11-27T09:04:48Z</time>
      </trkpt>
      <trkpt lat="44.9754" lon="4.45192">
        <ele>937</ele>
        <time>2015-11-27T09:04:51Z</time>
      </trkpt>
      <trkpt lat="44.97533" lon="4.452">
        <ele>937</ele>
        <time>2015-11-27T09:04:55Z</time>
      </trkpt>
      <trkpt lat="44.97538" lon="4.45209">
        <ele>936</ele>
        <time>2015-11-27T09:05:00Z</time>
      </trkpt>
      <trkpt lat="44.97541" lon="4.45221">
        <ele>936</ele>
        <time>2015-11-27T09:05:03Z</time>
      </trkpt>
      <trkpt lat="44.97546" lon="4.45234">
        <ele>936</ele>
        <time>2015-11-27T09:05:08Z</time>
      </trkpt>
      <trkpt lat="44.97551" lon="4.45246">
        <ele>935</ele>
        <time>2015-11-27T09:05:12Z</time>
      </trkpt>
      <trkpt lat="44.97554" lon="4.4526">
        <ele>935</ele>
        <time>2015-11-27T09:05:16Z</time>
      </trkpt>
      <trkpt lat="44.97555" lon="4.45275">
        <ele>935</ele>
        <time>2015-11-27T09:05:21Z</time>
      </trkpt>
      <trkpt lat="44.97557" lon="4.45285">
        <ele>935</ele>
        <time>2015-11-27T09:05:24Z</time>
      </trkpt>
      <trkpt lat="44.97563" lon="4.45298">
        <ele>934</ele>
        <time>2015-11-27T09:05:27Z</time>
      </trkpt>
      <trkpt lat="44.9756" lon="4.45311">
        <ele>934</ele>
        <time>2015-11-27T09:05:31Z</time>
      </trkpt>
      <trkpt lat="44.97563" lon="4.45322">
        <ele>934</ele>
        <time>2015-11-27T09:05:35Z</time>
      </trkpt>
      <trkpt lat="44.97566" lon="4.45334">
        <ele>933</ele>
        <time>2015-11-27T09:05:41Z</time>
      </trkpt>
      <trkpt lat="44.97571" lon="4.45347">
        <ele>933</ele>
        <time>2015-11-27T09:05:46Z</time>
      </trkpt>
      <trkpt lat="44.97573" lon="4.45357">
        <ele>933</ele>
        <time>2015-11-27T09:05:49Z</time>
      </trkpt>
      <trkpt lat="44.97576" lon="4.45374">
        <ele>933</ele>
        <time>2015-11-27T09:05:54Z</time>
      </trkpt>
      <trkpt lat="44.97584" lon="4.45388">
        <ele>932</ele>
        <time>2015-11-27T09:05:58Z</time>
      </trkpt>
      <trkpt lat="44.97589" lon="4.45395">
        <ele>932</ele>
        <time>2015-11-27T09:06:01Z</time>
      </trkpt>
      <trkpt lat="44.97595" lon="4.45407">
        <ele>931</ele>
        <time>2015-11-27T09:06:05Z</time>
      </trkpt>
      <trkpt lat="44.97601" lon="4.45421">
        <ele>930</ele>
        <time>2015-11-27T09:06:09Z</time>
      </trkpt>
      <trkpt lat="44.97607" lon="4.45432">
        <ele>929</ele>
        <time>2015-11-27T09:06:14Z</time>
      </trkpt>
      <trkpt lat="44.97614" lon="4.45447">
        <ele>929</ele>
        <time>2015-11-27T09:06:19Z</time>
      </trkpt>
      <trkpt lat="44.97619" lon="4.45461">
        <ele>928</ele>
        <time>2015-11-27T09:06:23Z</time>
      </trkpt>
      <trkpt lat="44.9762" lon="4.45467">
        <ele>927</ele>
        <time>2015-11-27T09:06:27Z</time>
      </trkpt>
      <trkpt lat="44.97624" lon="4.45475">
        <ele>927</ele>
        <time>2015-11-27T09:06:29Z</time>
      </trkpt>
      <trkpt lat="44.97628" lon="4.45483">
        <ele>927</ele>
        <time>2015-11-27T09:06:33Z</time>
      </trkpt>
      <trkpt lat="44.97632" lon="4.45496">
        <ele>926</ele>
        <time>2015-11-27T09:06:37Z</time>
      </trkpt>
      <trkpt lat="44.97632" lon="4.45507">
        <ele>925</ele>
        <time>2015-11-27T09:06:41Z</time>
      </trkpt>
      <trkpt lat="44.97633" lon="4.45519">
        <ele>924</ele>
        <time>2015-11-27T09:06:45Z</time>
      </trkpt>
      <trkpt lat="44.9763" lon="4.45533">
        <ele>923</ele>
        <time>2015-11-27T09:06:50Z</time>
      </trkpt>
      <trkpt lat="44.97626" lon="4.45541">
        <ele>922</ele>
        <time>2015-11-27T09:06:53Z</time>
      </trkpt>
      <trkpt lat="44.97622" lon="4.45552">
        <ele>921</ele>
        <time>2015-11-27T09:06:57Z</time>
      </trkpt>
      <trkpt lat="44.97616" lon="4.45566">
        <ele>920</ele>
        <time>2015-11-27T09:07:01Z</time>
      </trkpt>
      <trkpt lat="44.9761" lon="4.45577">
        <ele>920</ele>
        <time>2015-11-27T09:07:05Z</time>
      </trkpt>
      <trkpt lat="44.97603" lon="4.45587">
        <ele>919</ele>
        <time>2015-11-27T09:07:10Z</time>
      </trkpt>
      <trkpt lat="44.97598" lon="4.45596">
        <ele>918</ele>
        <time>2015-11-27T09:07:15Z</time>
      </trkpt>
      <trkpt lat="44.97591" lon="4.45612">
        <ele>918</ele>
        <time>2015-11-27T09:07:19Z</time>
      </trkpt>
      <trkpt lat="44.97585" lon="4.4562">
        <ele>917</ele>
        <time>2015-11-27T09:07:24Z</time>
      </trkpt>
      <trkpt lat="44.97575" lon="4.4563">
        <ele>916</ele>
        <time>2015-11-27T09:07:28Z</time>
      </trkpt>
      <trkpt lat="44.97568" lon="4.45635">
        <ele>915</ele>
        <time>2015-11-27T09:07:31Z</time>
      </trkpt>
      <trkpt lat="44.97559" lon="4.4564">
        <ele>914</ele>
        <time>2015-11-27T09:07:36Z</time>
      </trkpt>
      <trkpt lat="44.97552" lon="4.45644">
        <ele>913</ele>
        <time>2015-11-27T09:07:40Z</time>
      </trkpt>
      <trkpt lat="44.97546" lon="4.45648">
        <ele>912</ele>
        <time>2015-11-27T09:07:43Z</time>
      </trkpt>
      <trkpt lat="44.97538" lon="4.45654">
        <ele>911</ele>
        <time>2015-11-27T09:07:47Z</time>
      </trkpt>
      <trkpt lat="44.97532" lon="4.45659">
        <ele>910</ele>
        <time>2015-11-27T09:07:50Z</time>
      </trkpt>
      <trkpt lat="44.97525" lon="4.45665">
        <ele>909</ele>
        <time>2015-11-27T09:07:54Z</time>
      </trkpt>
      <trkpt lat="44.97519" lon="4.45671">
        <ele>908</ele>
        <time>2015-11-27T09:07:58Z</time>
      </trkpt>
      <trkpt lat="44.97516" lon="4.45676">
        <ele>908</ele>
        <time>2015-11-27T09:08:01Z</time>
      </trkpt>
      <trkpt lat="44.97512" lon="4.45687">
        <ele>907</ele>
        <time>2015-11-27T09:08:07Z</time>
      </trkpt>
      <trkpt lat="44.97505" lon="4.45705">
        <ele>907</ele>
        <time>2015-11-27T09:08:11Z</time>
      </trkpt>
      <trkpt lat="44.97498" lon="4.45712">
        <ele>907</ele>
        <time>2015-11-27T09:08:20Z</time>
      </trkpt>
      <trkpt lat="44.97496" lon="4.45724">
        <ele>907</ele>
        <time>2015-11-27T09:08:29Z</time>
      </trkpt>
      <trkpt lat="44.97495" lon="4.45735">
        <ele>907</ele>
        <time>2015-11-27T09:08:34Z</time>
      </trkpt>
      <trkpt lat="44.97499" lon="4.45747">
        <ele>907</ele>
        <time>2015-11-27T09:08:39Z</time>
      </trkpt>
      <trkpt lat="44.97501" lon="4.45755">
        <ele>907</ele>
        <time>2015-11-27T09:08:44Z</time>
      </trkpt>
      <trkpt lat="44.97501" lon="4.45766">
        <ele>906</ele>
        <time>2015-11-27T09:08:50Z</time>
      </trkpt>
      <trkpt lat="44.975" lon="4.45777">
        <ele>906</ele>
        <time>2015-11-27T09:08:53Z</time>
      </trkpt>
      <trkpt lat="44.97496" lon="4.45788">
        <ele>906</ele>
        <time>2015-11-27T09:09:04Z</time>
      </trkpt>
      <trkpt lat="44.97492" lon="4.458">
        <ele>907</ele>
        <time>2015-11-27T09:09:07Z</time>
      </trkpt>
      <trkpt lat="44.97488" lon="4.45813">
        <ele>907</ele>
        <time>2015-11-27T09:09:12Z</time>
      </trkpt>
      <trkpt lat="44.97486" lon="4.45822">
        <ele>907</ele>
        <time>2015-11-27T09:09:16Z</time>
      </trkpt>
      <trkpt lat="44.97484" lon="4.45832">
        <ele>907</ele>
        <time>2015-11-27T09:09:20Z</time>
      </trkpt>
      <trkpt lat="44.97482" lon="4.45841">
        <ele>907</ele>
        <time>2015-11-27T09:09:22Z</time>
      </trkpt>
      <trkpt lat="44.97476" lon="4.45856">
        <ele>907</ele>
        <time>2015-11-27T09:09:26Z</time>
      </trkpt>
      <trkpt lat="44.97477" lon="4.45862">
        <ele>907</ele>
        <time>2015-11-27T09:09:29Z</time>
      </trkpt>
      <trkpt lat="44.97476" lon="4.45875">
        <ele>907</ele>
        <time>2015-11-27T09:09:33Z</time>
      </trkpt>
      <trkpt lat="44.97475" lon="4.45888">
        <ele>907</ele>
        <time>2015-11-27T09:09:37Z</time>
      </trkpt>
      <trkpt lat="44.97473" lon="4.45898">
        <ele>906</ele>
        <time>2015-11-27T09:09:42Z</time>
      </trkpt>
      <trkpt lat="44.9747" lon="4.45909">
        <ele>906</ele>
        <time>2015-11-27T09:09:47Z</time>
      </trkpt>
      <trkpt lat="44.97469" lon="4.45923">
        <ele>906</ele>
        <time>2015-11-27T09:09:51Z</time>
      </trkpt>
      <trkpt lat="44.97469" lon="4.45925">
        <ele>906</ele>
        <time>2015-11-27T09:10:00Z</time>
      </trkpt>
      <trkpt lat="44.97465" lon="4.4595">
        <ele>905</ele>
        <time>2015-11-27T09:10:00Z</time>
      </trkpt>
      <trkpt lat="44.97461" lon="4.45964">
        <ele>905</ele>
        <time>2015-11-27T09:10:08Z</time>
      </trkpt>
      <trkpt lat="44.97458" lon="4.45975">
        <ele>905</ele>
        <time>2015-11-27T09:10:12Z</time>
      </trkpt>
      <trkpt lat="44.97453" lon="4.45992">
        <ele>904</ele>
        <time>2015-11-27T09:10:16Z</time>
      </trkpt>
      <trkpt lat="44.97445" lon="4.46016">
        <ele>904</ele>
        <time>2015-11-27T09:10:22Z</time>
      </trkpt>
      <trkpt lat="44.97439" lon="4.46032">
        <ele>903</ele>
        <time>2015-11-27T09:10:31Z</time>
      </trkpt>
      <trkpt lat="44.97439" lon="4.46032">
        <ele>903</ele>
        <time>2015-11-27T09:10:37Z</time>
      </trkpt>
      <trkpt lat="44.9744" lon="4.46057">
        <ele>904</ele>
        <time>2015-11-27T09:10:39Z</time>
      </trkpt>
      <trkpt lat="44.97445" lon="4.46075">
        <ele>905</ele>
        <time>2015-11-27T09:10:44Z</time>
      </trkpt>
      <trkpt lat="44.97449" lon="4.46085">
        <ele>905</ele>
        <time>2015-11-27T09:10:48Z</time>
      </trkpt>
      <trkpt lat="44.97454" lon="4.46097">
        <ele>905</ele>
        <time>2015-11-27T09:10:53Z</time>
      </trkpt>
      <trkpt lat="44.97454" lon="4.46109">
        <ele>906</ele>
        <time>2015-11-27T09:10:58Z</time>
      </trkpt>
      <trkpt lat="44.97455" lon="4.46119">
        <ele>906</ele>
        <time>2015-11-27T09:11:02Z</time>
      </trkpt>
      <trkpt lat="44.97457" lon="4.46134">
        <ele>907</ele>
        <time>2015-11-27T09:11:06Z</time>
      </trkpt>
      <trkpt lat="44.97459" lon="4.46141">
        <ele>907</ele>
        <time>2015-11-27T09:11:10Z</time>
      </trkpt>
      <trkpt lat="44.9746" lon="4.46151">
        <ele>907</ele>
        <time>2015-11-27T09:11:14Z</time>
      </trkpt>
      <trkpt lat="44.97462" lon="4.46161">
        <ele>907</ele>
        <time>2015-11-27T09:11:19Z</time>
      </trkpt>
      <trkpt lat="44.97462" lon="4.46175">
        <ele>908</ele>
        <time>2015-11-27T09:11:24Z</time>
      </trkpt>
      <trkpt lat="44.97464" lon="4.46187">
        <ele>908</ele>
        <time>2015-11-27T09:11:29Z</time>
      </trkpt>
      <trkpt lat="44.9747" lon="4.46192">
        <ele>908</ele>
        <time>2015-11-27T09:11:32Z</time>
      </trkpt>
      <trkpt lat="44.9748" lon="4.46203">
        <ele>909</ele>
        <time>2015-11-27T09:11:36Z</time>
      </trkpt>
      <trkpt lat="44.97488" lon="4.4621">
        <ele>909</ele>
        <time>2015-11-27T09:11:40Z</time>
      </trkpt>
      <trkpt lat="44.97494" lon="4.46218">
        <ele>909</ele>
        <time>2015-11-27T09:11:44Z</time>
      </trkpt>
      <trkpt lat="44.97507" lon="4.46229">
        <ele>909</ele>
        <time>2015-11-27T09:11:49Z</time>
      </trkpt>
      <trkpt lat="44.97515" lon="4.46239">
        <ele>910</ele>
        <time>2015-11-27T09:11:53Z</time>
      </trkpt>
      <trkpt lat="44.9752" lon="4.46249">
        <ele>910</ele>
        <time>2015-11-27T09:11:56Z</time>
      </trkpt>
      <trkpt lat="44.97525" lon="4.46261">
        <ele>910</ele>
        <time>2015-11-27T09:12:00Z</time>
      </trkpt>
      <trkpt lat="44.97532" lon="4.46273">
        <ele>911</ele>
        <time>2015-11-27T09:12:04Z</time>
      </trkpt>
      <trkpt lat="44.97538" lon="4.46283">
        <ele>911</ele>
        <time>2015-11-27T09:12:08Z</time>
      </trkpt>
      <trkpt lat="44.97543" lon="4.46291">
        <ele>911</ele>
        <time>2015-11-27T09:12:11Z</time>
      </trkpt>
      <trkpt lat="44.97549" lon="4.46302">
        <ele>911</ele>
        <time>2015-11-27T09:12:15Z</time>
      </trkpt>
      <trkpt lat="44.97555" lon="4.46312">
        <ele>911</ele>
        <time>2015-11-27T09:12:20Z</time>
      </trkpt>
      <trkpt lat="44.97558" lon="4.46322">
        <ele>911</ele>
        <time>2015-11-27T09:12:26Z</time>
      </trkpt>
      <trkpt lat="44.97564" lon="4.46332">
        <ele>911</ele>
        <time>2015-11-27T09:12:31Z</time>
      </trkpt>
      <trkpt lat="44.97568" lon="4.46348">
        <ele>912</ele>
        <time>2015-11-27T09:12:35Z</time>
      </trkpt>
      <trkpt lat="44.97573" lon="4.46368">
        <ele>913</ele>
        <time>2015-11-27T09:12:40Z</time>
      </trkpt>
      <trkpt lat="44.97579" lon="4.46378">
        <ele>913</ele>
        <time>2015-11-27T09:12:44Z</time>
      </trkpt>
      <trkpt lat="44.97582" lon="4.46389">
        <ele>913</ele>
        <time>2015-11-27T09:12:48Z</time>
      </trkpt>
      <trkpt lat="44.9758" lon="4.46405">
        <ele>913</ele>
        <time>2015-11-27T09:12:52Z</time>
      </trkpt>
      <trkpt lat="44.97582" lon="4.46419">
        <ele>913</ele>
        <time>2015-11-27T09:12:56Z</time>
      </trkpt>
      <trkpt lat="44.9758" lon="4.46433">
        <ele>913</ele>
        <time>2015-11-27T09:13:00Z</time>
      </trkpt>
      <trkpt lat="44.97578" lon="4.46446">
        <ele>913</ele>
        <time>2015-11-27T09:13:04Z</time>
      </trkpt>
      <trkpt lat="44.97578" lon="4.46457">
        <ele>913</ele>
        <time>2015-11-27T09:13:08Z</time>
      </trkpt>
      <trkpt lat="44.97574" lon="4.46471">
        <ele>913</ele>
        <time>2015-11-27T09:13:12Z</time>
      </trkpt>
      <trkpt lat="44.9757" lon="4.46485">
        <ele>913</ele>
        <time>2015-11-27T09:13:17Z</time>
      </trkpt>
      <trkpt lat="44.97562" lon="4.46496">
        <ele>912</ele>
        <time>2015-11-27T09:13:21Z</time>
      </trkpt>
      <trkpt lat="44.97559" lon="4.46513">
        <ele>912</ele>
        <time>2015-11-27T09:13:26Z</time>
      </trkpt>
      <trkpt lat="44.97556" lon="4.4653">
        <ele>911</ele>
        <time>2015-11-27T09:13:30Z</time>
      </trkpt>
      <trkpt lat="44.97552" lon="4.46545">
        <ele>911</ele>
        <time>2015-11-27T09:13:34Z</time>
      </trkpt>
      <trkpt lat="44.97551" lon="4.46558">
        <ele>911</ele>
        <time>2015-11-27T09:13:38Z</time>
      </trkpt>
      <trkpt lat="44.9755" lon="4.46574">
        <ele>910</ele>
        <time>2015-11-27T09:13:42Z</time>
      </trkpt>
      <trkpt lat="44.97549" lon="4.46591">
        <ele>910</ele>
        <time>2015-11-27T09:13:46Z</time>
      </trkpt>
      <trkpt lat="44.97549" lon="4.46609">
        <ele>909</ele>
        <time>2015-11-27T09:13:51Z</time>
      </trkpt>
      <trkpt lat="44.97549" lon="4.46621">
        <ele>908</ele>
        <time>2015-11-27T09:13:55Z</time>
      </trkpt>
      <trkpt lat="44.97548" lon="4.46634">
        <ele>907</ele>
        <time>2015-11-27T09:13:59Z</time>
      </trkpt>
      <trkpt lat="44.97547" lon="4.46645">
        <ele>906</ele>
        <time>2015-11-27T09:14:02Z</time>
      </trkpt>
      <trkpt lat="44.97546" lon="4.46656">
        <ele>905</ele>
        <time>2015-11-27T09:14:06Z</time>
      </trkpt>
      <trkpt lat="44.97544" lon="4.46668">
        <ele>903</ele>
        <time>2015-11-27T09:14:16Z</time>
      </trkpt>
      <trkpt lat="44.97542" lon="4.46679">
        <ele>901</ele>
        <time>2015-11-27T09:14:23Z</time>
      </trkpt>
      <trkpt lat="44.97541" lon="4.46692">
        <ele>900</ele>
        <time>2015-11-27T09:14:29Z</time>
      </trkpt>
      <trkpt lat="44.97537" lon="4.46704">
        <ele>899</ele>
        <time>2015-11-27T09:14:34Z</time>
      </trkpt>
      <trkpt lat="44.97536" lon="4.46713">
        <ele>897</ele>
        <time>2015-11-27T09:14:39Z</time>
      </trkpt>
      <trkpt lat="44.97533" lon="4.46722">
        <ele>896</ele>
        <time>2015-11-27T09:14:43Z</time>
      </trkpt>
      <trkpt lat="44.97533" lon="4.46732">
        <ele>896</ele>
        <time>2015-11-27T09:14:48Z</time>
      </trkpt>
      <trkpt lat="44.97532" lon="4.46743">
        <ele>895</ele>
        <time>2015-11-27T09:14:55Z</time>
      </trkpt>
      <trkpt lat="44.9753" lon="4.46754">
        <ele>894</ele>
        <time>2015-11-27T09:15:00Z</time>
      </trkpt>
      <trkpt lat="44.97531" lon="4.46766">
        <ele>892</ele>
        <time>2015-11-27T09:15:06Z</time>
      </trkpt>
      <trkpt lat="44.9753" lon="4.46775">
        <ele>892</ele>
        <time>2015-11-27T09:15:10Z</time>
      </trkpt>
      <trkpt lat="44.97529" lon="4.46784">
        <ele>891</ele>
        <time>2015-11-27T09:15:15Z</time>
      </trkpt>
      <trkpt lat="44.97524" lon="4.46792">
        <ele>889</ele>
        <time>2015-11-27T09:15:22Z</time>
      </trkpt>
      <trkpt lat="44.97521" lon="4.46802">
        <ele>887</ele>
        <time>2015-11-27T09:15:29Z</time>
      </trkpt>
      <trkpt lat="44.97518" lon="4.46811">
        <ele>886</ele>
        <time>2015-11-27T09:15:35Z</time>
      </trkpt>
      <trkpt lat="44.97515" lon="4.46822">
        <ele>885</ele>
        <time>2015-11-27T09:15:42Z</time>
      </trkpt>
      <trkpt lat="44.97513" lon="4.46833">
        <ele>884</ele>
        <time>2015-11-27T09:15:47Z</time>
      </trkpt>
      <trkpt lat="44.97512" lon="4.46843">
        <ele>884</ele>
        <time>2015-11-27T09:15:51Z</time>
      </trkpt>
      <trkpt lat="44.97514" lon="4.46854">
        <ele>883</ele>
        <time>2015-11-27T09:15:56Z</time>
      </trkpt>
      <trkpt lat="44.97519" lon="4.46863">
        <ele>882</ele>
        <time>2015-11-27T09:16:02Z</time>
      </trkpt>
      <trkpt lat="44.97523" lon="4.46872">
        <ele>881</ele>
        <time>2015-11-27T09:16:08Z</time>
      </trkpt>
      <trkpt lat="44.97528" lon="4.46881">
        <ele>880</ele>
        <time>2015-11-27T09:16:15Z</time>
      </trkpt>
      <trkpt lat="44.97533" lon="4.4689">
        <ele>879</ele>
        <time>2015-11-27T09:16:21Z</time>
      </trkpt>
      <trkpt lat="44.97538" lon="4.46896">
        <ele>878</ele>
        <time>2015-11-27T09:16:26Z</time>
      </trkpt>
      <trkpt lat="44.97545" lon="4.46901">
        <ele>878</ele>
        <time>2015-11-27T09:16:30Z</time>
      </trkpt>
      <trkpt lat="44.97553" lon="4.46904">
        <ele>878</ele>
        <time>2015-11-27T09:16:34Z</time>
      </trkpt>
      <trkpt lat="44.9756" lon="4.4691">
        <ele>877</ele>
        <time>2015-11-27T09:16:39Z</time>
      </trkpt>
      <trkpt lat="44.97566" lon="4.46918">
        <ele>877</ele>
        <time>2015-11-27T09:16:44Z</time>
      </trkpt>
      <trkpt lat="44.97572" lon="4.46926">
        <ele>877</ele>
        <time>2015-11-27T09:16:52Z</time>
      </trkpt>
      <trkpt lat="44.97578" lon="4.46933">
        <ele>878</ele>
        <time>2015-11-27T09:17:01Z</time>
      </trkpt>
      <trkpt lat="44.97583" lon="4.4694">
        <ele>879</ele>
        <time>2015-11-27T09:17:07Z</time>
      </trkpt>
      <trkpt lat="44.97589" lon="4.46946">
        <ele>879</ele>
        <time>2015-11-27T09:17:12Z</time>
      </trkpt>
      <trkpt lat="44.97596" lon="4.46951">
        <ele>880</ele>
        <time>2015-11-27T09:17:17Z</time>
      </trkpt>
      <trkpt lat="44.976" lon="4.46958">
        <ele>880</ele>
        <time>2015-11-27T09:17:22Z</time>
      </trkpt>
      <trkpt lat="44.97605" lon="4.46967">
        <ele>880</ele>
        <time>2015-11-27T09:17:27Z</time>
      </trkpt>
      <trkpt lat="44.97609" lon="4.46974">
        <ele>879</ele>
        <time>2015-11-27T09:17:32Z</time>
      </trkpt>
      <trkpt lat="44.97611" lon="4.46985">
        <ele>878</ele>
        <time>2015-11-27T09:17:38Z</time>
      </trkpt>
      <trkpt lat="44.97608" lon="4.46996">
        <ele>877</ele>
        <time>2015-11-27T09:17:46Z</time>
      </trkpt>
      <trkpt lat="44.97606" lon="4.47008">
        <ele>877</ele>
        <time>2015-11-27T09:17:53Z</time>
      </trkpt>
      <trkpt lat="44.97605" lon="4.4702">
        <ele>876</ele>
        <time>2015-11-27T09:18:00Z</time>
      </trkpt>
      <trkpt lat="44.97602" lon="4.47031">
        <ele>875</ele>
        <time>2015-11-27T09:18:06Z</time>
      </trkpt>
      <trkpt lat="44.976" lon="4.47042">
        <ele>874</ele>
        <time>2015-11-27T09:18:11Z</time>
      </trkpt>
      <trkpt lat="44.97598" lon="4.47054">
        <ele>875</ele>
        <time>2015-11-27T09:18:15Z</time>
      </trkpt>
      <trkpt lat="44.97597" lon="4.47068">
        <ele>875</ele>
        <time>2015-11-27T09:18:20Z</time>
      </trkpt>
      <trkpt lat="44.97599" lon="4.47079">
        <ele>874</ele>
        <time>2015-11-27T09:18:26Z</time>
      </trkpt>
      <trkpt lat="44.97597" lon="4.47088">
        <ele>874</ele>
        <time>2015-11-27T09:18:30Z</time>
      </trkpt>
      <trkpt lat="44.97598" lon="4.471">
        <ele>874</ele>
        <time>2015-11-27T09:18:36Z</time>
      </trkpt>
      <trkpt lat="44.976" lon="4.4711">
        <ele>874</ele>
        <time>2015-11-27T09:18:40Z</time>
      </trkpt>
      <trkpt lat="44.97602" lon="4.47119">
        <ele>874</ele>
        <time>2015-11-27T09:18:44Z</time>
      </trkpt>
      <trkpt lat="44.97605" lon="4.47128">
        <ele>873</ele>
        <time>2015-11-27T09:18:48Z</time>
      </trkpt>
      <trkpt lat="44.97607" lon="4.4714">
        <ele>873</ele>
        <time>2015-11-27T09:18:52Z</time>
      </trkpt>
      <trkpt lat="44.97609" lon="4.47151">
        <ele>873</ele>
        <time>2015-11-27T09:18:57Z</time>
      </trkpt>
      <trkpt lat="44.97615" lon="4.47166">
        <ele>873</ele>
        <time>2015-11-27T09:19:02Z</time>
      </trkpt>
      <trkpt lat="44.9762" lon="4.47174">
        <ele>872</ele>
        <time>2015-11-27T09:19:06Z</time>
      </trkpt>
      <trkpt lat="44.97628" lon="4.47188">
        <ele>872</ele>
        <time>2015-11-27T09:19:11Z</time>
      </trkpt>
      <trkpt lat="44.97633" lon="4.47198">
        <ele>873</ele>
        <time>2015-11-27T09:19:16Z</time>
      </trkpt>
      <trkpt lat="44.97639" lon="4.47206">
        <ele>872</ele>
        <time>2015-11-27T09:19:20Z</time>
      </trkpt>
      <trkpt lat="44.97645" lon="4.47217">
        <ele>872</ele>
        <time>2015-11-27T09:19:24Z</time>
      </trkpt>
      <trkpt lat="44.97652" lon="4.47232">
        <ele>872</ele>
        <time>2015-11-27T09:19:29Z</time>
      </trkpt>
      <trkpt lat="44.97656" lon="4.47239">
        <ele>872</ele>
        <time>2015-11-27T09:19:32Z</time>
      </trkpt>
      <trkpt lat="44.97661" lon="4.47246">
        <ele>872</ele>
        <time>2015-11-27T09:19:35Z</time>
      </trkpt>
      <trkpt lat="44.97665" lon="4.47253">
        <ele>872</ele>
        <time>2015-11-27T09:19:38Z</time>
      </trkpt>
      <trkpt lat="44.9767" lon="4.47264">
        <ele>871</ele>
        <time>2015-11-27T09:19:42Z</time>
      </trkpt>
      <trkpt lat="44.97676" lon="4.47272">
        <ele>871</ele>
        <time>2015-11-27T09:19:45Z</time>
      </trkpt>
      <trkpt lat="44.97681" lon="4.47283">
        <ele>871</ele>
        <time>2015-11-27T09:19:49Z</time>
      </trkpt>
      <trkpt lat="44.97685" lon="4.47293">
        <ele>870</ele>
        <time>2015-11-27T09:19:54Z</time>
      </trkpt>
      <trkpt lat="44.97686" lon="4.47305">
        <ele>870</ele>
        <time>2015-11-27T09:20:00Z</time>
      </trkpt>
      <trkpt lat="44.97687" lon="4.47316">
        <ele>870</ele>
        <time>2015-11-27T09:20:04Z</time>
      </trkpt>
      <trkpt lat="44.97692" lon="4.47326">
        <ele>870</ele>
        <time>2015-11-27T09:20:09Z</time>
      </trkpt>
      <trkpt lat="44.97697" lon="4.47335">
        <ele>870</ele>
        <time>2015-11-27T09:20:14Z</time>
      </trkpt>
      <trkpt lat="44.977" lon="4.47346">
        <ele>870</ele>
        <time>2015-11-27T09:20:20Z</time>
      </trkpt>
      <trkpt lat="44.97708" lon="4.47354">
        <ele>869</ele>
        <time>2015-11-27T09:20:25Z</time>
      </trkpt>
      <trkpt lat="44.97712" lon="4.47363">
        <ele>869</ele>
        <time>2015-11-27T09:20:32Z</time>
      </trkpt>
      <trkpt lat="44.97713" lon="4.47373">
        <ele>869</ele>
        <time>2015-11-27T09:20:38Z</time>
      </trkpt>
      <trkpt lat="44.97715" lon="4.47383">
        <ele>868</ele>
        <time>2015-11-27T09:20:44Z</time>
      </trkpt>
      <trkpt lat="44.97718" lon="4.47392">
        <ele>868</ele>
        <time>2015-11-27T09:20:50Z</time>
      </trkpt>
      <trkpt lat="44.97722" lon="4.47401">
        <ele>867</ele>
        <time>2015-11-27T09:20:54Z</time>
      </trkpt>
      <trkpt lat="44.97729" lon="4.47412">
        <ele>867</ele>
        <time>2015-11-27T09:20:58Z</time>
      </trkpt>
      <trkpt lat="44.97732" lon="4.4742">
        <ele>866</ele>
        <time>2015-11-27T09:21:02Z</time>
      </trkpt>
      <trkpt lat="44.97737" lon="4.47427">
        <ele>865</ele>
        <time>2015-11-27T09:21:06Z</time>
      </trkpt>
      <trkpt lat="44.97739" lon="4.47437">
        <ele>865</ele>
        <time>2015-11-27T09:21:10Z</time>
      </trkpt>
      <trkpt lat="44.97742" lon="4.47444">
        <ele>865</ele>
        <time>2015-11-27T09:21:13Z</time>
      </trkpt>
      <trkpt lat="44.97745" lon="4.47457">
        <ele>865</ele>
        <time>2015-11-27T09:21:17Z</time>
      </trkpt>
      <trkpt lat="44.97752" lon="4.47468">
        <ele>865</ele>
        <time>2015-11-27T09:21:22Z</time>
      </trkpt>
      <trkpt lat="44.97759" lon="4.47479">
        <ele>865</ele>
        <time>2015-11-27T09:21:26Z</time>
      </trkpt>
      <trkpt lat="44.9777" lon="4.47489">
        <ele>865</ele>
        <time>2015-11-27T09:21:30Z</time>
      </trkpt>
      <trkpt lat="44.97778" lon="4.47495">
        <ele>864</ele>
        <time>2015-11-27T09:21:34Z</time>
      </trkpt>
      <trkpt lat="44.97786" lon="4.47502">
        <ele>864</ele>
        <time>2015-11-27T09:21:38Z</time>
      </trkpt>
      <trkpt lat="44.97793" lon="4.47508">
        <ele>863</ele>
        <time>2015-11-27T09:21:42Z</time>
      </trkpt>
      <trkpt lat="44.97798" lon="4.47514">
        <ele>863</ele>
        <time>2015-11-27T09:21:46Z</time>
      </trkpt>
      <trkpt lat="44.97809" lon="4.47519">
        <ele>862</ele>
        <time>2015-11-27T09:21:51Z</time>
      </trkpt>
      <trkpt lat="44.97817" lon="4.47527">
        <ele>862</ele>
        <time>2015-11-27T09:21:55Z</time>
      </trkpt>
      <trkpt lat="44.97825" lon="4.47534">
        <ele>861</ele>
        <time>2015-11-27T09:22:00Z</time>
      </trkpt>
      <trkpt lat="44.97836" lon="4.47542">
        <ele>861</ele>
        <time>2015-11-27T09:22:05Z</time>
      </trkpt>
      <trkpt lat="44.97846" lon="4.47545">
        <ele>861</ele>
        <time>2015-11-27T09:22:09Z</time>
      </trkpt>
      <trkpt lat="44.97857" lon="4.47548">
        <ele>860</ele>
        <time>2015-11-27T09:22:14Z</time>
      </trkpt>
      <trkpt lat="44.97867" lon="4.47549">
        <ele>860</ele>
        <time>2015-11-27T09:22:18Z</time>
      </trkpt>
      <trkpt lat="44.97878" lon="4.47552">
        <ele>860</ele>
        <time>2015-11-27T09:22:22Z</time>
      </trkpt>
      <trkpt lat="44.97889" lon="4.47554">
        <ele>859</ele>
        <time>2015-11-27T09:22:26Z</time>
      </trkpt>
      <trkpt lat="44.97905" lon="4.47555">
        <ele>859</ele>
        <time>2015-11-27T09:22:30Z</time>
      </trkpt>
      <trkpt lat="44.97918" lon="4.47556">
        <ele>859</ele>
        <time>2015-11-27T09:22:34Z</time>
      </trkpt>
      <trkpt lat="44.97932" lon="4.47558">
        <ele>860</ele>
        <time>2015-11-27T09:22:38Z</time>
      </trkpt>
      <trkpt lat="44.97943" lon="4.47563">
        <ele>860</ele>
        <time>2015-11-27T09:22:42Z</time>
      </trkpt>
      <trkpt lat="44.9795" lon="4.47568">
        <ele>859</ele>
        <time>2015-11-27T09:22:46Z</time>
      </trkpt>
      <trkpt lat="44.97953" lon="4.47575">
        <ele>858</ele>
        <time>2015-11-27T09:22:51Z</time>
      </trkpt>
      <trkpt lat="44.97961" lon="4.47585">
        <ele>857</ele>
        <time>2015-11-27T09:22:56Z</time>
      </trkpt>
      <trkpt lat="44.97966" lon="4.47593">
        <ele>856</ele>
        <time>2015-11-27T09:23:00Z</time>
      </trkpt>
      <trkpt lat="44.97974" lon="4.47607">
        <ele>856</ele>
        <time>2015-11-27T09:23:04Z</time>
      </trkpt>
      <trkpt lat="44.97982" lon="4.47622">
        <ele>856</ele>
        <time>2015-11-27T09:23:08Z</time>
      </trkpt>
      <trkpt lat="44.97986" lon="4.47632">
        <ele>855</ele>
        <time>2015-11-27T09:23:12Z</time>
      </trkpt>
      <trkpt lat="44.97989" lon="4.4764">
        <ele>856</ele>
        <time>2015-11-27T09:23:16Z</time>
      </trkpt>
      <trkpt lat="44.97989" lon="4.47648">
        <ele>856</ele>
        <time>2015-11-27T09:23:19Z</time>
      </trkpt>
      <trkpt lat="44.97993" lon="4.47661">
        <ele>856</ele>
        <time>2015-11-27T09:23:24Z</time>
      </trkpt>
      <trkpt lat="44.97994" lon="4.47675">
        <ele>857</ele>
        <time>2015-11-27T09:23:28Z</time>
      </trkpt>
      <trkpt lat="44.97996" lon="4.47683">
        <ele>856</ele>
        <time>2015-11-27T09:23:32Z</time>
      </trkpt>
      <trkpt lat="44.98" lon="4.47698">
        <ele>856</ele>
        <time>2015-11-27T09:23:36Z</time>
      </trkpt>
      <trkpt lat="44.97998" lon="4.47712">
        <ele>857</ele>
        <time>2015-11-27T09:23:40Z</time>
      </trkpt>
      <trkpt lat="44.98002" lon="4.47722">
        <ele>857</ele>
        <time>2015-11-27T09:23:44Z</time>
      </trkpt>
      <trkpt lat="44.98007" lon="4.47731">
        <ele>856</ele>
        <time>2015-11-27T09:23:48Z</time>
      </trkpt>
      <trkpt lat="44.98009" lon="4.47739">
        <ele>856</ele>
        <time>2015-11-27T09:23:51Z</time>
      </trkpt>
      <trkpt lat="44.98016" lon="4.47754">
        <ele>857</ele>
        <time>2015-11-27T09:23:56Z</time>
      </trkpt>
      <trkpt lat="44.98022" lon="4.47763">
        <ele>857</ele>
        <time>2015-11-27T09:24:00Z</time>
      </trkpt>
      <trkpt lat="44.98032" lon="4.47776">
        <ele>857</ele>
        <time>2015-11-27T09:24:05Z</time>
      </trkpt>
      <trkpt lat="44.98038" lon="4.47783">
        <ele>858</ele>
        <time>2015-11-27T09:24:08Z</time>
      </trkpt>
      <trkpt lat="44.98045" lon="4.47794">
        <ele>857</ele>
        <time>2015-11-27T09:24:13Z</time>
      </trkpt>
      <trkpt lat="44.98052" lon="4.47801">
        <ele>856</ele>
        <time>2015-11-27T09:24:17Z</time>
      </trkpt>
      <trkpt lat="44.98057" lon="4.47814">
        <ele>854</ele>
        <time>2015-11-27T09:24:22Z</time>
      </trkpt>
      <trkpt lat="44.98063" lon="4.47824">
        <ele>853</ele>
        <time>2015-11-27T09:24:26Z</time>
      </trkpt>
      <trkpt lat="44.98068" lon="4.47834">
        <ele>852</ele>
        <time>2015-11-27T09:24:30Z</time>
      </trkpt>
      <trkpt lat="44.98073" lon="4.47843">
        <ele>851</ele>
        <time>2015-11-27T09:24:33Z</time>
      </trkpt>
      <trkpt lat="44.9808" lon="4.47858">
        <ele>850</ele>
        <time>2015-11-27T09:24:38Z</time>
      </trkpt>
      <trkpt lat="44.98087" lon="4.47871">
        <ele>851</ele>
        <time>2015-11-27T09:24:42Z</time>
      </trkpt>
      <trkpt lat="44.98094" lon="4.47885">
        <ele>853</ele>
        <time>2015-11-27T09:24:46Z</time>
      </trkpt>
      <trkpt lat="44.98098" lon="4.47895">
        <ele>854</ele>
        <time>2015-11-27T09:24:49Z</time>
      </trkpt>
      <trkpt lat="44.98103" lon="4.47901">
        <ele>854</ele>
        <time>2015-11-27T09:24:54Z</time>
      </trkpt>
      <trkpt lat="44.98106" lon="4.4791">
        <ele>854</ele>
        <time>2015-11-27T09:25:00Z</time>
      </trkpt>
      <trkpt lat="44.98104" lon="4.4792">
        <ele>853</ele>
        <time>2015-11-27T09:25:06Z</time>
      </trkpt>
      <trkpt lat="44.98102" lon="4.47931">
        <ele>852</ele>
        <time>2015-11-27T09:25:12Z</time>
      </trkpt>
      <trkpt lat="44.98099" lon="4.47938">
        <ele>851</ele>
        <time>2015-11-27T09:25:16Z</time>
      </trkpt>
      <trkpt lat="44.98095" lon="4.47949">
        <ele>851</ele>
        <time>2015-11-27T09:25:21Z</time>
      </trkpt>
      <trkpt lat="44.98091" lon="4.47957">
        <ele>850</ele>
        <time>2015-11-27T09:25:26Z</time>
      </trkpt>
      <trkpt lat="44.98087" lon="4.47968">
        <ele>849</ele>
        <time>2015-11-27T09:25:33Z</time>
      </trkpt>
      <trkpt lat="44.98084" lon="4.4798">
        <ele>849</ele>
        <time>2015-11-27T09:25:41Z</time>
      </trkpt>
      <trkpt lat="44.98081" lon="4.47991">
        <ele>848</ele>
        <time>2015-11-27T09:25:48Z</time>
      </trkpt>
      <trkpt lat="44.98077" lon="4.48001">
        <ele>848</ele>
        <time>2015-11-27T09:25:54Z</time>
      </trkpt>
      <trkpt lat="44.98072" lon="4.48012">
        <ele>847</ele>
        <time>2015-11-27T09:26:00Z</time>
      </trkpt>
      <trkpt lat="44.98067" lon="4.48019">
        <ele>847</ele>
        <time>2015-11-27T09:26:04Z</time>
      </trkpt>
      <trkpt lat="44.98062" lon="4.48029">
        <ele>846</ele>
        <time>2015-11-27T09:26:14Z</time>
      </trkpt>
      <trkpt lat="44.98059" lon="4.48037">
        <ele>845</ele>
        <time>2015-11-27T09:26:19Z</time>
      </trkpt>
      <trkpt lat="44.98057" lon="4.48046">
        <ele>845</ele>
        <time>2015-11-27T09:26:23Z</time>
      </trkpt>
      <trkpt lat="44.98054" lon="4.48055">
        <ele>845</ele>
        <time>2015-11-27T09:26:29Z</time>
      </trkpt>
      <trkpt lat="44.98049" lon="4.48065">
        <ele>846</ele>
        <time>2015-11-27T09:26:33Z</time>
      </trkpt>
      <trkpt lat="44.98044" lon="4.48077">
        <ele>846</ele>
        <time>2015-11-27T09:26:37Z</time>
      </trkpt>
      <trkpt lat="44.98042" lon="4.48088">
        <ele>845</ele>
        <time>2015-11-27T09:26:43Z</time>
      </trkpt>
      <trkpt lat="44.98041" lon="4.48091">
        <ele>845</ele>
        <time>2015-11-27T09:26:46Z</time>
      </trkpt>
      <trkpt lat="44.98039" lon="4.48109">
        <ele>845</ele>
        <time>2015-11-27T09:26:50Z</time>
      </trkpt>
      <trkpt lat="44.98033" lon="4.48123">
        <ele>844</ele>
        <time>2015-11-27T09:26:54Z</time>
      </trkpt>
      <trkpt lat="44.98031" lon="4.48135">
        <ele>844</ele>
        <time>2015-11-27T09:26:57Z</time>
      </trkpt>
      <trkpt lat="44.98028" lon="4.4815">
        <ele>844</ele>
        <time>2015-11-27T09:27:00Z</time>
      </trkpt>
      <trkpt lat="44.98026" lon="4.48165">
        <ele>843</ele>
        <time>2015-11-27T09:27:04Z</time>
      </trkpt>
      <trkpt lat="44.98022" lon="4.4818">
        <ele>843</ele>
        <time>2015-11-27T09:27:08Z</time>
      </trkpt>
      <trkpt lat="44.98017" lon="4.48194">
        <ele>843</ele>
        <time>2015-11-27T09:27:12Z</time>
      </trkpt>
      <trkpt lat="44.98013" lon="4.48207">
        <ele>842</ele>
        <time>2015-11-27T09:27:16Z</time>
      </trkpt>
      <trkpt lat="44.98009" lon="4.48219">
        <ele>841</ele>
        <time>2015-11-27T09:27:20Z</time>
      </trkpt>
      <trkpt lat="44.98007" lon="4.48229">
        <ele>840</ele>
        <time>2015-11-27T09:27:24Z</time>
      </trkpt>
      <trkpt lat="44.98002" lon="4.48244">
        <ele>839</ele>
        <time>2015-11-27T09:27:29Z</time>
      </trkpt>
      <trkpt lat="44.97996" lon="4.48254">
        <ele>839</ele>
        <time>2015-11-27T09:27:32Z</time>
      </trkpt>
      <trkpt lat="44.97993" lon="4.48268">
        <ele>838</ele>
        <time>2015-11-27T09:27:36Z</time>
      </trkpt>
      <trkpt lat="44.97988" lon="4.48284">
        <ele>838</ele>
        <time>2015-11-27T09:27:41Z</time>
      </trkpt>
      <trkpt lat="44.97985" lon="4.48299">
        <ele>837</ele>
        <time>2015-11-27T09:27:45Z</time>
      </trkpt>
      <trkpt lat="44.97984" lon="4.48313">
        <ele>837</ele>
        <time>2015-11-27T09:27:49Z</time>
      </trkpt>
      <trkpt lat="44.97981" lon="4.4833">
        <ele>837</ele>
        <time>2015-11-27T09:27:54Z</time>
      </trkpt>
      <trkpt lat="44.97978" lon="4.48339">
        <ele>837</ele>
        <time>2015-11-27T09:27:57Z</time>
      </trkpt>
      <trkpt lat="44.97974" lon="4.48351">
        <ele>836</ele>
        <time>2015-11-27T09:28:02Z</time>
      </trkpt>
      <trkpt lat="44.9797" lon="4.48361">
        <ele>836</ele>
        <time>2015-11-27T09:28:06Z</time>
      </trkpt>
      <trkpt lat="44.97964" lon="4.4837">
        <ele>836</ele>
        <time>2015-11-27T09:28:10Z</time>
      </trkpt>
      <trkpt lat="44.9796" lon="4.48379">
        <ele>836</ele>
        <time>2015-11-27T09:28:14Z</time>
      </trkpt>
      <trkpt lat="44.97958" lon="4.4839">
        <ele>835</ele>
        <time>2015-11-27T09:28:20Z</time>
      </trkpt>
      <trkpt lat="44.97954" lon="4.48396">
        <ele>834</ele>
        <time>2015-11-27T09:28:24Z</time>
      </trkpt>
      <trkpt lat="44.97949" lon="4.48404">
        <ele>834</ele>
        <time>2015-11-27T09:28:29Z</time>
      </trkpt>
      <trkpt lat="44.97943" lon="4.48413">
        <ele>833</ele>
        <time>2015-11-27T09:28:33Z</time>
      </trkpt>
      <trkpt lat="44.97938" lon="4.48422">
        <ele>832</ele>
        <time>2015-11-27T09:28:40Z</time>
      </trkpt>
      <trkpt lat="44.97933" lon="4.48431">
        <ele>832</ele>
        <time>2015-11-27T09:28:47Z</time>
      </trkpt>
      <trkpt lat="44.97929" lon="4.48439">
        <ele>832</ele>
        <time>2015-11-27T09:28:51Z</time>
      </trkpt>
      <trkpt lat="44.97924" lon="4.48448">
        <ele>831</ele>
        <time>2015-11-27T09:28:56Z</time>
      </trkpt>
      <trkpt lat="44.9792" lon="4.48457">
        <ele>831</ele>
        <time>2015-11-27T09:29:01Z</time>
      </trkpt>
      <trkpt lat="44.97914" lon="4.48466">
        <ele>831</ele>
        <time>2015-11-27T09:29:08Z</time>
      </trkpt>
      <trkpt lat="44.9791" lon="4.48476">
        <ele>830</ele>
        <time>2015-11-27T09:29:14Z</time>
      </trkpt>
      <trkpt lat="44.97906" lon="4.48485">
        <ele>829</ele>
        <time>2015-11-27T09:29:20Z</time>
      </trkpt>
      <trkpt lat="44.97902" lon="4.48496">
        <ele>829</ele>
        <time>2015-11-27T09:29:28Z</time>
      </trkpt>
      <trkpt lat="44.979" lon="4.48505">
        <ele>828</ele>
        <time>2015-11-27T09:29:32Z</time>
      </trkpt>
      <trkpt lat="44.97894" lon="4.48517">
        <ele>828</ele>
        <time>2015-11-27T09:29:36Z</time>
      </trkpt>
      <trkpt lat="44.97887" lon="4.48524">
        <ele>829</ele>
        <time>2015-11-27T09:29:44Z</time>
      </trkpt>
      <trkpt lat="44.97882" lon="4.48534">
        <ele>830</ele>
        <time>2015-11-27T09:29:56Z</time>
      </trkpt>
      <trkpt lat="44.97878" lon="4.48544">
        <ele>830</ele>
        <time>2015-11-27T09:30:06Z</time>
      </trkpt>
      <trkpt lat="44.97874" lon="4.48557">
        <ele>830</ele>
        <time>2015-11-27T09:30:10Z</time>
      </trkpt>
      <trkpt lat="44.9787" lon="4.48567">
        <ele>830</ele>
        <time>2015-11-27T09:30:15Z</time>
      </trkpt>
      <trkpt lat="44.97865" lon="4.48576">
        <ele>831</ele>
        <time>2015-11-27T09:30:19Z</time>
      </trkpt>
      <trkpt lat="44.9786" lon="4.48585">
        <ele>832</ele>
        <time>2015-11-27T09:30:24Z</time>
      </trkpt>
      <trkpt lat="44.97858" lon="4.48594">
        <ele>833</ele>
        <time>2015-11-27T09:30:31Z</time>
      </trkpt>
      <trkpt lat="44.97857" lon="4.48606">
        <ele>834</ele>
        <time>2015-11-27T09:30:38Z</time>
      </trkpt>
      <trkpt lat="44.97855" lon="4.48617">
        <ele>833</ele>
        <time>2015-11-27T09:30:52Z</time>
      </trkpt>
      <trkpt lat="44.97854" lon="4.48629">
        <ele>833</ele>
        <time>2015-11-27T09:31:14Z</time>
      </trkpt>
      <trkpt lat="44.97849" lon="4.48639">
        <ele>832</ele>
        <time>2015-11-27T09:31:21Z</time>
      </trkpt>
      <trkpt lat="44.97845" lon="4.4865">
        <ele>832</ele>
        <time>2015-11-27T09:31:30Z</time>
      </trkpt>
      <trkpt lat="44.97841" lon="4.48659">
        <ele>831</ele>
        <time>2015-11-27T09:32:03Z</time>
      </trkpt>
      <trkpt lat="44.97837" lon="4.48665">
        <ele>831</ele>
        <time>2015-11-27T09:32:30Z</time>
      </trkpt>
      <trkpt lat="44.97835" lon="4.48677">
        <ele>831</ele>
        <time>2015-11-27T09:32:36Z</time>
      </trkpt>
      <trkpt lat="44.97833" lon="4.48686">
        <ele>831</ele>
        <time>2015-11-27T09:32:40Z</time>
      </trkpt>
      <trkpt lat="44.9783" lon="4.48694">
        <ele>831</ele>
        <time>2015-11-27T09:32:45Z</time>
      </trkpt>
      <trkpt lat="44.97828" lon="4.48706">
        <ele>831</ele>
        <time>2015-11-27T09:32:51Z</time>
      </trkpt>
      <trkpt lat="44.97826" lon="4.48717">
        <ele>831</ele>
        <time>2015-11-27T09:33:00Z</time>
      </trkpt>
      <trkpt lat="44.97824" lon="4.48728">
        <ele>831</ele>
        <time>2015-11-27T09:33:09Z</time>
      </trkpt>
      <trkpt lat="44.97821" lon="4.48739">
        <ele>832</ele>
        <time>2015-11-27T09:33:29Z</time>
      </trkpt>
      <trkpt lat="44.97823" lon="4.48751">
        <ele>832</ele>
        <time>2015-11-27T09:33:41Z</time>
      </trkpt>
      <trkpt lat="44.97822" lon="4.48763">
        <ele>832</ele>
        <time>2015-11-27T09:33:50Z</time>
      </trkpt>
      <trkpt lat="44.97818" lon="4.48773">
        <ele>833</ele>
        <time>2015-11-27T09:34:00Z</time>
      </trkpt>
      <trkpt lat="44.97816" lon="4.48784">
        <ele>833</ele>
        <time>2015-11-27T09:34:12Z</time>
      </trkpt>
      <trkpt lat="44.97813" lon="4.48796">
        <ele>833</ele>
        <time>2015-11-27T09:34:20Z</time>
      </trkpt>
      <trkpt lat="44.97809" lon="4.48804">
        <ele>833</ele>
        <time>2015-11-27T09:34:26Z</time>
      </trkpt>
      <trkpt lat="44.97804" lon="4.48811">
        <ele>833</ele>
        <time>2015-11-27T09:34:34Z</time>
      </trkpt>
      <trkpt lat="44.97796" lon="4.48814">
        <ele>833</ele>
        <time>2015-11-27T09:34:42Z</time>
      </trkpt>
      <trkpt lat="44.97789" lon="4.48815">
        <ele>833</ele>
        <time>2015-11-27T09:34:48Z</time>
      </trkpt>
      <trkpt lat="44.97781" lon="4.48818">
        <ele>833</ele>
        <time>2015-11-27T09:34:54Z</time>
      </trkpt>
      <trkpt lat="44.97773" lon="4.4882">
        <ele>833</ele>
        <time>2015-11-27T09:34:58Z</time>
      </trkpt>
      <trkpt lat="44.97766" lon="4.48817">
        <ele>833</ele>
        <time>2015-11-27T09:35:02Z</time>
      </trkpt>
      <trkpt lat="44.97758" lon="4.48816">
        <ele>831</ele>
        <time>2015-11-27T09:35:14Z</time>
      </trkpt>
      <trkpt lat="44.97755" lon="4.48807">
        <ele>830</ele>
        <time>2015-11-27T09:35:22Z</time>
      </trkpt>
      <trkpt lat="44.97752" lon="4.48797">
        <ele>830</ele>
        <time>2015-11-27T09:35:30Z</time>
      </trkpt>
      <trkpt lat="44.97746" lon="4.4879">
        <ele>829</ele>
        <time>2015-11-27T09:35:35Z</time>
      </trkpt>
      <trkpt lat="44.97742" lon="4.48782">
        <ele>829</ele>
        <time>2015-11-27T09:35:40Z</time>
      </trkpt>
      <trkpt lat="44.97738" lon="4.48771">
        <ele>828</ele>
        <time>2015-11-27T09:35:56Z</time>
      </trkpt>
      <trkpt lat="44.97737" lon="4.48767">
        <ele>829</ele>
        <time>2015-11-27T09:36:18Z</time>
      </trkpt>
      <trkpt lat="44.9773" lon="4.48756">
        <ele>828</ele>
        <time>2015-11-27T09:36:26Z</time>
      </trkpt>
      <trkpt lat="44.97726" lon="4.48746">
        <ele>828</ele>
        <time>2015-11-27T09:36:27Z</time>
      </trkpt>
      <trkpt lat="44.97721" lon="4.48733">
        <ele>828</ele>
        <time>2015-11-27T09:36:33Z</time>
      </trkpt>
      <trkpt lat="44.97715" lon="4.48716">
        <ele>828</ele>
        <time>2015-11-27T09:36:37Z</time>
      </trkpt>
      <trkpt lat="44.97709" lon="4.48703">
        <ele>828</ele>
        <time>2015-11-27T09:36:42Z</time>
      </trkpt>
      <trkpt lat="44.97685" lon="4.4867">
        <ele>825</ele>
        <time>2015-11-27T09:37:00Z</time>
      </trkpt>
      <trkpt lat="44.97676" lon="4.48658">
        <ele>824</ele>
        <time>2015-11-27T09:37:05Z</time>
      </trkpt>
      <trkpt lat="44.97667" lon="4.48646">
        <ele>822</ele>
        <time>2015-11-27T09:37:10Z</time>
      </trkpt>
      <trkpt lat="44.97662" lon="4.48641">
        <ele>822</ele>
        <time>2015-11-27T09:37:12Z</time>
      </trkpt>
      <trkpt lat="44.97646" lon="4.48605">
        <ele>819</ele>
        <time>2015-11-27T09:37:32Z</time>
      </trkpt>
      <trkpt lat="44.97641" lon="4.48594">
        <ele>818</ele>
        <time>2015-11-27T09:37:36Z</time>
      </trkpt>
      <trkpt lat="44.97635" lon="4.48584">
        <ele>818</ele>
        <time>2015-11-27T09:37:40Z</time>
      </trkpt>
      <trkpt lat="44.97634" lon="4.48581">
        <ele>818</ele>
        <time>2015-11-27T09:37:41Z</time>
      </trkpt>
      <trkpt lat="44.97631" lon="4.48567">
        <ele>817</ele>
        <time>2015-11-27T09:37:45Z</time>
      </trkpt>
      <trkpt lat="44.97624" lon="4.48553">
        <ele>817</ele>
        <time>2015-11-27T09:37:49Z</time>
      </trkpt>
      <trkpt lat="44.97613" lon="4.48517">
        <ele>815</ele>
        <time>2015-11-27T09:38:00Z</time>
      </trkpt>
      <trkpt lat="44.97609" lon="4.48498">
        <ele>815</ele>
        <time>2015-11-27T09:38:06Z</time>
      </trkpt>
      <trkpt lat="44.97603" lon="4.4848">
        <ele>814</ele>
        <time>2015-11-27T09:38:11Z</time>
      </trkpt>
      <trkpt lat="44.97602" lon="4.48478">
        <ele>814</ele>
        <time>2015-11-27T09:38:12Z</time>
      </trkpt>
      <trkpt lat="44.97599" lon="4.48463">
        <ele>814</ele>
        <time>2015-11-27T09:38:17Z</time>
      </trkpt>
      <trkpt lat="44.97599" lon="4.4846">
        <ele>814</ele>
        <time>2015-11-27T09:38:17Z</time>
      </trkpt>
      <trkpt lat="44.97592" lon="4.48411">
        <ele>813</ele>
        <time>2015-11-27T09:38:33Z</time>
      </trkpt>
      <trkpt lat="44.97592" lon="4.48404">
        <ele>813</ele>
        <time>2015-11-27T09:38:35Z</time>
      </trkpt>
      <trkpt lat="44.97591" lon="4.48395">
        <ele>813</ele>
        <time>2015-11-27T09:38:38Z</time>
      </trkpt>
      <trkpt lat="44.97592" lon="4.48388">
        <ele>812</ele>
        <time>2015-11-27T09:38:40Z</time>
      </trkpt>
      <trkpt lat="44.9759" lon="4.48375">
        <ele>812</ele>
        <time>2015-11-27T09:38:45Z</time>
      </trkpt>
      <trkpt lat="44.97587" lon="4.48363">
        <ele>812</ele>
        <time>2015-11-27T09:38:49Z</time>
      </trkpt>
      <trkpt lat="44.97587" lon="4.4836">
        <ele>812</ele>
        <time>2015-11-27T09:38:51Z</time>
      </trkpt>
      <trkpt lat="44.97585" lon="4.48347">
        <ele>811</ele>
        <time>2015-11-27T09:38:58Z</time>
      </trkpt>
      <trkpt lat="44.97586" lon="4.48346">
        <ele>811</ele>
        <time>2015-11-27T09:39:00Z</time>
      </trkpt>
      <trkpt lat="44.97585" lon="4.48326">
        <ele>810</ele>
        <time>2015-11-27T09:39:09Z</time>
      </trkpt>
      <trkpt lat="44.97585" lon="4.48313">
        <ele>810</ele>
        <time>2015-11-27T09:39:14Z</time>
      </trkpt>
      <trkpt lat="44.97585" lon="4.48308">
        <ele>810</ele>
        <time>2015-11-27T09:39:16Z</time>
      </trkpt>
      <trkpt lat="44.97593" lon="4.48266">
        <ele>810</ele>
        <time>2015-11-27T09:39:43Z</time>
      </trkpt>
      <trkpt lat="44.97584" lon="4.48234">
        <ele>811</ele>
        <time>2015-11-27T09:39:47Z</time>
      </trkpt>
      <trkpt lat="44.97577" lon="4.48229">
        <ele>811</ele>
        <time>2015-11-27T09:39:52Z</time>
      </trkpt>
      <trkpt lat="44.97567" lon="4.48229">
        <ele>810</ele>
        <time>2015-11-27T09:40:00Z</time>
      </trkpt>
      <trkpt lat="44.97546" lon="4.4823">
        <ele>810</ele>
        <time>2015-11-27T09:40:15Z</time>
      </trkpt>
      <trkpt lat="44.97539" lon="4.48233">
        <ele>810</ele>
        <time>2015-11-27T09:40:18Z</time>
      </trkpt>
      <trkpt lat="44.97528" lon="4.48239">
        <ele>809</ele>
        <time>2015-11-27T09:40:25Z</time>
      </trkpt>
      <trkpt lat="44.97507" lon="4.4825">
        <ele>807</ele>
        <time>2015-11-27T09:40:43Z</time>
      </trkpt>
      <trkpt lat="44.97501" lon="4.48251">
        <ele>806</ele>
        <time>2015-11-27T09:40:45Z</time>
      </trkpt>
      <trkpt lat="44.97492" lon="4.48256">
        <ele>806</ele>
        <time>2015-11-27T09:40:51Z</time>
      </trkpt>
      <trkpt lat="44.97478" lon="4.48261">
        <ele>804</ele>
        <time>2015-11-27T09:40:58Z</time>
      </trkpt>
      <trkpt lat="44.97473" lon="4.48264">
        <ele>804</ele>
        <time>2015-11-27T09:41:00Z</time>
      </trkpt>
      <trkpt lat="44.97465" lon="4.48267">
        <ele>803</ele>
        <time>2015-11-27T09:41:05Z</time>
      </trkpt>
      <trkpt lat="44.97458" lon="4.48273">
        <ele>803</ele>
        <time>2015-11-27T09:41:09Z</time>
      </trkpt>
      <trkpt lat="44.97452" lon="4.48278">
        <ele>803</ele>
        <time>2015-11-27T09:41:11Z</time>
      </trkpt>
      <trkpt lat="44.97437" lon="4.4829">
        <ele>802</ele>
        <time>2015-11-27T09:41:16Z</time>
      </trkpt>
      <trkpt lat="44.97434" lon="4.48291">
        <ele>801</ele>
        <time>2015-11-27T09:41:17Z</time>
      </trkpt>
      <trkpt lat="44.97397" lon="4.48308">
        <ele>798</ele>
        <time>2015-11-27T09:41:31Z</time>
      </trkpt>
      <trkpt lat="44.97392" lon="4.4831">
        <ele>798</ele>
        <time>2015-11-27T09:41:33Z</time>
      </trkpt>
      <trkpt lat="44.97369" lon="4.48312">
        <ele>795</ele>
        <time>2015-11-27T09:41:43Z</time>
      </trkpt>
      <trkpt lat="44.97361" lon="4.48317">
        <ele>794</ele>
        <time>2015-11-27T09:41:49Z</time>
      </trkpt>
      <trkpt lat="44.97353" lon="4.48319">
        <ele>793</ele>
        <time>2015-11-27T09:41:52Z</time>
      </trkpt>
      <trkpt lat="44.97343" lon="4.48325">
        <ele>793</ele>
        <time>2015-11-27T09:41:57Z</time>
      </trkpt>
      <trkpt lat="44.97329" lon="4.48325">
        <ele>792</ele>
        <time>2015-11-27T09:42:00Z</time>
      </trkpt>
      <trkpt lat="44.97318" lon="4.48324">
        <ele>792</ele>
        <time>2015-11-27T09:42:05Z</time>
      </trkpt>
      <trkpt lat="44.97295" lon="4.48332">
        <ele>790</ele>
        <time>2015-11-27T09:42:15Z</time>
      </trkpt>
      <trkpt lat="44.97289" lon="4.48335">
        <ele>789</ele>
        <time>2015-11-27T09:42:17Z</time>
      </trkpt>
      <trkpt lat="44.97247" lon="4.48364">
        <ele>787</ele>
        <time>2015-11-27T09:42:37Z</time>
      </trkpt>
      <trkpt lat="44.9723" lon="4.48387">
        <ele>786</ele>
        <time>2015-11-27T09:42:45Z</time>
      </trkpt>
      <trkpt lat="44.9722" lon="4.48396">
        <ele>785</ele>
        <time>2015-11-27T09:42:50Z</time>
      </trkpt>
      <trkpt lat="44.97216" lon="4.48403">
        <ele>785</ele>
        <time>2015-11-27T09:42:51Z</time>
      </trkpt>
      <trkpt lat="44.97204" lon="4.48417">
        <ele>785</ele>
        <time>2015-11-27T09:42:56Z</time>
      </trkpt>
      <trkpt lat="44.97194" lon="4.48427">
        <ele>785</ele>
        <time>2015-11-27T09:43:00Z</time>
      </trkpt>
      <trkpt lat="44.97182" lon="4.48433">
        <ele>785</ele>
        <time>2015-11-27T09:43:05Z</time>
      </trkpt>
      <trkpt lat="44.97174" lon="4.48434">
        <ele>784</ele>
        <time>2015-11-27T09:43:09Z</time>
      </trkpt>
      <trkpt lat="44.97162" lon="4.48439">
        <ele>784</ele>
        <time>2015-11-27T09:43:14Z</time>
      </trkpt>
      <trkpt lat="44.97157" lon="4.48442">
        <ele>784</ele>
        <time>2015-11-27T09:43:16Z</time>
      </trkpt>
      <trkpt lat="44.97109" lon="4.48457">
        <ele>782</ele>
        <time>2015-11-27T09:43:40Z</time>
      </trkpt>
      <trkpt lat="44.97104" lon="4.48458">
        <ele>781</ele>
        <time>2015-11-27T09:43:42Z</time>
      </trkpt>
      <trkpt lat="44.97095" lon="4.48466">
        <ele>780</ele>
        <time>2015-11-27T09:43:47Z</time>
      </trkpt>
      <trkpt lat="44.97089" lon="4.48473">
        <ele>780</ele>
        <time>2015-11-27T09:43:50Z</time>
      </trkpt>
      <trkpt lat="44.97075" lon="4.48512">
        <ele>778</ele>
        <time>2015-11-27T09:44:00Z</time>
      </trkpt>
      <trkpt lat="44.97071" lon="4.48568">
        <ele>775</ele>
        <time>2015-11-27T09:44:14Z</time>
      </trkpt>
      <trkpt lat="44.97069" lon="4.48586">
        <ele>775</ele>
        <time>2015-11-27T09:44:17Z</time>
      </trkpt>
      <trkpt lat="44.9705" lon="4.48686">
        <ele>770</ele>
        <time>2015-11-27T09:44:45Z</time>
      </trkpt>
      <trkpt lat="44.97043" lon="4.48692">
        <ele>768</ele>
        <time>2015-11-27T09:44:47Z</time>
      </trkpt>
      <trkpt lat="44.97011" lon="4.48714">
        <ele>772</ele>
        <time>2015-11-27T09:45:00Z</time>
      </trkpt>
      <trkpt lat="44.96992" lon="4.48721">
        <ele>775</ele>
        <time>2015-11-27T09:45:09Z</time>
      </trkpt>
      <trkpt lat="44.96979" lon="4.48722">
        <ele>774</ele>
        <time>2015-11-27T09:45:14Z</time>
      </trkpt>
      <trkpt lat="44.96968" lon="4.48723">
        <ele>774</ele>
        <time>2015-11-27T09:45:17Z</time>
      </trkpt>
      <trkpt lat="44.96961" lon="4.48722">
        <ele>775</ele>
        <time>2015-11-27T09:45:19Z</time>
      </trkpt>
      <trkpt lat="44.96944" lon="4.48723">
        <ele>777</ele>
        <time>2015-11-27T09:45:24Z</time>
      </trkpt>
      <trkpt lat="44.96939" lon="4.48723">
        <ele>778</ele>
        <time>2015-11-27T09:45:26Z</time>
      </trkpt>
      <trkpt lat="44.9693" lon="4.48723">
        <ele>778</ele>
        <time>2015-11-27T09:45:30Z</time>
      </trkpt>
      <trkpt lat="44.96923" lon="4.48723">
        <ele>778</ele>
        <time>2015-11-27T09:45:34Z</time>
      </trkpt>
      <trkpt lat="44.969" lon="4.48725">
        <ele>777</ele>
        <time>2015-11-27T09:45:45Z</time>
      </trkpt>
      <trkpt lat="44.96895" lon="4.48724">
        <ele>777</ele>
        <time>2015-11-27T09:45:46Z</time>
      </trkpt>
      <trkpt lat="44.96888" lon="4.48723">
        <ele>777</ele>
        <time>2015-11-27T09:45:52Z</time>
      </trkpt>
      <trkpt lat="44.96884" lon="4.48721">
        <ele>776</ele>
        <time>2015-11-27T09:46:00Z</time>
      </trkpt>
      <trkpt lat="44.96879" lon="4.48722">
        <ele>776</ele>
        <time>2015-11-27T09:46:00Z</time>
      </trkpt>
      <trkpt lat="44.96867" lon="4.48731">
        <ele>776</ele>
        <time>2015-11-27T09:46:16Z</time>
      </trkpt>
      <trkpt lat="44.9686" lon="4.48737">
        <ele>776</ele>
        <time>2015-11-27T09:46:19Z</time>
      </trkpt>
      <trkpt lat="44.96855" lon="4.48743">
        <ele>776</ele>
        <time>2015-11-27T09:46:25Z</time>
      </trkpt>
      <trkpt lat="44.96849" lon="4.48751">
        <ele>777</ele>
        <time>2015-11-27T09:46:39Z</time>
      </trkpt>
      <trkpt lat="44.96847" lon="4.48764">
        <ele>776</ele>
        <time>2015-11-27T09:46:47Z</time>
      </trkpt>
      <trkpt lat="44.96846" lon="4.48766">
        <ele>776</ele>
        <time>2015-11-27T09:46:58Z</time>
      </trkpt>
      <trkpt lat="44.96846" lon="4.48787">
        <ele>776</ele>
        <time>2015-11-27T09:47:00Z</time>
      </trkpt>
      <trkpt lat="44.96842" lon="4.48799">
        <ele>776</ele>
        <time>2015-11-27T09:47:06Z</time>
      </trkpt>
      <trkpt lat="44.9684" lon="4.48807">
        <ele>775</ele>
        <time>2015-11-27T09:47:11Z</time>
      </trkpt>
      <trkpt lat="44.96838" lon="4.48817">
        <ele>775</ele>
        <time>2015-11-27T09:47:16Z</time>
      </trkpt>
      <trkpt lat="44.96829" lon="4.48842">
        <ele>775</ele>
        <time>2015-11-27T09:47:31Z</time>
      </trkpt>
      <trkpt lat="44.96825" lon="4.48854">
        <ele>776</ele>
        <time>2015-11-27T09:47:39Z</time>
      </trkpt>
      <trkpt lat="44.96817" lon="4.48856">
        <ele>776</ele>
        <time>2015-11-27T09:48:00Z</time>
      </trkpt>
      <trkpt lat="44.96806" lon="4.48845">
        <ele>778</ele>
        <time>2015-11-27T09:48:04Z</time>
      </trkpt>
      <trkpt lat="44.96806" lon="4.48844">
        <ele>778</ele>
        <time>2015-11-27T09:48:21Z</time>
      </trkpt>
      <trkpt lat="44.96814" lon="4.48867">
        <ele>778</ele>
        <time>2015-11-27T09:48:37Z</time>
      </trkpt>
      <trkpt lat="44.96815" lon="4.48878">
        <ele>777</ele>
        <time>2015-11-27T09:48:45Z</time>
      </trkpt>
      <trkpt lat="44.96814" lon="4.48882">
        <ele>777</ele>
        <time>2015-11-27T09:49:09Z</time>
      </trkpt>
      <trkpt lat="44.96815" lon="4.48893">
        <ele>779</ele>
        <time>2015-11-27T09:49:47Z</time>
      </trkpt>
      <trkpt lat="44.96812" lon="4.489">
        <ele>778</ele>
        <time>2015-11-27T09:49:51Z</time>
      </trkpt>
      <trkpt lat="44.96811" lon="4.48916">
        <ele>778</ele>
        <time>2015-11-27T09:50:00Z</time>
      </trkpt>
      <trkpt lat="44.96811" lon="4.48928">
        <ele>777</ele>
        <time>2015-11-27T09:50:15Z</time>
      </trkpt>
      <trkpt lat="44.96811" lon="4.48952">
        <ele>776</ele>
        <time>2015-11-27T09:50:17Z</time>
      </trkpt>
      <trkpt lat="44.96812" lon="4.48962">
        <ele>775</ele>
        <time>2015-11-27T09:50:24Z</time>
      </trkpt>
      <trkpt lat="44.96811" lon="4.48967">
        <ele>775</ele>
        <time>2015-11-27T09:50:25Z</time>
      </trkpt>
      <trkpt lat="44.96801" lon="4.49003">
        <ele>774</ele>
        <time>2015-11-27T09:50:46Z</time>
      </trkpt>
      <trkpt lat="44.96798" lon="4.49009">
        <ele>774</ele>
        <time>2015-11-27T09:50:49Z</time>
      </trkpt>
      <trkpt lat="44.96791" lon="4.4902">
        <ele>773</ele>
        <time>2015-11-27T09:50:57Z</time>
      </trkpt>
      <trkpt lat="44.96788" lon="4.49025">
        <ele>773</ele>
        <time>2015-11-27T09:51:00Z</time>
      </trkpt>
      <trkpt lat="44.96785" lon="4.49031">
        <ele>773</ele>
        <time>2015-11-27T09:51:04Z</time>
      </trkpt>
      <trkpt lat="44.96782" lon="4.49039">
        <ele>772</ele>
        <time>2015-11-27T09:51:06Z</time>
      </trkpt>
      <trkpt lat="44.96778" lon="4.49047">
        <ele>772</ele>
        <time>2015-11-27T09:51:11Z</time>
      </trkpt>
      <trkpt lat="44.96774" lon="4.49057">
        <ele>772</ele>
        <time>2015-11-27T09:51:16Z</time>
      </trkpt>
      <trkpt lat="44.96769" lon="4.49066">
        <ele>772</ele>
        <time>2015-11-27T09:51:22Z</time>
      </trkpt>
      <trkpt lat="44.96766" lon="4.49072">
        <ele>772</ele>
        <time>2015-11-27T09:51:26Z</time>
      </trkpt>
      <trkpt lat="44.96758" lon="4.49083">
        <ele>772</ele>
        <time>2015-11-27T09:51:33Z</time>
      </trkpt>
      <trkpt lat="44.96753" lon="4.49092">
        <ele>772</ele>
        <time>2015-11-27T09:51:40Z</time>
      </trkpt>
      <trkpt lat="44.96747" lon="4.49102">
        <ele>771</ele>
        <time>2015-11-27T09:51:48Z</time>
      </trkpt>
      <trkpt lat="44.96741" lon="4.49111">
        <ele>770</ele>
        <time>2015-11-27T09:51:54Z</time>
      </trkpt>
      <trkpt lat="44.96731" lon="4.49124">
        <ele>769</ele>
        <time>2015-11-27T09:52:00Z</time>
      </trkpt>
      <trkpt lat="44.96715" lon="4.49142">
        <ele>768</ele>
        <time>2015-11-27T09:52:07Z</time>
      </trkpt>
      <trkpt lat="44.96713" lon="4.49144">
        <ele>767</ele>
        <time>2015-11-27T09:52:12Z</time>
      </trkpt>
      <trkpt lat="44.96699" lon="4.49167">
        <ele>765</ele>
        <time>2015-11-27T09:52:17Z</time>
      </trkpt>
      <trkpt lat="44.96697" lon="4.49169">
        <ele>765</ele>
        <time>2015-11-27T09:52:18Z</time>
      </trkpt>
      <trkpt lat="44.96692" lon="4.49189">
        <ele>762</ele>
        <time>2015-11-27T09:52:29Z</time>
      </trkpt>
      <trkpt lat="44.96689" lon="4.49194">
        <ele>761</ele>
        <time>2015-11-27T09:52:32Z</time>
      </trkpt>
      <trkpt lat="44.9668" lon="4.49202">
        <ele>759</ele>
        <time>2015-11-27T09:52:40Z</time>
      </trkpt>
      <trkpt lat="44.96672" lon="4.49207">
        <ele>757</ele>
        <time>2015-11-27T09:52:46Z</time>
      </trkpt>
      <trkpt lat="44.96669" lon="4.49207">
        <ele>757</ele>
        <time>2015-11-27T09:52:48Z</time>
      </trkpt>
      <trkpt lat="44.96663" lon="4.49213">
        <ele>756</ele>
        <time>2015-11-27T09:52:52Z</time>
      </trkpt>
      <trkpt lat="44.9666" lon="4.49219">
        <ele>755</ele>
        <time>2015-11-27T09:52:55Z</time>
      </trkpt>
      <trkpt lat="44.96656" lon="4.49226">
        <ele>754</ele>
        <time>2015-11-27T09:53:00Z</time>
      </trkpt>
      <trkpt lat="44.96649" lon="4.49233">
        <ele>753</ele>
        <time>2015-11-27T09:53:09Z</time>
      </trkpt>
      <trkpt lat="44.96641" lon="4.49237">
        <ele>750</ele>
        <time>2015-11-27T09:53:17Z</time>
      </trkpt>
      <trkpt lat="44.96636" lon="4.49241">
        <ele>748</ele>
        <time>2015-11-27T09:53:36Z</time>
      </trkpt>
      <trkpt lat="44.96622" lon="4.49244">
        <ele>746</ele>
        <time>2015-11-27T09:53:36Z</time>
      </trkpt>
      <trkpt lat="44.96613" lon="4.49255">
        <ele>747</ele>
        <time>2015-11-27T09:53:45Z</time>
      </trkpt>
      <trkpt lat="44.96606" lon="4.49259">
        <ele>745</ele>
        <time>2015-11-27T09:53:51Z</time>
      </trkpt>
      <trkpt lat="44.966" lon="4.49267">
        <ele>745</ele>
        <time>2015-11-27T09:53:59Z</time>
      </trkpt>
      <trkpt lat="44.96586" lon="4.49271">
        <ele>743</ele>
        <time>2015-11-27T09:54:09Z</time>
      </trkpt>
      <trkpt lat="44.96578" lon="4.49267">
        <ele>742</ele>
        <time>2015-11-27T09:54:18Z</time>
      </trkpt>
      <trkpt lat="44.96553" lon="4.49264">
        <ele>738</ele>
        <time>2015-11-27T09:54:38Z</time>
      </trkpt>
      <trkpt lat="44.96545" lon="4.49263">
        <ele>737</ele>
        <time>2015-11-27T09:54:44Z</time>
      </trkpt>
      <trkpt lat="44.96537" lon="4.4926">
        <ele>735</ele>
        <time>2015-11-27T09:54:52Z</time>
      </trkpt>
      <trkpt lat="44.96533" lon="4.49251">
        <ele>735</ele>
        <time>2015-11-27T09:55:00Z</time>
      </trkpt>
      <trkpt lat="44.96537" lon="4.49232">
        <ele>739</ele>
        <time>2015-11-27T09:55:04Z</time>
      </trkpt>
      <trkpt lat="44.96535" lon="4.49242">
        <ele>740</ele>
        <time>2015-11-27T09:55:16Z</time>
      </trkpt>
      <trkpt lat="44.96534" lon="4.49246">
        <ele>740</ele>
        <time>2015-11-27T09:55:18Z</time>
      </trkpt>
      <trkpt lat="44.96539" lon="4.49254">
        <ele>739</ele>
        <time>2015-11-27T09:55:28Z</time>
      </trkpt>
      <trkpt lat="44.96539" lon="4.49262">
        <ele>739</ele>
        <time>2015-11-27T09:55:35Z</time>
      </trkpt>
      <trkpt lat="44.96528" lon="4.4925">
        <ele>745</ele>
        <time>2015-11-27T09:55:47Z</time>
      </trkpt>
      <trkpt lat="44.96527" lon="4.49252">
        <ele>745</ele>
        <time>2015-11-27T09:55:48Z</time>
      </trkpt>
      <trkpt lat="44.96526" lon="4.49263">
        <ele>744</ele>
        <time>2015-11-27T09:56:00Z</time>
      </trkpt>
      <trkpt lat="44.96525" lon="4.49269">
        <ele>744</ele>
        <time>2015-11-27T09:56:02Z</time>
      </trkpt>
      <trkpt lat="44.96527" lon="4.4928">
        <ele>743</ele>
        <time>2015-11-27T09:56:11Z</time>
      </trkpt>
      <trkpt lat="44.96526" lon="4.49292">
        <ele>742</ele>
        <time>2015-11-27T09:56:20Z</time>
      </trkpt>
      <trkpt lat="44.96527" lon="4.49306">
        <ele>741</ele>
        <time>2015-11-27T09:56:34Z</time>
      </trkpt>
      <trkpt lat="44.96526" lon="4.49306">
        <ele>741</ele>
        <time>2015-11-27T09:56:34Z</time>
      </trkpt>
      <trkpt lat="44.96526" lon="4.49322">
        <ele>741</ele>
        <time>2015-11-27T09:56:47Z</time>
      </trkpt>
      <trkpt lat="44.96526" lon="4.49333">
        <ele>741</ele>
        <time>2015-11-27T09:56:55Z</time>
      </trkpt>
      <trkpt lat="44.96525" lon="4.49335">
        <ele>741</ele>
        <time>2015-11-27T09:57:05Z</time>
      </trkpt>
      <trkpt lat="44.96519" lon="4.49349">
        <ele>743</ele>
        <time>2015-11-27T09:57:09Z</time>
      </trkpt>
      <trkpt lat="44.96518" lon="4.4935">
        <ele>744</ele>
        <time>2015-11-27T09:57:24Z</time>
      </trkpt>
      <trkpt lat="44.96515" lon="4.49363">
        <ele>749</ele>
        <time>2015-11-27T09:57:39Z</time>
      </trkpt>
      <trkpt lat="44.96513" lon="4.49375">
        <ele>753</ele>
        <time>2015-11-27T09:57:47Z</time>
      </trkpt>
      <trkpt lat="44.96513" lon="4.4938">
        <ele>754</ele>
        <time>2015-11-27T09:57:57Z</time>
      </trkpt>
      <trkpt lat="44.96514" lon="4.49406">
        <ele>755</ele>
        <time>2015-11-27T09:58:00Z</time>
      </trkpt>
      <trkpt lat="44.9651" lon="4.49433">
        <ele>756</ele>
        <time>2015-11-27T09:58:12Z</time>
      </trkpt>
      <trkpt lat="44.9651" lon="4.49437">
        <ele>756</ele>
        <time>2015-11-27T09:58:12Z</time>
      </trkpt>
      <trkpt lat="44.96507" lon="4.4945">
        <ele>756</ele>
        <time>2015-11-27T09:58:18Z</time>
      </trkpt>
      <trkpt lat="44.965" lon="4.4946">
        <ele>756</ele>
        <time>2015-11-27T09:58:22Z</time>
      </trkpt>
      <trkpt lat="44.96497" lon="4.49473">
        <ele>756</ele>
        <time>2015-11-27T09:58:26Z</time>
      </trkpt>
      <trkpt lat="44.96493" lon="4.49488">
        <ele>755</ele>
        <time>2015-11-27T09:58:30Z</time>
      </trkpt>
      <trkpt lat="44.96475" lon="4.49532">
        <ele>755</ele>
        <time>2015-11-27T09:58:44Z</time>
      </trkpt>
      <trkpt lat="44.96468" lon="4.49544">
        <ele>755</ele>
        <time>2015-11-27T09:58:48Z</time>
      </trkpt>
      <trkpt lat="44.96466" lon="4.49546">
        <ele>755</ele>
        <time>2015-11-27T09:58:49Z</time>
      </trkpt>
      <trkpt lat="44.96449" lon="4.49563">
        <ele>754</ele>
        <time>2015-11-27T09:59:00Z</time>
      </trkpt>
      <trkpt lat="44.96443" lon="4.49571">
        <ele>753</ele>
        <time>2015-11-27T09:59:07Z</time>
      </trkpt>
      <trkpt lat="44.96439" lon="4.4958">
        <ele>752</ele>
        <time>2015-11-27T09:59:12Z</time>
      </trkpt>
      <trkpt lat="44.96431" lon="4.49585">
        <ele>752</ele>
        <time>2015-11-27T09:59:19Z</time>
      </trkpt>
      <trkpt lat="44.96421" lon="4.49602">
        <ele>750</ele>
        <time>2015-11-27T09:59:33Z</time>
      </trkpt>
      <trkpt lat="44.96417" lon="4.4961">
        <ele>749</ele>
        <time>2015-11-27T09:59:40Z</time>
      </trkpt>
      <trkpt lat="44.96416" lon="4.49621">
        <ele>748</ele>
        <time>2015-11-27T09:59:45Z</time>
      </trkpt>
      <trkpt lat="44.96413" lon="4.49631">
        <ele>748</ele>
        <time>2015-11-27T09:59:50Z</time>
      </trkpt>
      <trkpt lat="44.96408" lon="4.4965">
        <ele>746</ele>
        <time>2015-11-27T10:00:00Z</time>
      </trkpt>
      <trkpt lat="44.96405" lon="4.4966">
        <ele>746</ele>
        <time>2015-11-27T10:00:06Z</time>
      </trkpt>
      <trkpt lat="44.964" lon="4.49669">
        <ele>745</ele>
        <time>2015-11-27T10:00:11Z</time>
      </trkpt>
      <trkpt lat="44.96397" lon="4.49687">
        <ele>745</ele>
        <time>2015-11-27T10:00:19Z</time>
      </trkpt>
      <trkpt lat="44.96395" lon="4.49698">
        <ele>744</ele>
        <time>2015-11-27T10:00:23Z</time>
      </trkpt>
      <trkpt lat="44.96391" lon="4.49716">
        <ele>742</ele>
        <time>2015-11-27T10:00:36Z</time>
      </trkpt>
      <trkpt lat="44.96387" lon="4.49721">
        <ele>741</ele>
        <time>2015-11-27T10:00:41Z</time>
      </trkpt>
      <trkpt lat="44.9638" lon="4.49726">
        <ele>741</ele>
        <time>2015-11-27T10:00:49Z</time>
      </trkpt>
      <trkpt lat="44.96376" lon="4.49729">
        <ele>741</ele>
        <time>2015-11-27T10:00:50Z</time>
      </trkpt>
      <trkpt lat="44.9637" lon="4.49741">
        <ele>741</ele>
        <time>2015-11-27T10:00:56Z</time>
      </trkpt>
      <trkpt lat="44.96368" lon="4.49747">
        <ele>741</ele>
        <time>2015-11-27T10:01:00Z</time>
      </trkpt>
      <trkpt lat="44.96357" lon="4.49764">
        <ele>740</ele>
        <time>2015-11-27T10:01:09Z</time>
      </trkpt>
      <trkpt lat="44.96352" lon="4.4977">
        <ele>740</ele>
        <time>2015-11-27T10:01:16Z</time>
      </trkpt>
      <trkpt lat="44.96349" lon="4.4978">
        <ele>739</ele>
        <time>2015-11-27T10:01:22Z</time>
      </trkpt>
      <trkpt lat="44.96347" lon="4.49784">
        <ele>739</ele>
        <time>2015-11-27T10:01:34Z</time>
      </trkpt>
      <trkpt lat="44.96343" lon="4.49794">
        <ele>738</ele>
        <time>2015-11-27T10:01:34Z</time>
      </trkpt>
      <trkpt lat="44.96334" lon="4.49818">
        <ele>737</ele>
        <time>2015-11-27T10:01:48Z</time>
      </trkpt>
      <trkpt lat="44.96334" lon="4.49825">
        <ele>737</ele>
        <time>2015-11-27T10:01:52Z</time>
      </trkpt>
      <trkpt lat="44.96332" lon="4.49843">
        <ele>738</ele>
        <time>2015-11-27T10:02:00Z</time>
      </trkpt>
      <trkpt lat="44.9633" lon="4.49852">
        <ele>738</ele>
        <time>2015-11-27T10:02:04Z</time>
      </trkpt>
      <trkpt lat="44.96326" lon="4.4986">
        <ele>737</ele>
        <time>2015-11-27T10:02:08Z</time>
      </trkpt>
      <trkpt lat="44.96324" lon="4.49867">
        <ele>737</ele>
        <time>2015-11-27T10:02:12Z</time>
      </trkpt>
      <trkpt lat="44.9632" lon="4.49875">
        <ele>737</ele>
        <time>2015-11-27T10:02:18Z</time>
      </trkpt>
      <trkpt lat="44.96315" lon="4.49885">
        <ele>738</ele>
        <time>2015-11-27T10:02:25Z</time>
      </trkpt>
      <trkpt lat="44.9631" lon="4.49896">
        <ele>738</ele>
        <time>2015-11-27T10:02:37Z</time>
      </trkpt>
      <trkpt lat="44.96302" lon="4.49909">
        <ele>738</ele>
        <time>2015-11-27T10:02:48Z</time>
      </trkpt>
      <trkpt lat="44.963" lon="4.49913">
        <ele>739</ele>
        <time>2015-11-27T10:02:54Z</time>
      </trkpt>
      <trkpt lat="44.96297" lon="4.4992">
        <ele>739</ele>
        <time>2015-11-27T10:02:54Z</time>
      </trkpt>
      <trkpt lat="44.96291" lon="4.4993">
        <ele>739</ele>
        <time>2015-11-27T10:03:00Z</time>
      </trkpt>
      <trkpt lat="44.9629" lon="4.49947">
        <ele>740</ele>
        <time>2015-11-27T10:03:09Z</time>
      </trkpt>
      <trkpt lat="44.96288" lon="4.49957">
        <ele>742</ele>
        <time>2015-11-27T10:03:14Z</time>
      </trkpt>
      <trkpt lat="44.96287" lon="4.49972">
        <ele>745</ele>
        <time>2015-11-27T10:03:19Z</time>
      </trkpt>
      <trkpt lat="44.96288" lon="4.49976">
        <ele>745</ele>
        <time>2015-11-27T10:03:21Z</time>
      </trkpt>
      <trkpt lat="44.96289" lon="4.4999">
        <ele>749</ele>
        <time>2015-11-27T10:03:27Z</time>
      </trkpt>
      <trkpt lat="44.96289" lon="4.5">
        <ele>752</ele>
        <time>2015-11-27T10:03:34Z</time>
      </trkpt>
      <trkpt lat="44.96291" lon="4.50018">
        <ele>757</ele>
        <time>2015-11-27T10:03:43Z</time>
      </trkpt>
      <trkpt lat="44.96291" lon="4.50027">
        <ele>762</ele>
        <time>2015-11-27T10:04:01Z</time>
      </trkpt>
      <trkpt lat="44.96292" lon="4.5008">
        <ele>775</ele>
        <time>2015-11-27T10:04:16Z</time>
      </trkpt>
      <trkpt lat="44.9629" lon="4.50089">
        <ele>778</ele>
        <time>2015-11-27T10:04:34Z</time>
      </trkpt>
      <trkpt lat="44.96282" lon="4.50126">
        <ele>807</ele>
        <time>2015-11-27T10:04:34Z</time>
      </trkpt>
      <trkpt lat="44.96281" lon="4.50131">
        <ele>813</ele>
        <time>2015-11-27T10:04:48Z</time>
      </trkpt>
      <trkpt lat="44.96279" lon="4.50141">
        <ele>821</ele>
        <time>2015-11-27T10:05:00Z</time>
      </trkpt>
      <trkpt lat="44.96279" lon="4.50154">
        <ele>824</ele>
        <time>2015-11-27T10:05:07Z</time>
      </trkpt>
      <trkpt lat="44.96281" lon="4.50165">
        <ele>825</ele>
        <time>2015-11-27T10:05:16Z</time>
      </trkpt>
      <trkpt lat="44.96281" lon="4.50172">
        <ele>825</ele>
        <time>2015-11-27T10:05:22Z</time>
      </trkpt>
      <trkpt lat="44.96285" lon="4.50193">
        <ele>825</ele>
        <time>2015-11-27T10:05:32Z</time>
      </trkpt>
      <trkpt lat="44.96283" lon="4.50208">
        <ele>825</ele>
        <time>2015-11-27T10:05:39Z</time>
      </trkpt>
      <trkpt lat="44.96285" lon="4.5023">
        <ele>824</ele>
        <time>2015-11-27T10:05:44Z</time>
      </trkpt>
      <trkpt lat="44.96288" lon="4.50243">
        <ele>824</ele>
        <time>2015-11-27T10:05:49Z</time>
      </trkpt>
      <trkpt lat="44.9629" lon="4.50256">
        <ele>824</ele>
        <time>2015-11-27T10:05:52Z</time>
      </trkpt>
      <trkpt lat="44.96289" lon="4.50275">
        <ele>824</ele>
        <time>2015-11-27T10:05:57Z</time>
      </trkpt>
      <trkpt lat="44.9629" lon="4.50285">
        <ele>824</ele>
        <time>2015-11-27T10:06:00Z</time>
      </trkpt>
      <trkpt lat="44.96291" lon="4.50298">
        <ele>824</ele>
        <time>2015-11-27T10:06:04Z</time>
      </trkpt>
      <trkpt lat="44.96293" lon="4.50311">
        <ele>825</ele>
        <time>2015-11-27T10:06:08Z</time>
      </trkpt>
      <trkpt lat="44.96294" lon="4.50332">
        <ele>825</ele>
        <time>2015-11-27T10:06:13Z</time>
      </trkpt>
      <trkpt lat="44.96294" lon="4.50351">
        <ele>825</ele>
        <time>2015-11-27T10:06:18Z</time>
      </trkpt>
      <trkpt lat="44.96297" lon="4.50366">
        <ele>825</ele>
        <time>2015-11-27T10:06:22Z</time>
      </trkpt>
      <trkpt lat="44.96297" lon="4.50379">
        <ele>825</ele>
        <time>2015-11-27T10:06:26Z</time>
      </trkpt>
      <trkpt lat="44.96298" lon="4.50383">
        <ele>825</ele>
        <time>2015-11-27T10:06:30Z</time>
      </trkpt>
      <trkpt lat="44.96299" lon="4.50395">
        <ele>825</ele>
        <time>2015-11-27T10:06:36Z</time>
      </trkpt>
      <trkpt lat="44.96305" lon="4.50414">
        <ele>825</ele>
        <time>2015-11-27T10:06:36Z</time>
      </trkpt>
      <trkpt lat="44.96306" lon="4.50433">
        <ele>825</ele>
        <time>2015-11-27T10:06:41Z</time>
      </trkpt>
      <trkpt lat="44.96309" lon="4.50447">
        <ele>825</ele>
        <time>2015-11-27T10:06:46Z</time>
      </trkpt>
      <trkpt lat="44.96311" lon="4.50465">
        <ele>825</ele>
        <time>2015-11-27T10:06:50Z</time>
      </trkpt>
      <trkpt lat="44.96311" lon="4.50469">
        <ele>825</ele>
        <time>2015-11-27T10:06:51Z</time>
      </trkpt>
      <trkpt lat="44.96316" lon="4.50495">
        <ele>825</ele>
        <time>2015-11-27T10:07:00Z</time>
      </trkpt>
      <trkpt lat="44.96318" lon="4.505">
        <ele>825</ele>
        <time>2015-11-27T10:07:02Z</time>
      </trkpt>
      <trkpt lat="44.96321" lon="4.50509">
        <ele>824</ele>
        <time>2015-11-27T10:07:06Z</time>
      </trkpt>
      <trkpt lat="44.9633" lon="4.50526">
        <ele>824</ele>
        <time>2015-11-27T10:07:11Z</time>
      </trkpt>
      <trkpt lat="44.96334" lon="4.50537">
        <ele>824</ele>
        <time>2015-11-27T10:07:15Z</time>
      </trkpt>
      <trkpt lat="44.96337" lon="4.50548">
        <ele>824</ele>
        <time>2015-11-27T10:07:21Z</time>
      </trkpt>
      <trkpt lat="44.96334" lon="4.50568">
        <ele>823</ele>
        <time>2015-11-27T10:07:30Z</time>
      </trkpt>
      <trkpt lat="44.96338" lon="4.50579">
        <ele>823</ele>
        <time>2015-11-27T10:07:36Z</time>
      </trkpt>
      <trkpt lat="44.96343" lon="4.50589">
        <ele>823</ele>
        <time>2015-11-27T10:07:42Z</time>
      </trkpt>
      <trkpt lat="44.96348" lon="4.50597">
        <ele>824</ele>
        <time>2015-11-27T10:07:47Z</time>
      </trkpt>
      <trkpt lat="44.96353" lon="4.50603">
        <ele>824</ele>
        <time>2015-11-27T10:07:51Z</time>
      </trkpt>
      <trkpt lat="44.96355" lon="4.50606">
        <ele>824</ele>
        <time>2015-11-27T10:07:53Z</time>
      </trkpt>
      <trkpt lat="44.96362" lon="4.50614">
        <ele>824</ele>
        <time>2015-11-27T10:07:59Z</time>
      </trkpt>
      <trkpt lat="44.96367" lon="4.5062">
        <ele>824</ele>
        <time>2015-11-27T10:08:05Z</time>
      </trkpt>
      <trkpt lat="44.96371" lon="4.50626">
        <ele>824</ele>
        <time>2015-11-27T10:08:08Z</time>
      </trkpt>
      <trkpt lat="44.96376" lon="4.50635">
        <ele>824</ele>
        <time>2015-11-27T10:08:14Z</time>
      </trkpt>
      <trkpt lat="44.96382" lon="4.50642">
        <ele>823</ele>
        <time>2015-11-27T10:08:21Z</time>
      </trkpt>
      <trkpt lat="44.96387" lon="4.50645">
        <ele>823</ele>
        <time>2015-11-27T10:08:26Z</time>
      </trkpt>
      <trkpt lat="44.96395" lon="4.50658">
        <ele>822</ele>
        <time>2015-11-27T10:08:35Z</time>
      </trkpt>
      <trkpt lat="44.96402" lon="4.50674">
        <ele>821</ele>
        <time>2015-11-27T10:08:47Z</time>
      </trkpt>
      <trkpt lat="44.96404" lon="4.5068">
        <ele>821</ele>
        <time>2015-11-27T10:08:54Z</time>
      </trkpt>
      <trkpt lat="44.96417" lon="4.50689">
        <ele>820</ele>
        <time>2015-11-27T10:09:00Z</time>
      </trkpt>
      <trkpt lat="44.96435" lon="4.50702">
        <ele>819</ele>
        <time>2015-11-27T10:09:11Z</time>
      </trkpt>
      <trkpt lat="44.96442" lon="4.50709">
        <ele>819</ele>
        <time>2015-11-27T10:09:15Z</time>
      </trkpt>
      <trkpt lat="44.96447" lon="4.50712">
        <ele>818</ele>
        <time>2015-11-27T10:09:17Z</time>
      </trkpt>
      <trkpt lat="44.96451" lon="4.50717">
        <ele>818</ele>
        <time>2015-11-27T10:09:20Z</time>
      </trkpt>
      <trkpt lat="44.96455" lon="4.50719">
        <ele>818</ele>
        <time>2015-11-27T10:09:29Z</time>
      </trkpt>
      <trkpt lat="44.96465" lon="4.50731">
        <ele>818</ele>
        <time>2015-11-27T10:09:30Z</time>
      </trkpt>
      <trkpt lat="44.96483" lon="4.50748">
        <ele>816</ele>
        <time>2015-11-27T10:09:44Z</time>
      </trkpt>
      <trkpt lat="44.96489" lon="4.50753">
        <ele>815</ele>
        <time>2015-11-27T10:09:50Z</time>
      </trkpt>
      <trkpt lat="44.96492" lon="4.50755">
        <ele>815</ele>
        <time>2015-11-27T10:10:00Z</time>
      </trkpt>
      <trkpt lat="44.96502" lon="4.50766">
        <ele>814</ele>
        <time>2015-11-27T10:10:02Z</time>
      </trkpt>
      <trkpt lat="44.96506" lon="4.50772">
        <ele>813</ele>
        <time>2015-11-27T10:10:11Z</time>
      </trkpt>
      <trkpt lat="44.96516" lon="4.50785">
        <ele>810</ele>
        <time>2015-11-27T10:10:13Z</time>
      </trkpt>
      <trkpt lat="44.96521" lon="4.50789">
        <ele>811</ele>
        <time>2015-11-27T10:10:19Z</time>
      </trkpt>
      <trkpt lat="44.96531" lon="4.50798">
        <ele>810</ele>
        <time>2015-11-27T10:10:21Z</time>
      </trkpt>
      <trkpt lat="44.96534" lon="4.50805">
        <ele>810</ele>
        <time>2015-11-27T10:10:25Z</time>
      </trkpt>
      <trkpt lat="44.96545" lon="4.50831">
        <ele>807</ele>
        <time>2015-11-27T10:10:50Z</time>
      </trkpt>
      <trkpt lat="44.96575" lon="4.50879">
        <ele>802</ele>
        <time>2015-11-27T10:10:54Z</time>
      </trkpt>
      <trkpt lat="44.9658" lon="4.50883">
        <ele>802</ele>
        <time>2015-11-27T10:10:56Z</time>
      </trkpt>
      <trkpt lat="44.96584" lon="4.50888">
        <ele>801</ele>
        <time>2015-11-27T10:11:00Z</time>
      </trkpt>
      <trkpt lat="44.96589" lon="4.50893">
        <ele>800</ele>
        <time>2015-11-27T10:11:02Z</time>
      </trkpt>
      <trkpt lat="44.96593" lon="4.50897">
        <ele>799</ele>
        <time>2015-11-27T10:11:10Z</time>
      </trkpt>
      <trkpt lat="44.96606" lon="4.50919">
        <ele>797</ele>
        <time>2015-11-27T10:11:14Z</time>
      </trkpt>
      <trkpt lat="44.96614" lon="4.50928">
        <ele>796</ele>
        <time>2015-11-27T10:11:18Z</time>
      </trkpt>
      <trkpt lat="44.96624" lon="4.50935">
        <ele>795</ele>
        <time>2015-11-27T10:11:22Z</time>
      </trkpt>
      <trkpt lat="44.96639" lon="4.50949">
        <ele>793</ele>
        <time>2015-11-27T10:11:30Z</time>
      </trkpt>
      <trkpt lat="44.96647" lon="4.50956">
        <ele>792</ele>
        <time>2015-11-27T10:11:33Z</time>
      </trkpt>
      <trkpt lat="44.96653" lon="4.50972">
        <ele>789</ele>
        <time>2015-11-27T10:11:42Z</time>
      </trkpt>
      <trkpt lat="44.96659" lon="4.50981">
        <ele>788</ele>
        <time>2015-11-27T10:11:46Z</time>
      </trkpt>
      <trkpt lat="44.96661" lon="4.50987">
        <ele>787</ele>
        <time>2015-11-27T10:11:50Z</time>
      </trkpt>
      <trkpt lat="44.96664" lon="4.50994">
        <ele>786</ele>
        <time>2015-11-27T10:12:00Z</time>
      </trkpt>
      <trkpt lat="44.96672" lon="4.51011">
        <ele>783</ele>
        <time>2015-11-27T10:12:00Z</time>
      </trkpt>
      <trkpt lat="44.96679" lon="4.5103">
        <ele>781</ele>
        <time>2015-11-27T10:12:06Z</time>
      </trkpt>
      <trkpt lat="44.96693" lon="4.51056">
        <ele>779</ele>
        <time>2015-11-27T10:12:16Z</time>
      </trkpt>
      <trkpt lat="44.967" lon="4.51063">
        <ele>778</ele>
        <time>2015-11-27T10:12:20Z</time>
      </trkpt>
      <trkpt lat="44.96703" lon="4.51066">
        <ele>777</ele>
        <time>2015-11-27T10:12:22Z</time>
      </trkpt>
      <trkpt lat="44.96719" lon="4.51091">
        <ele>774</ele>
        <time>2015-11-27T10:12:35Z</time>
      </trkpt>
      <trkpt lat="44.96729" lon="4.51097">
        <ele>772</ele>
        <time>2015-11-27T10:12:39Z</time>
      </trkpt>
      <trkpt lat="44.96753" lon="4.51112">
        <ele>767</ele>
        <time>2015-11-27T10:12:48Z</time>
      </trkpt>
      <trkpt lat="44.96759" lon="4.51124">
        <ele>766</ele>
        <time>2015-11-27T10:12:52Z</time>
      </trkpt>
      <trkpt lat="44.96767" lon="4.51131">
        <ele>764</ele>
        <time>2015-11-27T10:12:56Z</time>
      </trkpt>
      <trkpt lat="44.96771" lon="4.5114">
        <ele>763</ele>
        <time>2015-11-27T10:13:00Z</time>
      </trkpt>
      <trkpt lat="44.96784" lon="4.51151">
        <ele>761</ele>
        <time>2015-11-27T10:13:08Z</time>
      </trkpt>
      <trkpt lat="44.96801" lon="4.51162">
        <ele>759</ele>
        <time>2015-11-27T10:13:13Z</time>
      </trkpt>
      <trkpt lat="44.9681" lon="4.51173">
        <ele>758</ele>
        <time>2015-11-27T10:13:17Z</time>
      </trkpt>
      <trkpt lat="44.96819" lon="4.51181">
        <ele>756</ele>
        <time>2015-11-27T10:13:21Z</time>
      </trkpt>
      <trkpt lat="44.96825" lon="4.51199">
        <ele>754</ele>
        <time>2015-11-27T10:13:29Z</time>
      </trkpt>
      <trkpt lat="44.96831" lon="4.51203">
        <ele>756</ele>
        <time>2015-11-27T10:13:36Z</time>
      </trkpt>
      <trkpt lat="44.9684" lon="4.51203">
        <ele>756</ele>
        <time>2015-11-27T10:13:48Z</time>
      </trkpt>
      <trkpt lat="44.96846" lon="4.51206">
        <ele>755</ele>
        <time>2015-11-27T10:13:54Z</time>
      </trkpt>
      <trkpt lat="44.96852" lon="4.5121">
        <ele>753</ele>
        <time>2015-11-27T10:14:00Z</time>
      </trkpt>
      <trkpt lat="44.96855" lon="4.51212">
        <ele>753</ele>
        <time>2015-11-27T10:14:01Z</time>
      </trkpt>
      <trkpt lat="44.96868" lon="4.5122">
        <ele>754</ele>
        <time>2015-11-27T10:14:20Z</time>
      </trkpt>
      <trkpt lat="44.96868" lon="4.5122">
        <ele>754</ele>
        <time>2015-11-27T10:14:35Z</time>
      </trkpt>
      <trkpt lat="44.9688" lon="4.5123">
        <ele>755</ele>
        <time>2015-11-27T10:14:51Z</time>
      </trkpt>
      <trkpt lat="44.96887" lon="4.51237">
        <ele>754</ele>
        <time>2015-11-27T10:15:00Z</time>
      </trkpt>
      <trkpt lat="44.96896" lon="4.51251">
        <ele>753</ele>
        <time>2015-11-27T10:15:10Z</time>
      </trkpt>
      <trkpt lat="44.96898" lon="4.51254">
        <ele>753</ele>
        <time>2015-11-27T10:15:12Z</time>
      </trkpt>
      <trkpt lat="44.96903" lon="4.51266">
        <ele>752</ele>
        <time>2015-11-27T10:15:17Z</time>
      </trkpt>
      <trkpt lat="44.96906" lon="4.51278">
        <ele>752</ele>
        <time>2015-11-27T10:15:23Z</time>
      </trkpt>
      <trkpt lat="44.9691" lon="4.51287">
        <ele>752</ele>
        <time>2015-11-27T10:15:27Z</time>
      </trkpt>
      <trkpt lat="44.96915" lon="4.51297">
        <ele>751</ele>
        <time>2015-11-27T10:15:33Z</time>
      </trkpt>
      <trkpt lat="44.96944" lon="4.51325">
        <ele>750</ele>
        <time>2015-11-27T10:15:50Z</time>
      </trkpt>
      <trkpt lat="44.96947" lon="4.51331">
        <ele>748</ele>
        <time>2015-11-27T10:16:00Z</time>
      </trkpt>
      <trkpt lat="44.96952" lon="4.51344">
        <ele>747</ele>
        <time>2015-11-27T10:16:00Z</time>
      </trkpt>
      <trkpt lat="44.96966" lon="4.51358">
        <ele>744</ele>
        <time>2015-11-27T10:16:05Z</time>
      </trkpt>
      <trkpt lat="44.96974" lon="4.51361">
        <ele>743</ele>
        <time>2015-11-27T10:16:09Z</time>
      </trkpt>
      <trkpt lat="44.96982" lon="4.5137">
        <ele>741</ele>
        <time>2015-11-27T10:16:15Z</time>
      </trkpt>
      <trkpt lat="44.96986" lon="4.51378">
        <ele>740</ele>
        <time>2015-11-27T10:16:20Z</time>
      </trkpt>
      <trkpt lat="44.96989" lon="4.5138">
        <ele>739</ele>
        <time>2015-11-27T10:16:22Z</time>
      </trkpt>
      <trkpt lat="44.97004" lon="4.51398">
        <ele>736</ele>
        <time>2015-11-27T10:16:33Z</time>
      </trkpt>
      <trkpt lat="44.97009" lon="4.51403">
        <ele>735</ele>
        <time>2015-11-27T10:16:38Z</time>
      </trkpt>
      <trkpt lat="44.97022" lon="4.51417">
        <ele>732</ele>
        <time>2015-11-27T10:16:42Z</time>
      </trkpt>
      <trkpt lat="44.97031" lon="4.51425">
        <ele>730</ele>
        <time>2015-11-27T10:16:50Z</time>
      </trkpt>
      <trkpt lat="44.97032" lon="4.51427">
        <ele>729</ele>
        <time>2015-11-27T10:16:52Z</time>
      </trkpt>
      <trkpt lat="44.97037" lon="4.51438">
        <ele>727</ele>
        <time>2015-11-27T10:17:00Z</time>
      </trkpt>
      <trkpt lat="44.97051" lon="4.51447">
        <ele>730</ele>
        <time>2015-11-27T10:17:06Z</time>
      </trkpt>
      <trkpt lat="44.97057" lon="4.51456">
        <ele>730</ele>
        <time>2015-11-27T10:17:20Z</time>
      </trkpt>
      <trkpt lat="44.97064" lon="4.51458">
        <ele>730</ele>
        <time>2015-11-27T10:18:22Z</time>
      </trkpt>
      <trkpt lat="44.97076" lon="4.51491">
        <ele>733</ele>
        <time>2015-11-27T10:18:42Z</time>
      </trkpt>
      <trkpt lat="44.9708" lon="4.515">
        <ele>733</ele>
        <time>2015-11-27T10:18:50Z</time>
      </trkpt>
      <trkpt lat="44.97081" lon="4.51503">
        <ele>733</ele>
        <time>2015-11-27T10:18:51Z</time>
      </trkpt>
      <trkpt lat="44.97086" lon="4.51515">
        <ele>733</ele>
        <time>2015-11-27T10:19:00Z</time>
      </trkpt>
      <trkpt lat="44.97089" lon="4.51526">
        <ele>733</ele>
        <time>2015-11-27T10:19:11Z</time>
      </trkpt>
      <trkpt lat="44.97091" lon="4.51532">
        <ele>733</ele>
        <time>2015-11-27T10:19:13Z</time>
      </trkpt>
      <trkpt lat="44.97094" lon="4.5154">
        <ele>733</ele>
        <time>2015-11-27T10:19:18Z</time>
      </trkpt>
      <trkpt lat="44.971" lon="4.51548">
        <ele>733</ele>
        <time>2015-11-27T10:19:22Z</time>
      </trkpt>
      <trkpt lat="44.97101" lon="4.51553">
        <ele>733</ele>
        <time>2015-11-27T10:19:25Z</time>
      </trkpt>
      <trkpt lat="44.97109" lon="4.51568">
        <ele>733</ele>
        <time>2015-11-27T10:19:30Z</time>
      </trkpt>
      <trkpt lat="44.97121" lon="4.51594">
        <ele>732</ele>
        <time>2015-11-27T10:19:45Z</time>
      </trkpt>
      <trkpt lat="44.97128" lon="4.51608">
        <ele>732</ele>
        <time>2015-11-27T10:19:47Z</time>
      </trkpt>
      <trkpt lat="44.97134" lon="4.51622">
        <ele>732</ele>
        <time>2015-11-27T10:19:52Z</time>
      </trkpt>
      <trkpt lat="44.97137" lon="4.51634">
        <ele>732</ele>
        <time>2015-11-27T10:19:57Z</time>
      </trkpt>
      <trkpt lat="44.97145" lon="4.5164">
        <ele>731</ele>
        <time>2015-11-27T10:20:00Z</time>
      </trkpt>
      <trkpt lat="44.97166" lon="4.51661">
        <ele>731</ele>
        <time>2015-11-27T10:20:21Z</time>
      </trkpt>
      <trkpt lat="44.97184" lon="4.51697">
        <ele>729</ele>
        <time>2015-11-27T10:20:25Z</time>
      </trkpt>
      <trkpt lat="44.97184" lon="4.51699">
        <ele>729</ele>
        <time>2015-11-27T10:20:27Z</time>
      </trkpt>
      <trkpt lat="44.97186" lon="4.51713">
        <ele>729</ele>
        <time>2015-11-27T10:20:32Z</time>
      </trkpt>
      <trkpt lat="44.97186" lon="4.51722">
        <ele>728</ele>
        <time>2015-11-27T10:20:34Z</time>
      </trkpt>
      <trkpt lat="44.97194" lon="4.51754">
        <ele>728</ele>
        <time>2015-11-27T10:20:42Z</time>
      </trkpt>
      <trkpt lat="44.97199" lon="4.51773">
        <ele>728</ele>
        <time>2015-11-27T10:20:45Z</time>
      </trkpt>
      <trkpt lat="44.972" lon="4.51783">
        <ele>728</ele>
        <time>2015-11-27T10:20:48Z</time>
      </trkpt>
      <trkpt lat="44.97203" lon="4.51796">
        <ele>728</ele>
        <time>2015-11-27T10:20:53Z</time>
      </trkpt>
      <trkpt lat="44.97207" lon="4.51809">
        <ele>728</ele>
        <time>2015-11-27T10:20:56Z</time>
      </trkpt>
      <trkpt lat="44.97209" lon="4.51818">
        <ele>728</ele>
        <time>2015-11-27T10:21:00Z</time>
      </trkpt>
      <trkpt lat="44.97214" lon="4.51833">
        <ele>728</ele>
        <time>2015-11-27T10:21:05Z</time>
      </trkpt>
      <trkpt lat="44.97219" lon="4.51847">
        <ele>727</ele>
        <time>2015-11-27T10:21:09Z</time>
      </trkpt>
      <trkpt lat="44.97221" lon="4.51863">
        <ele>727</ele>
        <time>2015-11-27T10:21:12Z</time>
      </trkpt>
      <trkpt lat="44.97224" lon="4.51878">
        <ele>726</ele>
        <time>2015-11-27T10:21:16Z</time>
      </trkpt>
      <trkpt lat="44.97229" lon="4.51889">
        <ele>725</ele>
        <time>2015-11-27T10:21:20Z</time>
      </trkpt>
      <trkpt lat="44.97235" lon="4.51906">
        <ele>725</ele>
        <time>2015-11-27T10:21:24Z</time>
      </trkpt>
      <trkpt lat="44.97237" lon="4.51919">
        <ele>725</ele>
        <time>2015-11-27T10:21:28Z</time>
      </trkpt>
      <trkpt lat="44.97243" lon="4.51929">
        <ele>724</ele>
        <time>2015-11-27T10:21:32Z</time>
      </trkpt>
      <trkpt lat="44.97245" lon="4.51938">
        <ele>725</ele>
        <time>2015-11-27T10:21:34Z</time>
      </trkpt>
      <trkpt lat="44.97256" lon="4.51974">
        <ele>722</ele>
        <time>2015-11-27T10:21:48Z</time>
      </trkpt>
      <trkpt lat="44.97262" lon="4.51985">
        <ele>720</ele>
        <time>2015-11-27T10:21:53Z</time>
      </trkpt>
      <trkpt lat="44.9727" lon="4.51999">
        <ele>719</ele>
        <time>2015-11-27T10:22:01Z</time>
      </trkpt>
      <trkpt lat="44.9728" lon="4.5201">
        <ele>717</ele>
        <time>2015-11-27T10:22:05Z</time>
      </trkpt>
      <trkpt lat="44.97281" lon="4.52012">
        <ele>717</ele>
        <time>2015-11-27T10:22:06Z</time>
      </trkpt>
      <trkpt lat="44.97305" lon="4.52045">
        <ele>713</ele>
        <time>2015-11-27T10:22:21Z</time>
      </trkpt>
      <trkpt lat="44.97308" lon="4.52051">
        <ele>712</ele>
        <time>2015-11-27T10:22:43Z</time>
      </trkpt>
      <trkpt lat="44.97327" lon="4.52087">
        <ele>709</ele>
        <time>2015-11-27T10:22:45Z</time>
      </trkpt>
      <trkpt lat="44.97332" lon="4.5209">
        <ele>708</ele>
        <time>2015-11-27T10:22:51Z</time>
      </trkpt>
      <trkpt lat="44.97353" lon="4.5209">
        <ele>700</ele>
        <time>2015-11-27T10:22:56Z</time>
      </trkpt>
      <trkpt lat="44.97364" lon="4.52085">
        <ele>695</ele>
        <time>2015-11-27T10:23:00Z</time>
      </trkpt>
      <trkpt lat="44.97375" lon="4.52077">
        <ele>691</ele>
        <time>2015-11-27T10:23:05Z</time>
      </trkpt>
      <trkpt lat="44.97385" lon="4.5207">
        <ele>690</ele>
        <time>2015-11-27T10:23:09Z</time>
      </trkpt>
      <trkpt lat="44.97391" lon="4.52063">
        <ele>689</ele>
        <time>2015-11-27T10:23:12Z</time>
      </trkpt>
      <trkpt lat="44.97407" lon="4.52046">
        <ele>686</ele>
        <time>2015-11-27T10:23:22Z</time>
      </trkpt>
      <trkpt lat="44.97414" lon="4.5204">
        <ele>685</ele>
        <time>2015-11-27T10:23:26Z</time>
      </trkpt>
      <trkpt lat="44.9742" lon="4.52037">
        <ele>684</ele>
        <time>2015-11-27T10:23:28Z</time>
      </trkpt>
      <trkpt lat="44.97441" lon="4.52019">
        <ele>678</ele>
        <time>2015-11-27T10:23:43Z</time>
      </trkpt>
      <trkpt lat="44.97448" lon="4.52016">
        <ele>676</ele>
        <time>2015-11-27T10:23:47Z</time>
      </trkpt>
      <trkpt lat="44.97457" lon="4.52014">
        <ele>672</ele>
        <time>2015-11-27T10:23:54Z</time>
      </trkpt>
      <trkpt lat="44.97457" lon="4.52001">
        <ele>672</ele>
        <time>2015-11-27T10:23:58Z</time>
      </trkpt>
      <trkpt lat="44.97461" lon="4.5201">
        <ele>669</ele>
        <time>2015-11-27T10:24:17Z</time>
      </trkpt>
      <trkpt lat="44.9747" lon="4.5204">
        <ele>663</ele>
        <time>2015-11-27T10:24:21Z</time>
      </trkpt>
      <trkpt lat="44.97473" lon="4.52047">
        <ele>663</ele>
        <time>2015-11-27T10:24:24Z</time>
      </trkpt>
      <trkpt lat="44.97479" lon="4.52063">
        <ele>661</ele>
        <time>2015-11-27T10:24:31Z</time>
      </trkpt>
      <trkpt lat="44.97479" lon="4.52068">
        <ele>660</ele>
        <time>2015-11-27T10:24:48Z</time>
      </trkpt>
      <trkpt lat="44.97474" lon="4.52117">
        <ele>648</ele>
        <time>2015-11-27T10:24:53Z</time>
      </trkpt>
      <trkpt lat="44.97473" lon="4.52132">
        <ele>646</ele>
        <time>2015-11-27T10:24:58Z</time>
      </trkpt>
      <trkpt lat="44.97474" lon="4.52137">
        <ele>645</ele>
        <time>2015-11-27T10:25:00Z</time>
      </trkpt>
      <trkpt lat="44.97484" lon="4.52163">
        <ele>639</ele>
        <time>2015-11-27T10:25:11Z</time>
      </trkpt>
      <trkpt lat="44.97489" lon="4.52181">
        <ele>636</ele>
        <time>2015-11-27T10:25:16Z</time>
      </trkpt>
      <trkpt lat="44.97491" lon="4.52194">
        <ele>635</ele>
        <time>2015-11-27T10:25:20Z</time>
      </trkpt>
      <trkpt lat="44.97495" lon="4.52205">
        <ele>633</ele>
        <time>2015-11-27T10:25:24Z</time>
      </trkpt>
      <trkpt lat="44.97499" lon="4.52217">
        <ele>631</ele>
        <time>2015-11-27T10:25:28Z</time>
      </trkpt>
      <trkpt lat="44.975" lon="4.52231">
        <ele>630</ele>
        <time>2015-11-27T10:25:32Z</time>
      </trkpt>
      <trkpt lat="44.97496" lon="4.52268">
        <ele>627</ele>
        <time>2015-11-27T10:25:40Z</time>
      </trkpt>
      <trkpt lat="44.97504" lon="4.52272">
        <ele>628</ele>
        <time>2015-11-27T10:25:47Z</time>
      </trkpt>
      <trkpt lat="44.97514" lon="4.52267">
        <ele>625</ele>
        <time>2015-11-27T10:25:52Z</time>
      </trkpt>
      <trkpt lat="44.97519" lon="4.52265">
        <ele>624</ele>
        <time>2015-11-27T10:25:55Z</time>
      </trkpt>
      <trkpt lat="44.97525" lon="4.52253">
        <ele>621</ele>
        <time>2015-11-27T10:25:59Z</time>
      </trkpt>
      <trkpt lat="44.97531" lon="4.52247">
        <ele>618</ele>
        <time>2015-11-27T10:26:04Z</time>
      </trkpt>
      <trkpt lat="44.97541" lon="4.52239">
        <ele>616</ele>
        <time>2015-11-27T10:26:08Z</time>
      </trkpt>
      <trkpt lat="44.97551" lon="4.52224">
        <ele>613</ele>
        <time>2015-11-27T10:26:13Z</time>
      </trkpt>
      <trkpt lat="44.97559" lon="4.52216">
        <ele>611</ele>
        <time>2015-11-27T10:26:17Z</time>
      </trkpt>
      <trkpt lat="44.97565" lon="4.52207">
        <ele>608</ele>
        <time>2015-11-27T10:26:21Z</time>
      </trkpt>
      <trkpt lat="44.97571" lon="4.52199">
        <ele>605</ele>
        <time>2015-11-27T10:26:25Z</time>
      </trkpt>
      <trkpt lat="44.97579" lon="4.52191">
        <ele>601</ele>
        <time>2015-11-27T10:26:30Z</time>
      </trkpt>
      <trkpt lat="44.97586" lon="4.52181">
        <ele>597</ele>
        <time>2015-11-27T10:26:35Z</time>
      </trkpt>
      <trkpt lat="44.97592" lon="4.5217">
        <ele>593</ele>
        <time>2015-11-27T10:26:39Z</time>
      </trkpt>
      <trkpt lat="44.97599" lon="4.52161">
        <ele>590</ele>
        <time>2015-11-27T10:26:44Z</time>
      </trkpt>
      <trkpt lat="44.97607" lon="4.52154">
        <ele>586</ele>
        <time>2015-11-27T10:26:49Z</time>
      </trkpt>
      <trkpt lat="44.97616" lon="4.52146">
        <ele>582</ele>
        <time>2015-11-27T10:26:53Z</time>
      </trkpt>
      <trkpt lat="44.97622" lon="4.52139">
        <ele>580</ele>
        <time>2015-11-27T10:26:56Z</time>
      </trkpt>
      <trkpt lat="44.9763" lon="4.5213">
        <ele>576</ele>
        <time>2015-11-27T10:27:00Z</time>
      </trkpt>
      <trkpt lat="44.97637" lon="4.52127">
        <ele>574</ele>
        <time>2015-11-27T10:27:03Z</time>
      </trkpt>
      <trkpt lat="44.97645" lon="4.52124">
        <ele>571</ele>
        <time>2015-11-27T10:27:07Z</time>
      </trkpt>
      <trkpt lat="44.97656" lon="4.52123">
        <ele>567</ele>
        <time>2015-11-27T10:27:12Z</time>
      </trkpt>
      <trkpt lat="44.97664" lon="4.52127">
        <ele>562</ele>
        <time>2015-11-27T10:27:18Z</time>
      </trkpt>
      <trkpt lat="44.97669" lon="4.52129">
        <ele>558</ele>
        <time>2015-11-27T10:27:24Z</time>
      </trkpt>
      <trkpt lat="44.97673" lon="4.52139">
        <ele>556</ele>
        <time>2015-11-27T10:27:28Z</time>
      </trkpt>
      <trkpt lat="44.97682" lon="4.52144">
        <ele>553</ele>
        <time>2015-11-27T10:27:32Z</time>
      </trkpt>
      <trkpt lat="44.97692" lon="4.52148">
        <ele>551</ele>
        <time>2015-11-27T10:27:36Z</time>
      </trkpt>
      <trkpt lat="44.97701" lon="4.52154">
        <ele>548</ele>
        <time>2015-11-27T10:27:41Z</time>
      </trkpt>
      <trkpt lat="44.97707" lon="4.52161">
        <ele>546</ele>
        <time>2015-11-27T10:27:45Z</time>
      </trkpt>
      <trkpt lat="44.97713" lon="4.52172">
        <ele>543</ele>
        <time>2015-11-27T10:27:50Z</time>
      </trkpt>
      <trkpt lat="44.97717" lon="4.52181">
        <ele>540</ele>
        <time>2015-11-27T10:27:54Z</time>
      </trkpt>
      <trkpt lat="44.97722" lon="4.52191">
        <ele>537</ele>
        <time>2015-11-27T10:27:59Z</time>
      </trkpt>
      <trkpt lat="44.97726" lon="4.522">
        <ele>533</ele>
        <time>2015-11-27T10:28:05Z</time>
      </trkpt>
      <trkpt lat="44.97729" lon="4.5221">
        <ele>531</ele>
        <time>2015-11-27T10:28:09Z</time>
      </trkpt>
      <trkpt lat="44.97732" lon="4.52217">
        <ele>528</ele>
        <time>2015-11-27T10:28:13Z</time>
      </trkpt>
      <trkpt lat="44.97735" lon="4.52229">
        <ele>524</ele>
        <time>2015-11-27T10:28:19Z</time>
      </trkpt>
      <trkpt lat="44.97742" lon="4.52235">
        <ele>519</ele>
        <time>2015-11-27T10:28:27Z</time>
      </trkpt>
      <trkpt lat="44.9775" lon="4.5224">
        <ele>517</ele>
        <time>2015-11-27T10:28:35Z</time>
      </trkpt>
      <trkpt lat="44.97758" lon="4.52246">
        <ele>515</ele>
        <time>2015-11-27T10:28:43Z</time>
      </trkpt>
      <trkpt lat="44.97762" lon="4.52252">
        <ele>514</ele>
        <time>2015-11-27T10:28:55Z</time>
      </trkpt>
      <trkpt lat="44.9777" lon="4.52253">
        <ele>513</ele>
        <time>2015-11-27T10:28:59Z</time>
      </trkpt>
      <trkpt lat="44.97778" lon="4.52257">
        <ele>512</ele>
        <time>2015-11-27T10:29:06Z</time>
      </trkpt>
      <trkpt lat="44.97786" lon="4.52262">
        <ele>511</ele>
        <time>2015-11-27T10:29:14Z</time>
      </trkpt>
      <trkpt lat="44.97791" lon="4.52264">
        <ele>511</ele>
        <time>2015-11-27T10:29:18Z</time>
      </trkpt>
      <trkpt lat="44.97799" lon="4.52264">
        <ele>510</ele>
        <time>2015-11-27T10:29:22Z</time>
      </trkpt>
      <trkpt lat="44.97807" lon="4.52265">
        <ele>509</ele>
        <time>2015-11-27T10:29:27Z</time>
      </trkpt>
      <trkpt lat="44.97813" lon="4.5227">
        <ele>508</ele>
        <time>2015-11-27T10:29:34Z</time>
      </trkpt>
      <trkpt lat="44.97816" lon="4.52281">
        <ele>507</ele>
        <time>2015-11-27T10:29:44Z</time>
      </trkpt>
      <trkpt lat="44.97821" lon="4.52288">
        <ele>506</ele>
        <time>2015-11-27T10:29:51Z</time>
      </trkpt>
      <trkpt lat="44.97824" lon="4.52299">
        <ele>504</ele>
        <time>2015-11-27T10:30:04Z</time>
      </trkpt>
      <trkpt lat="44.97833" lon="4.52303">
        <ele>503</ele>
        <time>2015-11-27T10:30:14Z</time>
      </trkpt>
      <trkpt lat="44.97834" lon="4.52315">
        <ele>503</ele>
        <time>2015-11-27T10:30:32Z</time>
      </trkpt>
      <trkpt lat="44.97833" lon="4.52327">
        <ele>502</ele>
        <time>2015-11-27T10:30:35Z</time>
      </trkpt>
      <trkpt lat="44.97834" lon="4.52338">
        <ele>502</ele>
        <time>2015-11-27T10:30:43Z</time>
      </trkpt>
      <trkpt lat="44.9784" lon="4.52348">
        <ele>501</ele>
        <time>2015-11-27T10:30:55Z</time>
      </trkpt>
      <trkpt lat="44.97842" lon="4.52358">
        <ele>501</ele>
        <time>2015-11-27T10:31:04Z</time>
      </trkpt>
      <trkpt lat="44.97842" lon="4.5237">
        <ele>501</ele>
        <time>2015-11-27T10:31:11Z</time>
      </trkpt>
      <trkpt lat="44.97842" lon="4.52381">
        <ele>501</ele>
        <time>2015-11-27T10:31:22Z</time>
      </trkpt>
      <trkpt lat="44.97959" lon="4.52303">
        <ele>505</ele>
        <time>2015-11-27T10:31:25Z</time>
      </trkpt>
      <trkpt lat="44.97987" lon="4.52287">
        <ele>505</ele>
        <time>2015-11-27T10:31:29Z</time>
      </trkpt>
      <trkpt lat="44.97999" lon="4.52285">
        <ele>505</ele>
        <time>2015-11-27T10:31:32Z</time>
      </trkpt>
      <trkpt lat="44.98015" lon="4.5228">
        <ele>505</ele>
        <time>2015-11-27T10:31:37Z</time>
      </trkpt>
      <trkpt lat="44.98022" lon="4.52278">
        <ele>505</ele>
        <time>2015-11-27T10:31:40Z</time>
      </trkpt>
      <trkpt lat="44.98029" lon="4.52269">
        <ele>505</ele>
        <time>2015-11-27T10:31:45Z</time>
      </trkpt>
      <trkpt lat="44.98038" lon="4.52258">
        <ele>506</ele>
        <time>2015-11-27T10:31:49Z</time>
      </trkpt>
      <trkpt lat="44.98044" lon="4.52242">
        <ele>506</ele>
        <time>2015-11-27T10:31:53Z</time>
      </trkpt>
      <trkpt lat="44.98053" lon="4.52234">
        <ele>509</ele>
        <time>2015-11-27T10:31:58Z</time>
      </trkpt>
      <trkpt lat="44.98063" lon="4.52228">
        <ele>512</ele>
        <time>2015-11-27T10:32:02Z</time>
      </trkpt>
      <trkpt lat="44.98073" lon="4.52223">
        <ele>515</ele>
        <time>2015-11-27T10:32:07Z</time>
      </trkpt>
      <trkpt lat="44.98083" lon="4.5222">
        <ele>517</ele>
        <time>2015-11-27T10:32:10Z</time>
      </trkpt>
      <trkpt lat="44.98093" lon="4.52215">
        <ele>519</ele>
        <time>2015-11-27T10:32:14Z</time>
      </trkpt>
      <trkpt lat="44.98101" lon="4.522">
        <ele>520</ele>
        <time>2015-11-27T10:32:19Z</time>
      </trkpt>
      <trkpt lat="44.98111" lon="4.52185">
        <ele>522</ele>
        <time>2015-11-27T10:32:24Z</time>
      </trkpt>
      <trkpt lat="44.98118" lon="4.52177">
        <ele>522</ele>
        <time>2015-11-27T10:32:28Z</time>
      </trkpt>
      <trkpt lat="44.98123" lon="4.5217">
        <ele>523</ele>
        <time>2015-11-27T10:32:31Z</time>
      </trkpt>
      <trkpt lat="44.98133" lon="4.52158">
        <ele>523</ele>
        <time>2015-11-27T10:32:36Z</time>
      </trkpt>
      <trkpt lat="44.9814" lon="4.52147">
        <ele>524</ele>
        <time>2015-11-27T10:32:40Z</time>
      </trkpt>
      <trkpt lat="44.98144" lon="4.52139">
        <ele>524</ele>
        <time>2015-11-27T10:32:43Z</time>
      </trkpt>
      <trkpt lat="44.98149" lon="4.52127">
        <ele>524</ele>
        <time>2015-11-27T10:32:47Z</time>
      </trkpt>
      <trkpt lat="44.98138" lon="4.52108">
        <ele>527</ele>
        <time>2015-11-27T10:32:52Z</time>
      </trkpt>
      <trkpt lat="44.98143" lon="4.521">
        <ele>527</ele>
        <time>2015-11-27T10:32:56Z</time>
      </trkpt>
      <trkpt lat="44.98152" lon="4.52091">
        <ele>527</ele>
        <time>2015-11-27T10:33:00Z</time>
      </trkpt>
      <trkpt lat="44.98159" lon="4.52081">
        <ele>527</ele>
        <time>2015-11-27T10:33:04Z</time>
      </trkpt>
      <trkpt lat="44.98171" lon="4.52083">
        <ele>528</ele>
        <time>2015-11-27T10:33:07Z</time>
      </trkpt>
      <trkpt lat="44.98183" lon="4.52073">
        <ele>528</ele>
        <time>2015-11-27T10:33:12Z</time>
      </trkpt>
      <trkpt lat="44.98185" lon="4.52062">
        <ele>530</ele>
        <time>2015-11-27T10:33:19Z</time>
      </trkpt>
      <trkpt lat="44.98189" lon="4.52054">
        <ele>530</ele>
        <time>2015-11-27T10:33:24Z</time>
      </trkpt>
      <trkpt lat="44.98195" lon="4.52049">
        <ele>530</ele>
        <time>2015-11-27T10:33:28Z</time>
      </trkpt>
      <trkpt lat="44.98197" lon="4.52041">
        <ele>531</ele>
        <time>2015-11-27T10:33:31Z</time>
      </trkpt>
      <trkpt lat="44.98202" lon="4.52032">
        <ele>532</ele>
        <time>2015-11-27T10:33:35Z</time>
      </trkpt>
      <trkpt lat="44.98204" lon="4.52018">
        <ele>532</ele>
        <time>2015-11-27T10:33:39Z</time>
      </trkpt>
      <trkpt lat="44.98209" lon="4.52006">
        <ele>533</ele>
        <time>2015-11-27T10:33:43Z</time>
      </trkpt>
      <trkpt lat="44.98214" lon="4.51995">
        <ele>534</ele>
        <time>2015-11-27T10:33:48Z</time>
      </trkpt>
      <trkpt lat="44.98216" lon="4.51992">
        <ele>534</ele>
        <time>2015-11-27T10:33:49Z</time>
      </trkpt>
      <trkpt lat="44.98222" lon="4.51984">
        <ele>536</ele>
        <time>2015-11-27T10:33:53Z</time>
      </trkpt>
      <trkpt lat="44.98228" lon="4.51972">
        <ele>538</ele>
        <time>2015-11-27T10:34:00Z</time>
      </trkpt>
      <trkpt lat="44.98235" lon="4.51973">
        <ele>538</ele>
        <time>2015-11-27T10:34:06Z</time>
      </trkpt>
      <trkpt lat="44.98238" lon="4.51976">
        <ele>538</ele>
        <time>2015-11-27T10:34:08Z</time>
      </trkpt>
      <trkpt lat="44.98251" lon="4.51972">
        <ele>550</ele>
        <time>2015-11-27T10:34:30Z</time>
      </trkpt>
      <trkpt lat="44.98254" lon="4.51979">
        <ele>549</ele>
        <time>2015-11-27T10:34:36Z</time>
      </trkpt>
      <trkpt lat="44.98257" lon="4.51986">
        <ele>549</ele>
        <time>2015-11-27T10:34:40Z</time>
      </trkpt>
      <trkpt lat="44.98262" lon="4.51993">
        <ele>548</ele>
        <time>2015-11-27T10:34:45Z</time>
      </trkpt>
      <trkpt lat="44.98269" lon="4.51996">
        <ele>548</ele>
        <time>2015-11-27T10:34:48Z</time>
      </trkpt>
      <trkpt lat="44.98278" lon="4.52006">
        <ele>548</ele>
        <time>2015-11-27T10:34:55Z</time>
      </trkpt>
      <trkpt lat="44.98286" lon="4.52012">
        <ele>547</ele>
        <time>2015-11-27T10:34:59Z</time>
      </trkpt>
      <trkpt lat="44.98293" lon="4.52017">
        <ele>547</ele>
        <time>2015-11-27T10:35:04Z</time>
      </trkpt>
      <trkpt lat="44.98299" lon="4.52025">
        <ele>546</ele>
        <time>2015-11-27T10:35:12Z</time>
      </trkpt>
      <trkpt lat="44.98295" lon="4.52035">
        <ele>544</ele>
        <time>2015-11-27T10:35:26Z</time>
      </trkpt>
      <trkpt lat="44.98293" lon="4.52044">
        <ele>543</ele>
        <time>2015-11-27T10:35:30Z</time>
      </trkpt>
      <trkpt lat="44.98293" lon="4.52056">
        <ele>541</ele>
        <time>2015-11-27T10:35:36Z</time>
      </trkpt>
      <trkpt lat="44.98293" lon="4.52067">
        <ele>540</ele>
        <time>2015-11-27T10:35:41Z</time>
      </trkpt>
      <trkpt lat="44.98294" lon="4.52074">
        <ele>540</ele>
        <time>2015-11-27T10:35:45Z</time>
      </trkpt>
      <trkpt lat="44.98296" lon="4.52082">
        <ele>539</ele>
        <time>2015-11-27T10:35:47Z</time>
      </trkpt>
      <trkpt lat="44.98301" lon="4.52094">
        <ele>538</ele>
        <time>2015-11-27T10:35:52Z</time>
      </trkpt>
      <trkpt lat="44.98303" lon="4.52102">
        <ele>538</ele>
        <time>2015-11-27T10:35:55Z</time>
      </trkpt>
      <trkpt lat="44.98305" lon="4.52112">
        <ele>537</ele>
        <time>2015-11-27T10:36:00Z</time>
      </trkpt>
      <trkpt lat="44.98312" lon="4.52126">
        <ele>536</ele>
        <time>2015-11-27T10:36:05Z</time>
      </trkpt>
      <trkpt lat="44.98315" lon="4.52133">
        <ele>536</ele>
        <time>2015-11-27T10:36:09Z</time>
      </trkpt>
      <trkpt lat="44.98319" lon="4.52144">
        <ele>535</ele>
        <time>2015-11-27T10:36:14Z</time>
      </trkpt>
      <trkpt lat="44.98321" lon="4.52153">
        <ele>535</ele>
        <time>2015-11-27T10:36:18Z</time>
      </trkpt>
      <trkpt lat="44.98324" lon="4.52161">
        <ele>535</ele>
        <time>2015-11-27T10:36:22Z</time>
      </trkpt>
      <trkpt lat="44.98322" lon="4.52168">
        <ele>535</ele>
        <time>2015-11-27T10:36:25Z</time>
      </trkpt>
      <trkpt lat="44.98324" lon="4.52177">
        <ele>535</ele>
        <time>2015-11-27T10:36:33Z</time>
      </trkpt>
      <trkpt lat="44.98333" lon="4.52186">
        <ele>534</ele>
        <time>2015-11-27T10:36:37Z</time>
      </trkpt>
      <trkpt lat="44.9834" lon="4.52193">
        <ele>534</ele>
        <time>2015-11-27T10:36:45Z</time>
      </trkpt>
      <trkpt lat="44.98347" lon="4.52197">
        <ele>533</ele>
        <time>2015-11-27T10:36:49Z</time>
      </trkpt>
      <trkpt lat="44.98353" lon="4.52199">
        <ele>533</ele>
        <time>2015-11-27T10:36:53Z</time>
      </trkpt>
      <trkpt lat="44.98358" lon="4.52201">
        <ele>532</ele>
        <time>2015-11-27T10:36:59Z</time>
      </trkpt>
      <trkpt lat="44.98368" lon="4.52205">
        <ele>531</ele>
        <time>2015-11-27T10:37:04Z</time>
      </trkpt>
      <trkpt lat="44.98378" lon="4.52208">
        <ele>530</ele>
        <time>2015-11-27T10:37:08Z</time>
      </trkpt>
      <trkpt lat="44.98386" lon="4.52208">
        <ele>530</ele>
        <time>2015-11-27T10:37:13Z</time>
      </trkpt>
      <trkpt lat="44.98395" lon="4.52211">
        <ele>530</ele>
        <time>2015-11-27T10:37:18Z</time>
      </trkpt>
      <trkpt lat="44.98402" lon="4.52215">
        <ele>529</ele>
        <time>2015-11-27T10:37:24Z</time>
      </trkpt>
      <trkpt lat="44.9841" lon="4.5222">
        <ele>529</ele>
        <time>2015-11-27T10:37:29Z</time>
      </trkpt>
      <trkpt lat="44.98416" lon="4.52222">
        <ele>529</ele>
        <time>2015-11-27T10:37:34Z</time>
      </trkpt>
      <trkpt lat="44.98422" lon="4.52226">
        <ele>528</ele>
        <time>2015-11-27T10:37:37Z</time>
      </trkpt>
      <trkpt lat="44.9843" lon="4.5223">
        <ele>527</ele>
        <time>2015-11-27T10:37:42Z</time>
      </trkpt>
      <trkpt lat="44.98434" lon="4.5224">
        <ele>526</ele>
        <time>2015-11-27T10:37:56Z</time>
      </trkpt>
      <trkpt lat="44.98439" lon="4.52246">
        <ele>527</ele>
        <time>2015-11-27T10:38:03Z</time>
      </trkpt>
      <trkpt lat="44.98445" lon="4.52255">
        <ele>528</ele>
        <time>2015-11-27T10:38:11Z</time>
      </trkpt>
      <trkpt lat="44.98454" lon="4.52252">
        <ele>527</ele>
        <time>2015-11-27T10:38:17Z</time>
      </trkpt>
      <trkpt lat="44.98462" lon="4.52247">
        <ele>527</ele>
        <time>2015-11-27T10:38:23Z</time>
      </trkpt>
      <trkpt lat="44.98469" lon="4.52243">
        <ele>526</ele>
        <time>2015-11-27T10:38:26Z</time>
      </trkpt>
      <trkpt lat="44.98477" lon="4.52241">
        <ele>526</ele>
        <time>2015-11-27T10:38:30Z</time>
      </trkpt>
      <trkpt lat="44.98481" lon="4.52239">
        <ele>526</ele>
        <time>2015-11-27T10:38:34Z</time>
      </trkpt>
      <trkpt lat="44.98489" lon="4.52238">
        <ele>526</ele>
        <time>2015-11-27T10:38:38Z</time>
      </trkpt>
      <trkpt lat="44.98496" lon="4.52236">
        <ele>524</ele>
        <time>2015-11-27T10:38:44Z</time>
      </trkpt>
      <trkpt lat="44.98503" lon="4.52229">
        <ele>523</ele>
        <time>2015-11-27T10:38:52Z</time>
      </trkpt>
      <trkpt lat="44.98509" lon="4.52223">
        <ele>522</ele>
        <time>2015-11-27T10:38:59Z</time>
      </trkpt>
      <trkpt lat="44.98515" lon="4.5222">
        <ele>521</ele>
        <time>2015-11-27T10:39:06Z</time>
      </trkpt>
      <trkpt lat="44.98519" lon="4.52215">
        <ele>521</ele>
        <time>2015-11-27T10:39:12Z</time>
      </trkpt>
      <trkpt lat="44.98531" lon="4.52213">
        <ele>520</ele>
        <time>2015-11-27T10:39:16Z</time>
      </trkpt>
      <trkpt lat="44.98535" lon="4.5221">
        <ele>519</ele>
        <time>2015-11-27T10:39:19Z</time>
      </trkpt>
      <trkpt lat="44.98542" lon="4.52203">
        <ele>517</ele>
        <time>2015-11-27T10:39:25Z</time>
      </trkpt>
      <trkpt lat="44.98549" lon="4.522">
        <ele>516</ele>
        <time>2015-11-27T10:39:30Z</time>
      </trkpt>
      <trkpt lat="44.98556" lon="4.522">
        <ele>515</ele>
        <time>2015-11-27T10:39:35Z</time>
      </trkpt>
      <trkpt lat="44.98565" lon="4.52197">
        <ele>513</ele>
        <time>2015-11-27T10:39:42Z</time>
      </trkpt>
      <trkpt lat="44.9857" lon="4.52188">
        <ele>509</ele>
        <time>2015-11-27T10:39:49Z</time>
      </trkpt>
      <trkpt lat="44.98576" lon="4.5218">
        <ele>507</ele>
        <time>2015-11-27T10:39:56Z</time>
      </trkpt>
      <trkpt lat="44.98581" lon="4.52177">
        <ele>505</ele>
        <time>2015-11-27T10:40:08Z</time>
      </trkpt>
      <trkpt lat="44.98611" lon="4.52184">
        <ele>499</ele>
        <time>2015-11-27T10:40:35Z</time>
      </trkpt>
      <trkpt lat="44.98619" lon="4.52185">
        <ele>498</ele>
        <time>2015-11-27T10:40:41Z</time>
      </trkpt>
      <trkpt lat="44.98627" lon="4.52186">
        <ele>498</ele>
        <time>2015-11-27T10:40:47Z</time>
      </trkpt>
      <trkpt lat="44.9863" lon="4.52186">
        <ele>498</ele>
        <time>2015-11-27T10:40:49Z</time>
      </trkpt>
      <trkpt lat="44.98644" lon="4.52187">
        <ele>496</ele>
        <time>2015-11-27T10:41:00Z</time>
      </trkpt>
      <trkpt lat="44.98652" lon="4.52189">
        <ele>494</ele>
        <time>2015-11-27T10:41:05Z</time>
      </trkpt>
      <trkpt lat="44.98657" lon="4.5219">
        <ele>494</ele>
        <time>2015-11-27T10:41:09Z</time>
      </trkpt>
      <trkpt lat="44.98664" lon="4.52191">
        <ele>492</ele>
        <time>2015-11-27T10:41:13Z</time>
      </trkpt>
      <trkpt lat="44.98673" lon="4.52193">
        <ele>489</ele>
        <time>2015-11-27T10:41:19Z</time>
      </trkpt>
      <trkpt lat="44.98678" lon="4.52191">
        <ele>487</ele>
        <time>2015-11-27T10:41:26Z</time>
      </trkpt>
      <trkpt lat="44.98682" lon="4.52193">
        <ele>487</ele>
        <time>2015-11-27T10:41:29Z</time>
      </trkpt>
      <trkpt lat="44.98687" lon="4.52191">
        <ele>486</ele>
        <time>2015-11-27T10:41:34Z</time>
      </trkpt>
      <trkpt lat="44.98695" lon="4.52189">
        <ele>485</ele>
        <time>2015-11-27T10:41:38Z</time>
      </trkpt>
      <trkpt lat="44.98709" lon="4.52194">
        <ele>480</ele>
        <time>2015-11-27T10:41:53Z</time>
      </trkpt>
      <trkpt lat="44.98717" lon="4.52198">
        <ele>475</ele>
        <time>2015-11-27T10:41:57Z</time>
      </trkpt>
      <trkpt lat="44.98722" lon="4.522">
        <ele>474</ele>
        <time>2015-11-27T10:42:02Z</time>
      </trkpt>
      <trkpt lat="44.98731" lon="4.52199">
        <ele>473</ele>
        <time>2015-11-27T10:42:07Z</time>
      </trkpt>
      <trkpt lat="44.9874" lon="4.522">
        <ele>471</ele>
        <time>2015-11-27T10:42:15Z</time>
      </trkpt>
      <trkpt lat="44.98746" lon="4.52197">
        <ele>470</ele>
        <time>2015-11-27T10:42:21Z</time>
      </trkpt>
      <trkpt lat="44.98753" lon="4.52197">
        <ele>469</ele>
        <time>2015-11-27T10:42:26Z</time>
      </trkpt>
      <trkpt lat="44.98761" lon="4.52198">
        <ele>469</ele>
        <time>2015-11-27T10:42:31Z</time>
      </trkpt>
      <trkpt lat="44.9877" lon="4.52198">
        <ele>468</ele>
        <time>2015-11-27T10:42:36Z</time>
      </trkpt>
      <trkpt lat="44.98776" lon="4.52197">
        <ele>467</ele>
        <time>2015-11-27T10:42:39Z</time>
      </trkpt>
      <trkpt lat="44.98784" lon="4.52198">
        <ele>467</ele>
        <time>2015-11-27T10:42:44Z</time>
      </trkpt>
      <trkpt lat="44.9879" lon="4.52202">
        <ele>465</ele>
        <time>2015-11-27T10:42:49Z</time>
      </trkpt>
      <trkpt lat="44.98796" lon="4.52207">
        <ele>463</ele>
        <time>2015-11-27T10:42:53Z</time>
      </trkpt>
      <trkpt lat="44.98801" lon="4.52213">
        <ele>462</ele>
        <time>2015-11-27T10:42:57Z</time>
      </trkpt>
      <trkpt lat="44.9881" lon="4.52215">
        <ele>462</ele>
        <time>2015-11-27T10:43:01Z</time>
      </trkpt>
      <trkpt lat="44.98816" lon="4.52216">
        <ele>461</ele>
        <time>2015-11-27T10:43:05Z</time>
      </trkpt>
      <trkpt lat="44.98829" lon="4.52216">
        <ele>459</ele>
        <time>2015-11-27T10:43:10Z</time>
      </trkpt>
      <trkpt lat="44.98835" lon="4.52214">
        <ele>459</ele>
        <time>2015-11-27T10:43:13Z</time>
      </trkpt>
      <trkpt lat="44.98842" lon="4.52213">
        <ele>458</ele>
        <time>2015-11-27T10:43:17Z</time>
      </trkpt>
      <trkpt lat="44.9885" lon="4.52214">
        <ele>457</ele>
        <time>2015-11-27T10:43:21Z</time>
      </trkpt>
      <trkpt lat="44.98858" lon="4.52215">
        <ele>456</ele>
        <time>2015-11-27T10:43:27Z</time>
      </trkpt>
      <trkpt lat="44.98865" lon="4.52215">
        <ele>455</ele>
        <time>2015-11-27T10:43:31Z</time>
      </trkpt>
      <trkpt lat="44.98872" lon="4.52211">
        <ele>454</ele>
        <time>2015-11-27T10:43:35Z</time>
      </trkpt>
      <trkpt lat="44.98877" lon="4.52209">
        <ele>453</ele>
        <time>2015-11-27T10:43:39Z</time>
      </trkpt>
      <trkpt lat="44.98886" lon="4.52206">
        <ele>452</ele>
        <time>2015-11-27T10:43:43Z</time>
      </trkpt>
      <trkpt lat="44.98892" lon="4.52198">
        <ele>450</ele>
        <time>2015-11-27T10:43:48Z</time>
      </trkpt>
      <trkpt lat="44.98901" lon="4.52194">
        <ele>449</ele>
        <time>2015-11-27T10:43:53Z</time>
      </trkpt>
      <trkpt lat="44.98908" lon="4.52191">
        <ele>448</ele>
        <time>2015-11-27T10:43:57Z</time>
      </trkpt>
      <trkpt lat="44.98915" lon="4.52189">
        <ele>446</ele>
        <time>2015-11-27T10:44:03Z</time>
      </trkpt>
      <trkpt lat="44.98923" lon="4.52185">
        <ele>446</ele>
        <time>2015-11-27T10:44:12Z</time>
      </trkpt>
      <trkpt lat="44.98929" lon="4.52181">
        <ele>446</ele>
        <time>2015-11-27T10:44:17Z</time>
      </trkpt>
      <trkpt lat="44.98934" lon="4.52171">
        <ele>445</ele>
        <time>2015-11-27T10:44:23Z</time>
      </trkpt>
      <trkpt lat="44.98941" lon="4.52165">
        <ele>445</ele>
        <time>2015-11-27T10:44:31Z</time>
      </trkpt>
      <trkpt lat="44.98949" lon="4.52162">
        <ele>444</ele>
        <time>2015-11-27T10:44:36Z</time>
      </trkpt>
      <trkpt lat="44.98957" lon="4.52159">
        <ele>444</ele>
        <time>2015-11-27T10:44:42Z</time>
      </trkpt>
      <trkpt lat="44.98961" lon="4.52149">
        <ele>443</ele>
        <time>2015-11-27T10:44:48Z</time>
      </trkpt>
      <trkpt lat="44.98967" lon="4.52143">
        <ele>442</ele>
        <time>2015-11-27T10:44:52Z</time>
      </trkpt>
      <trkpt lat="44.98973" lon="4.52139">
        <ele>442</ele>
        <time>2015-11-27T10:44:57Z</time>
      </trkpt>
      <trkpt lat="44.98979" lon="4.52132">
        <ele>441</ele>
        <time>2015-11-27T10:45:04Z</time>
      </trkpt>
      <trkpt lat="44.98987" lon="4.52132">
        <ele>441</ele>
        <time>2015-11-27T10:45:12Z</time>
      </trkpt>
      <trkpt lat="44.98996" lon="4.52131">
        <ele>440</ele>
        <time>2015-11-27T10:45:19Z</time>
      </trkpt>
      <trkpt lat="44.99004" lon="4.52128">
        <ele>438</ele>
        <time>2015-11-27T10:45:27Z</time>
      </trkpt>
      <trkpt lat="44.99011" lon="4.52121">
        <ele>436</ele>
        <time>2015-11-27T10:45:35Z</time>
      </trkpt>
      <trkpt lat="44.99018" lon="4.52115">
        <ele>436</ele>
        <time>2015-11-27T10:45:41Z</time>
      </trkpt>
      <trkpt lat="44.99026" lon="4.52113">
        <ele>435</ele>
        <time>2015-11-27T10:45:50Z</time>
      </trkpt>
      <trkpt lat="44.99033" lon="4.52105">
        <ele>433</ele>
        <time>2015-11-27T10:45:58Z</time>
      </trkpt>
      <trkpt lat="44.99034" lon="4.52094">
        <ele>432</ele>
        <time>2015-11-27T10:46:07Z</time>
      </trkpt>
      <trkpt lat="44.99035" lon="4.52086">
        <ele>431</ele>
        <time>2015-11-27T10:46:12Z</time>
      </trkpt>
      <trkpt lat="44.99043" lon="4.5208">
        <ele>431</ele>
        <time>2015-11-27T10:46:17Z</time>
      </trkpt>
      <trkpt lat="44.9905" lon="4.52073">
        <ele>430</ele>
        <time>2015-11-27T10:46:22Z</time>
      </trkpt>
      <trkpt lat="44.99054" lon="4.52065">
        <ele>430</ele>
        <time>2015-11-27T10:46:26Z</time>
      </trkpt>
      <trkpt lat="44.99059" lon="4.52057">
        <ele>430</ele>
        <time>2015-11-27T10:46:30Z</time>
      </trkpt>
      <trkpt lat="44.99065" lon="4.52054">
        <ele>429</ele>
        <time>2015-11-27T10:46:34Z</time>
      </trkpt>
      <trkpt lat="44.99072" lon="4.52047">
        <ele>428</ele>
        <time>2015-11-27T10:46:40Z</time>
      </trkpt>
      <trkpt lat="44.99079" lon="4.52043">
        <ele>427</ele>
        <time>2015-11-27T10:46:45Z</time>
      </trkpt>
      <trkpt lat="44.99087" lon="4.52039">
        <ele>426</ele>
        <time>2015-11-27T10:46:51Z</time>
      </trkpt>
      <trkpt lat="44.99093" lon="4.52035">
        <ele>425</ele>
        <time>2015-11-27T10:46:55Z</time>
      </trkpt>
      <trkpt lat="44.99099" lon="4.52028">
        <ele>424</ele>
        <time>2015-11-27T10:47:01Z</time>
      </trkpt>
      <trkpt lat="44.99105" lon="4.5202">
        <ele>423</ele>
        <time>2015-11-27T10:47:07Z</time>
      </trkpt>
      <trkpt lat="44.99111" lon="4.52014">
        <ele>422</ele>
        <time>2015-11-27T10:47:13Z</time>
      </trkpt>
      <trkpt lat="44.99117" lon="4.52007">
        <ele>421</ele>
        <time>2015-11-27T10:47:17Z</time>
      </trkpt>
      <trkpt lat="44.99121" lon="4.52">
        <ele>421</ele>
        <time>2015-11-27T10:47:21Z</time>
      </trkpt>
      <trkpt lat="44.99128" lon="4.51992">
        <ele>420</ele>
        <time>2015-11-27T10:47:25Z</time>
      </trkpt>
      <trkpt lat="44.99132" lon="4.51984">
        <ele>419</ele>
        <time>2015-11-27T10:47:29Z</time>
      </trkpt>
      <trkpt lat="44.99138" lon="4.51976">
        <ele>419</ele>
        <time>2015-11-27T10:47:33Z</time>
      </trkpt>
      <trkpt lat="44.99143" lon="4.51965">
        <ele>418</ele>
        <time>2015-11-27T10:47:38Z</time>
      </trkpt>
      <trkpt lat="44.9915" lon="4.51957">
        <ele>418</ele>
        <time>2015-11-27T10:47:43Z</time>
      </trkpt>
      <trkpt lat="44.99157" lon="4.51952">
        <ele>417</ele>
        <time>2015-11-27T10:47:47Z</time>
      </trkpt>
      <trkpt lat="44.9916" lon="4.51944">
        <ele>416</ele>
        <time>2015-11-27T10:47:52Z</time>
      </trkpt>
      <trkpt lat="44.99166" lon="4.51936">
        <ele>415</ele>
        <time>2015-11-27T10:47:57Z</time>
      </trkpt>
      <trkpt lat="44.99173" lon="4.5193">
        <ele>415</ele>
        <time>2015-11-27T10:48:01Z</time>
      </trkpt>
      <trkpt lat="44.99181" lon="4.51924">
        <ele>414</ele>
        <time>2015-11-27T10:48:06Z</time>
      </trkpt>
      <trkpt lat="44.99187" lon="4.51915">
        <ele>412</ele>
        <time>2015-11-27T10:48:13Z</time>
      </trkpt>
      <trkpt lat="44.99194" lon="4.51907">
        <ele>411</ele>
        <time>2015-11-27T10:48:19Z</time>
      </trkpt>
      <trkpt lat="44.99198" lon="4.51898">
        <ele>410</ele>
        <time>2015-11-27T10:48:23Z</time>
      </trkpt>
      <trkpt lat="44.99202" lon="4.5189">
        <ele>409</ele>
        <time>2015-11-27T10:48:27Z</time>
      </trkpt>
      <trkpt lat="44.99206" lon="4.51881">
        <ele>408</ele>
        <time>2015-11-27T10:48:33Z</time>
      </trkpt>
      <trkpt lat="44.99211" lon="4.51875">
        <ele>407</ele>
        <time>2015-11-27T10:48:39Z</time>
      </trkpt>
      <trkpt lat="44.99219" lon="4.51869">
        <ele>406</ele>
        <time>2015-11-27T10:48:46Z</time>
      </trkpt>
      <trkpt lat="44.99224" lon="4.51863">
        <ele>406</ele>
        <time>2015-11-27T10:48:51Z</time>
      </trkpt>
      <trkpt lat="44.99231" lon="4.51866">
        <ele>404</ele>
        <time>2015-11-27T10:48:57Z</time>
      </trkpt>
      <trkpt lat="44.99236" lon="4.51873">
        <ele>403</ele>
        <time>2015-11-27T10:49:01Z</time>
      </trkpt>
      <trkpt lat="44.99242" lon="4.51882">
        <ele>402</ele>
        <time>2015-11-27T10:49:07Z</time>
      </trkpt>
      <trkpt lat="44.99246" lon="4.5189">
        <ele>401</ele>
        <time>2015-11-27T10:49:13Z</time>
      </trkpt>
      <trkpt lat="44.99252" lon="4.51898">
        <ele>399</ele>
        <time>2015-11-27T10:49:19Z</time>
      </trkpt>
      <trkpt lat="44.99257" lon="4.51907">
        <ele>398</ele>
        <time>2015-11-27T10:49:31Z</time>
      </trkpt>
      <trkpt lat="44.99264" lon="4.51913">
        <ele>397</ele>
        <time>2015-11-27T10:49:38Z</time>
      </trkpt>
      <trkpt lat="44.9927" lon="4.51922">
        <ele>397</ele>
        <time>2015-11-27T10:49:43Z</time>
      </trkpt>
      <trkpt lat="44.99276" lon="4.51931">
        <ele>396</ele>
        <time>2015-11-27T10:49:50Z</time>
      </trkpt>
      <trkpt lat="44.99279" lon="4.51941">
        <ele>394</ele>
        <time>2015-11-27T10:49:55Z</time>
      </trkpt>
      <trkpt lat="44.99284" lon="4.5195">
        <ele>393</ele>
        <time>2015-11-27T10:50:01Z</time>
      </trkpt>
      <trkpt lat="44.99292" lon="4.51956">
        <ele>392</ele>
        <time>2015-11-27T10:50:06Z</time>
      </trkpt>
      <trkpt lat="44.993" lon="4.51955">
        <ele>391</ele>
        <time>2015-11-27T10:50:12Z</time>
      </trkpt>
      <trkpt lat="44.99307" lon="4.51948">
        <ele>390</ele>
        <time>2015-11-27T10:50:19Z</time>
      </trkpt>
      <trkpt lat="44.99313" lon="4.51941">
        <ele>389</ele>
        <time>2015-11-27T10:50:24Z</time>
      </trkpt>
      <trkpt lat="44.99316" lon="4.51932">
        <ele>388</ele>
        <time>2015-11-27T10:50:29Z</time>
      </trkpt>
      <trkpt lat="44.99314" lon="4.51921">
        <ele>388</ele>
        <time>2015-11-27T10:50:33Z</time>
      </trkpt>
      <trkpt lat="44.99313" lon="4.51909">
        <ele>388</ele>
        <time>2015-11-27T10:50:39Z</time>
      </trkpt>
      <trkpt lat="44.99314" lon="4.519">
        <ele>388</ele>
        <time>2015-11-27T10:50:43Z</time>
      </trkpt>
      <trkpt lat="44.99313" lon="4.51892">
        <ele>388</ele>
        <time>2015-11-27T10:50:46Z</time>
      </trkpt>
      <trkpt lat="44.99313" lon="4.5188">
        <ele>388</ele>
        <time>2015-11-27T10:50:51Z</time>
      </trkpt>
      <trkpt lat="44.99313" lon="4.51868">
        <ele>388</ele>
        <time>2015-11-27T10:50:57Z</time>
      </trkpt>
      <trkpt lat="44.99313" lon="4.51859">
        <ele>387</ele>
        <time>2015-11-27T10:51:01Z</time>
      </trkpt>
      <trkpt lat="44.99316" lon="4.5185">
        <ele>387</ele>
        <time>2015-11-27T10:51:05Z</time>
      </trkpt>
      <trkpt lat="44.99319" lon="4.5183">
        <ele>390</ele>
        <time>2015-11-27T10:51:09Z</time>
      </trkpt>
      <trkpt lat="44.99319" lon="4.51822">
        <ele>392</ele>
        <time>2015-11-27T10:51:13Z</time>
      </trkpt>
      <trkpt lat="44.99322" lon="4.51813">
        <ele>394</ele>
        <time>2015-11-27T10:51:19Z</time>
      </trkpt>
      <trkpt lat="44.99321" lon="4.51802">
        <ele>395</ele>
        <time>2015-11-27T10:51:25Z</time>
      </trkpt>
      <trkpt lat="44.99318" lon="4.51792">
        <ele>397</ele>
        <time>2015-11-27T10:51:32Z</time>
      </trkpt>
      <trkpt lat="44.99319" lon="4.5178">
        <ele>398</ele>
        <time>2015-11-27T10:51:37Z</time>
      </trkpt>
      <trkpt lat="44.99316" lon="4.5177">
        <ele>398</ele>
        <time>2015-11-27T10:51:42Z</time>
      </trkpt>
      <trkpt lat="44.99316" lon="4.51757">
        <ele>398</ele>
        <time>2015-11-27T10:51:49Z</time>
      </trkpt>
      <trkpt lat="44.99314" lon="4.51747">
        <ele>398</ele>
        <time>2015-11-27T10:51:55Z</time>
      </trkpt>
      <trkpt lat="44.99313" lon="4.51736">
        <ele>399</ele>
        <time>2015-11-27T10:52:03Z</time>
      </trkpt>
      <trkpt lat="44.99312" lon="4.51724">
        <ele>400</ele>
        <time>2015-11-27T10:52:09Z</time>
      </trkpt>
      <trkpt lat="44.99316" lon="4.51713">
        <ele>401</ele>
        <time>2015-11-27T10:52:15Z</time>
      </trkpt>
      <trkpt lat="44.99322" lon="4.51703">
        <ele>401</ele>
        <time>2015-11-27T10:52:21Z</time>
      </trkpt>
      <trkpt lat="44.99324" lon="4.51692">
        <ele>401</ele>
        <time>2015-11-27T10:52:26Z</time>
      </trkpt>
      <trkpt lat="44.99329" lon="4.51684">
        <ele>402</ele>
        <time>2015-11-27T10:52:31Z</time>
      </trkpt>
      <trkpt lat="44.99337" lon="4.51683">
        <ele>404</ele>
        <time>2015-11-27T10:52:41Z</time>
      </trkpt>
      <trkpt lat="44.99338" lon="4.51683">
        <ele>404</ele>
        <time>2015-11-27T10:52:53Z</time>
      </trkpt>
      <trkpt lat="44.99338" lon="4.51683">
        <ele>404</ele>
        <time>2015-11-27T10:52:54Z</time>
      </trkpt>
    </trkseg>
  </trk>
</gpx>